<?xml version="1.0" encoding="UTF-8" standalone="no" ?>
<gpx xmlns="http://www.topografix.com/GPX/1/1" xmlns:xsi="http://www.w3.org/2001/XMLSchema-instance" xsi:schemaLocation="http://www.topografix.com/GPX/1/1 http://www.topografix.com/GPX/1/1/gpx.xsd" version="1.1" creator="VisuGPX - https://www.visugpx.com">
  <metadata>
    <name>La Sauve facile long</name>
    <desc><![CDATA[Randonnée VTT pour débutants]]></desc>
  </metadata>
  <trk>
    <name><![CDATA[La sauve debutant long]]></name>
    <trkseg>
      <trkpt lat="44.77649" lon="-0.34847">
        <ele>100</ele>
        <time>2012-12-16T13:07:04Z</time>
      </trkpt>
      <trkpt lat="44.7765" lon="-0.34852">
        <ele>100</ele>
        <time>2012-12-16T13:07:21Z</time>
      </trkpt>
      <trkpt lat="44.77643" lon="-0.34852">
        <ele>100</ele>
        <time>2012-12-16T13:07:39Z</time>
      </trkpt>
      <trkpt lat="44.77642" lon="-0.34849">
        <ele>100</ele>
        <time>2012-12-16T13:07:55Z</time>
      </trkpt>
      <trkpt lat="44.77642" lon="-0.3485">
        <ele>100</ele>
        <time>2012-12-16T13:08:11Z</time>
      </trkpt>
      <trkpt lat="44.77642" lon="-0.34851">
        <ele>100</ele>
        <time>2012-12-16T13:08:30Z</time>
      </trkpt>
      <trkpt lat="44.77642" lon="-0.34852">
        <ele>100</ele>
        <time>2012-12-16T13:08:43Z</time>
      </trkpt>
      <trkpt lat="44.77643" lon="-0.3485">
        <ele>100</ele>
        <time>2012-12-16T13:08:55Z</time>
      </trkpt>
      <trkpt lat="44.77643" lon="-0.34849">
        <ele>100</ele>
        <time>2012-12-16T13:09:01Z</time>
      </trkpt>
      <trkpt lat="44.77644" lon="-0.34845">
        <ele>100</ele>
        <time>2012-12-16T13:09:10Z</time>
      </trkpt>
      <trkpt lat="44.77644" lon="-0.34838">
        <ele>100</ele>
        <time>2012-12-16T13:09:20Z</time>
      </trkpt>
      <trkpt lat="44.77645" lon="-0.34837">
        <ele>100</ele>
        <time>2012-12-16T13:09:33Z</time>
      </trkpt>
      <trkpt lat="44.77645" lon="-0.34837">
        <ele>100</ele>
        <time>2012-12-16T13:09:46Z</time>
      </trkpt>
      <trkpt lat="44.77645" lon="-0.34837">
        <ele>100</ele>
        <time>2012-12-16T13:09:56Z</time>
      </trkpt>
      <trkpt lat="44.77645" lon="-0.34837">
        <ele>100</ele>
        <time>2012-12-16T13:10:16Z</time>
      </trkpt>
      <trkpt lat="44.77645" lon="-0.34837">
        <ele>100</ele>
        <time>2012-12-16T13:10:26Z</time>
      </trkpt>
      <trkpt lat="44.77645" lon="-0.34837">
        <ele>100</ele>
        <time>2012-12-16T13:10:38Z</time>
      </trkpt>
      <trkpt lat="44.77644" lon="-0.34837">
        <ele>100</ele>
        <time>2012-12-16T13:10:54Z</time>
      </trkpt>
      <trkpt lat="44.77644" lon="-0.34837">
        <ele>100</ele>
        <time>2012-12-16T13:11:06Z</time>
      </trkpt>
      <trkpt lat="44.77644" lon="-0.34837">
        <ele>100</ele>
        <time>2012-12-16T13:11:20Z</time>
      </trkpt>
      <trkpt lat="44.77644" lon="-0.34837">
        <ele>100</ele>
        <time>2012-12-16T13:11:32Z</time>
      </trkpt>
      <trkpt lat="44.77644" lon="-0.34837">
        <ele>100</ele>
        <time>2012-12-16T13:11:45Z</time>
      </trkpt>
      <trkpt lat="44.77644" lon="-0.34836">
        <ele>100</ele>
        <time>2012-12-16T13:11:58Z</time>
      </trkpt>
      <trkpt lat="44.77644" lon="-0.34836">
        <ele>100</ele>
        <time>2012-12-16T13:12:07Z</time>
      </trkpt>
      <trkpt lat="44.77644" lon="-0.34835">
        <ele>100</ele>
        <time>2012-12-16T13:12:15Z</time>
      </trkpt>
      <trkpt lat="44.77644" lon="-0.34835">
        <ele>100</ele>
        <time>2012-12-16T13:12:23Z</time>
      </trkpt>
      <trkpt lat="44.77644" lon="-0.34836">
        <ele>100</ele>
        <time>2012-12-16T13:12:38Z</time>
      </trkpt>
      <trkpt lat="44.77644" lon="-0.34836">
        <ele>100</ele>
        <time>2012-12-16T13:12:50Z</time>
      </trkpt>
      <trkpt lat="44.77644" lon="-0.34836">
        <ele>100</ele>
        <time>2012-12-16T13:12:56Z</time>
      </trkpt>
      <trkpt lat="44.77643" lon="-0.34836">
        <ele>100</ele>
        <time>2012-12-16T13:13:12Z</time>
      </trkpt>
      <trkpt lat="44.77644" lon="-0.34836">
        <ele>100</ele>
        <time>2012-12-16T13:13:20Z</time>
      </trkpt>
      <trkpt lat="44.77644" lon="-0.34837">
        <ele>100</ele>
        <time>2012-12-16T13:13:40Z</time>
      </trkpt>
      <trkpt lat="44.77644" lon="-0.34837">
        <ele>100</ele>
        <time>2012-12-16T13:13:57Z</time>
      </trkpt>
      <trkpt lat="44.77644" lon="-0.34837">
        <ele>100</ele>
        <time>2012-12-16T13:14:09Z</time>
      </trkpt>
      <trkpt lat="44.77644" lon="-0.34838">
        <ele>100</ele>
        <time>2012-12-16T13:14:24Z</time>
      </trkpt>
      <trkpt lat="44.77644" lon="-0.34838">
        <ele>100</ele>
        <time>2012-12-16T13:14:34Z</time>
      </trkpt>
      <trkpt lat="44.77644" lon="-0.34838">
        <ele>100</ele>
        <time>2012-12-16T13:14:46Z</time>
      </trkpt>
      <trkpt lat="44.77644" lon="-0.34838">
        <ele>100</ele>
        <time>2012-12-16T13:14:56Z</time>
      </trkpt>
      <trkpt lat="44.77644" lon="-0.34838">
        <ele>100</ele>
        <time>2012-12-16T13:15:13Z</time>
      </trkpt>
      <trkpt lat="44.77644" lon="-0.34839">
        <ele>100</ele>
        <time>2012-12-16T13:15:29Z</time>
      </trkpt>
      <trkpt lat="44.77644" lon="-0.34839">
        <ele>100</ele>
        <time>2012-12-16T13:15:38Z</time>
      </trkpt>
      <trkpt lat="44.77645" lon="-0.3484">
        <ele>100</ele>
        <time>2012-12-16T13:15:44Z</time>
      </trkpt>
      <trkpt lat="44.77644" lon="-0.34855">
        <ele>100</ele>
        <time>2012-12-16T13:15:53Z</time>
      </trkpt>
      <trkpt lat="44.77641" lon="-0.34871">
        <ele>100</ele>
        <time>2012-12-16T13:16:00Z</time>
      </trkpt>
      <trkpt lat="44.77633" lon="-0.34876">
        <ele>99</ele>
        <time>2012-12-16T13:16:07Z</time>
      </trkpt>
      <trkpt lat="44.77632" lon="-0.34877">
        <ele>99</ele>
        <time>2012-12-16T13:16:08Z</time>
      </trkpt>
      <trkpt lat="44.77629" lon="-0.3487">
        <ele>100</ele>
        <time>2012-12-16T13:16:13Z</time>
      </trkpt>
      <trkpt lat="44.7763" lon="-0.34849">
        <ele>100</ele>
        <time>2012-12-16T13:16:21Z</time>
      </trkpt>
      <trkpt lat="44.7763" lon="-0.34825">
        <ele>101</ele>
        <time>2012-12-16T13:16:28Z</time>
      </trkpt>
      <trkpt lat="44.77628" lon="-0.34787">
        <ele>101</ele>
        <time>2012-12-16T13:16:38Z</time>
      </trkpt>
      <trkpt lat="44.77628" lon="-0.3477">
        <ele>102</ele>
        <time>2012-12-16T13:16:43Z</time>
      </trkpt>
      <trkpt lat="44.77625" lon="-0.34748">
        <ele>102</ele>
        <time>2012-12-16T13:16:49Z</time>
      </trkpt>
      <trkpt lat="44.77619" lon="-0.34709">
        <ele>102</ele>
        <time>2012-12-16T13:16:58Z</time>
      </trkpt>
      <trkpt lat="44.77608" lon="-0.34687">
        <ele>103</ele>
        <time>2012-12-16T13:17:04Z</time>
      </trkpt>
      <trkpt lat="44.77583" lon="-0.3466">
        <ele>103</ele>
        <time>2012-12-16T13:17:13Z</time>
      </trkpt>
      <trkpt lat="44.77571" lon="-0.34646">
        <ele>104</ele>
        <time>2012-12-16T13:17:18Z</time>
      </trkpt>
      <trkpt lat="44.77582" lon="-0.34631">
        <ele>104</ele>
        <time>2012-12-16T13:17:23Z</time>
      </trkpt>
      <trkpt lat="44.7759" lon="-0.34627">
        <ele>104</ele>
        <time>2012-12-16T13:17:25Z</time>
      </trkpt>
      <trkpt lat="44.77594" lon="-0.34624">
        <ele>104</ele>
        <time>2012-12-16T13:17:26Z</time>
      </trkpt>
      <trkpt lat="44.77597" lon="-0.34621">
        <ele>104</ele>
        <time>2012-12-16T13:17:27Z</time>
      </trkpt>
      <trkpt lat="44.77601" lon="-0.34617">
        <ele>104</ele>
        <time>2012-12-16T13:17:28Z</time>
      </trkpt>
      <trkpt lat="44.77604" lon="-0.34613">
        <ele>104</ele>
        <time>2012-12-16T13:17:29Z</time>
      </trkpt>
      <trkpt lat="44.77622" lon="-0.34587">
        <ele>104</ele>
        <time>2012-12-16T13:17:36Z</time>
      </trkpt>
      <trkpt lat="44.77635" lon="-0.34548">
        <ele>104</ele>
        <time>2012-12-16T13:17:44Z</time>
      </trkpt>
      <trkpt lat="44.77639" lon="-0.3453">
        <ele>104</ele>
        <time>2012-12-16T13:17:47Z</time>
      </trkpt>
      <trkpt lat="44.77641" lon="-0.34524">
        <ele>104</ele>
        <time>2012-12-16T13:17:48Z</time>
      </trkpt>
      <trkpt lat="44.77642" lon="-0.34518">
        <ele>104</ele>
        <time>2012-12-16T13:17:49Z</time>
      </trkpt>
      <trkpt lat="44.77651" lon="-0.34467">
        <ele>104</ele>
        <time>2012-12-16T13:17:56Z</time>
      </trkpt>
      <trkpt lat="44.77653" lon="-0.34451">
        <ele>103</ele>
        <time>2012-12-16T13:17:58Z</time>
      </trkpt>
      <trkpt lat="44.77654" lon="-0.34443">
        <ele>103</ele>
        <time>2012-12-16T13:17:59Z</time>
      </trkpt>
      <trkpt lat="44.7767" lon="-0.3438">
        <ele>100</ele>
        <time>2012-12-16T13:18:07Z</time>
      </trkpt>
      <trkpt lat="44.77695" lon="-0.34324">
        <ele>100</ele>
        <time>2012-12-16T13:18:15Z</time>
      </trkpt>
      <trkpt lat="44.77706" lon="-0.343">
        <ele>101</ele>
        <time>2012-12-16T13:18:18Z</time>
      </trkpt>
      <trkpt lat="44.7771" lon="-0.34292">
        <ele>102</ele>
        <time>2012-12-16T13:18:19Z</time>
      </trkpt>
      <trkpt lat="44.77717" lon="-0.34278">
        <ele>102</ele>
        <time>2012-12-16T13:18:21Z</time>
      </trkpt>
      <trkpt lat="44.77724" lon="-0.34266">
        <ele>102</ele>
        <time>2012-12-16T13:18:23Z</time>
      </trkpt>
      <trkpt lat="44.77725" lon="-0.34258">
        <ele>102</ele>
        <time>2012-12-16T13:18:24Z</time>
      </trkpt>
      <trkpt lat="44.77723" lon="-0.34251">
        <ele>102</ele>
        <time>2012-12-16T13:18:25Z</time>
      </trkpt>
      <trkpt lat="44.77721" lon="-0.34246">
        <ele>102</ele>
        <time>2012-12-16T13:18:26Z</time>
      </trkpt>
      <trkpt lat="44.77717" lon="-0.34242">
        <ele>102</ele>
        <time>2012-12-16T13:18:27Z</time>
      </trkpt>
      <trkpt lat="44.77714" lon="-0.3424">
        <ele>102</ele>
        <time>2012-12-16T13:18:28Z</time>
      </trkpt>
      <trkpt lat="44.77711" lon="-0.34239">
        <ele>102</ele>
        <time>2012-12-16T13:18:29Z</time>
      </trkpt>
      <trkpt lat="44.77707" lon="-0.34237">
        <ele>102</ele>
        <time>2012-12-16T13:18:30Z</time>
      </trkpt>
      <trkpt lat="44.77704" lon="-0.34236">
        <ele>103</ele>
        <time>2012-12-16T13:18:31Z</time>
      </trkpt>
      <trkpt lat="44.77686" lon="-0.34225">
        <ele>103</ele>
        <time>2012-12-16T13:18:37Z</time>
      </trkpt>
      <trkpt lat="44.77664" lon="-0.34212">
        <ele>104</ele>
        <time>2012-12-16T13:18:44Z</time>
      </trkpt>
      <trkpt lat="44.77645" lon="-0.34199">
        <ele>104</ele>
        <time>2012-12-16T13:18:50Z</time>
      </trkpt>
      <trkpt lat="44.77621" lon="-0.34185">
        <ele>104</ele>
        <time>2012-12-16T13:18:57Z</time>
      </trkpt>
      <trkpt lat="44.77599" lon="-0.34173">
        <ele>105</ele>
        <time>2012-12-16T13:19:05Z</time>
      </trkpt>
      <trkpt lat="44.77595" lon="-0.3417">
        <ele>105</ele>
        <time>2012-12-16T13:19:07Z</time>
      </trkpt>
      <trkpt lat="44.77593" lon="-0.3417">
        <ele>105</ele>
        <time>2012-12-16T13:19:08Z</time>
      </trkpt>
      <trkpt lat="44.77591" lon="-0.34169">
        <ele>105</ele>
        <time>2012-12-16T13:19:09Z</time>
      </trkpt>
      <trkpt lat="44.77589" lon="-0.34167">
        <ele>105</ele>
        <time>2012-12-16T13:19:10Z</time>
      </trkpt>
      <trkpt lat="44.77586" lon="-0.34166">
        <ele>105</ele>
        <time>2012-12-16T13:19:11Z</time>
      </trkpt>
      <trkpt lat="44.77583" lon="-0.34165">
        <ele>105</ele>
        <time>2012-12-16T13:19:12Z</time>
      </trkpt>
      <trkpt lat="44.77581" lon="-0.34165">
        <ele>105</ele>
        <time>2012-12-16T13:19:13Z</time>
      </trkpt>
      <trkpt lat="44.77579" lon="-0.34166">
        <ele>105</ele>
        <time>2012-12-16T13:19:14Z</time>
      </trkpt>
      <trkpt lat="44.77577" lon="-0.34167">
        <ele>105</ele>
        <time>2012-12-16T13:19:15Z</time>
      </trkpt>
      <trkpt lat="44.77576" lon="-0.34169">
        <ele>105</ele>
        <time>2012-12-16T13:19:16Z</time>
      </trkpt>
      <trkpt lat="44.77575" lon="-0.34172">
        <ele>105</ele>
        <time>2012-12-16T13:19:17Z</time>
      </trkpt>
      <trkpt lat="44.77574" lon="-0.34174">
        <ele>105</ele>
        <time>2012-12-16T13:19:18Z</time>
      </trkpt>
      <trkpt lat="44.77573" lon="-0.34177">
        <ele>105</ele>
        <time>2012-12-16T13:19:19Z</time>
      </trkpt>
      <trkpt lat="44.77566" lon="-0.34201">
        <ele>104</ele>
        <time>2012-12-16T13:19:26Z</time>
      </trkpt>
      <trkpt lat="44.77558" lon="-0.34236">
        <ele>104</ele>
        <time>2012-12-16T13:19:35Z</time>
      </trkpt>
      <trkpt lat="44.77547" lon="-0.34249">
        <ele>104</ele>
        <time>2012-12-16T13:19:41Z</time>
      </trkpt>
      <trkpt lat="44.77545" lon="-0.34251">
        <ele>104</ele>
        <time>2012-12-16T13:19:42Z</time>
      </trkpt>
      <trkpt lat="44.77543" lon="-0.34252">
        <ele>104</ele>
        <time>2012-12-16T13:19:43Z</time>
      </trkpt>
      <trkpt lat="44.77541" lon="-0.34252">
        <ele>104</ele>
        <time>2012-12-16T13:19:44Z</time>
      </trkpt>
      <trkpt lat="44.7754" lon="-0.3425">
        <ele>105</ele>
        <time>2012-12-16T13:19:45Z</time>
      </trkpt>
      <trkpt lat="44.77539" lon="-0.34249">
        <ele>105</ele>
        <time>2012-12-16T13:19:46Z</time>
      </trkpt>
      <trkpt lat="44.77537" lon="-0.34247">
        <ele>105</ele>
        <time>2012-12-16T13:19:47Z</time>
      </trkpt>
      <trkpt lat="44.77535" lon="-0.34246">
        <ele>105</ele>
        <time>2012-12-16T13:19:48Z</time>
      </trkpt>
      <trkpt lat="44.77533" lon="-0.34245">
        <ele>105</ele>
        <time>2012-12-16T13:19:49Z</time>
      </trkpt>
      <trkpt lat="44.77531" lon="-0.34243">
        <ele>105</ele>
        <time>2012-12-16T13:19:50Z</time>
      </trkpt>
      <trkpt lat="44.77513" lon="-0.34231">
        <ele>105</ele>
        <time>2012-12-16T13:19:58Z</time>
      </trkpt>
      <trkpt lat="44.77498" lon="-0.34226">
        <ele>105</ele>
        <time>2012-12-16T13:20:04Z</time>
      </trkpt>
      <trkpt lat="44.77484" lon="-0.34218">
        <ele>105</ele>
        <time>2012-12-16T13:20:10Z</time>
      </trkpt>
      <trkpt lat="44.77466" lon="-0.34209">
        <ele>105</ele>
        <time>2012-12-16T13:20:16Z</time>
      </trkpt>
      <trkpt lat="44.77443" lon="-0.34195">
        <ele>106</ele>
        <time>2012-12-16T13:20:24Z</time>
      </trkpt>
      <trkpt lat="44.77422" lon="-0.34177">
        <ele>106</ele>
        <time>2012-12-16T13:20:32Z</time>
      </trkpt>
      <trkpt lat="44.77407" lon="-0.34164">
        <ele>106</ele>
        <time>2012-12-16T13:20:39Z</time>
      </trkpt>
      <trkpt lat="44.77398" lon="-0.34151">
        <ele>106</ele>
        <time>2012-12-16T13:20:43Z</time>
      </trkpt>
      <trkpt lat="44.77382" lon="-0.3413">
        <ele>106</ele>
        <time>2012-12-16T13:20:50Z</time>
      </trkpt>
      <trkpt lat="44.77366" lon="-0.34117">
        <ele>106</ele>
        <time>2012-12-16T13:20:56Z</time>
      </trkpt>
      <trkpt lat="44.77348" lon="-0.34093">
        <ele>106</ele>
        <time>2012-12-16T13:21:03Z</time>
      </trkpt>
      <trkpt lat="44.77335" lon="-0.34073">
        <ele>106</ele>
        <time>2012-12-16T13:21:09Z</time>
      </trkpt>
      <trkpt lat="44.77325" lon="-0.34058">
        <ele>106</ele>
        <time>2012-12-16T13:21:15Z</time>
      </trkpt>
      <trkpt lat="44.77311" lon="-0.34041">
        <ele>106</ele>
        <time>2012-12-16T13:21:22Z</time>
      </trkpt>
      <trkpt lat="44.77298" lon="-0.34028">
        <ele>106</ele>
        <time>2012-12-16T13:21:28Z</time>
      </trkpt>
      <trkpt lat="44.77295" lon="-0.34019">
        <ele>106</ele>
        <time>2012-12-16T13:21:31Z</time>
      </trkpt>
      <trkpt lat="44.77277" lon="-0.33995">
        <ele>105</ele>
        <time>2012-12-16T13:21:39Z</time>
      </trkpt>
      <trkpt lat="44.77267" lon="-0.33981">
        <ele>105</ele>
        <time>2012-12-16T13:21:45Z</time>
      </trkpt>
      <trkpt lat="44.77254" lon="-0.33954">
        <ele>105</ele>
        <time>2012-12-16T13:21:53Z</time>
      </trkpt>
      <trkpt lat="44.77252" lon="-0.33952">
        <ele>105</ele>
        <time>2012-12-16T13:21:54Z</time>
      </trkpt>
      <trkpt lat="44.77249" lon="-0.33951">
        <ele>105</ele>
        <time>2012-12-16T13:21:55Z</time>
      </trkpt>
      <trkpt lat="44.77246" lon="-0.33952">
        <ele>105</ele>
        <time>2012-12-16T13:21:56Z</time>
      </trkpt>
      <trkpt lat="44.77244" lon="-0.33953">
        <ele>105</ele>
        <time>2012-12-16T13:21:57Z</time>
      </trkpt>
      <trkpt lat="44.77241" lon="-0.33955">
        <ele>105</ele>
        <time>2012-12-16T13:21:58Z</time>
      </trkpt>
      <trkpt lat="44.77237" lon="-0.33956">
        <ele>105</ele>
        <time>2012-12-16T13:22:00Z</time>
      </trkpt>
      <trkpt lat="44.77236" lon="-0.33955">
        <ele>105</ele>
        <time>2012-12-16T13:22:05Z</time>
      </trkpt>
      <trkpt lat="44.77236" lon="-0.33955">
        <ele>105</ele>
        <time>2012-12-16T13:22:18Z</time>
      </trkpt>
      <trkpt lat="44.77236" lon="-0.33955">
        <ele>105</ele>
        <time>2012-12-16T13:22:33Z</time>
      </trkpt>
      <trkpt lat="44.77236" lon="-0.33954">
        <ele>105</ele>
        <time>2012-12-16T13:22:43Z</time>
      </trkpt>
      <trkpt lat="44.77236" lon="-0.33955">
        <ele>105</ele>
        <time>2012-12-16T13:22:54Z</time>
      </trkpt>
      <trkpt lat="44.77235" lon="-0.33955">
        <ele>105</ele>
        <time>2012-12-16T13:23:12Z</time>
      </trkpt>
      <trkpt lat="44.77231" lon="-0.3395">
        <ele>104</ele>
        <time>2012-12-16T13:23:16Z</time>
      </trkpt>
      <trkpt lat="44.77228" lon="-0.33944">
        <ele>104</ele>
        <time>2012-12-16T13:23:18Z</time>
      </trkpt>
      <trkpt lat="44.77228" lon="-0.3394">
        <ele>104</ele>
        <time>2012-12-16T13:23:19Z</time>
      </trkpt>
      <trkpt lat="44.7723" lon="-0.33917">
        <ele>105</ele>
        <time>2012-12-16T13:23:25Z</time>
      </trkpt>
      <trkpt lat="44.77233" lon="-0.33889">
        <ele>105</ele>
        <time>2012-12-16T13:23:32Z</time>
      </trkpt>
      <trkpt lat="44.77235" lon="-0.3385">
        <ele>104</ele>
        <time>2012-12-16T13:23:40Z</time>
      </trkpt>
      <trkpt lat="44.77234" lon="-0.33803">
        <ele>104</ele>
        <time>2012-12-16T13:23:50Z</time>
      </trkpt>
      <trkpt lat="44.77227" lon="-0.33758">
        <ele>104</ele>
        <time>2012-12-16T13:23:58Z</time>
      </trkpt>
      <trkpt lat="44.77221" lon="-0.33718">
        <ele>104</ele>
        <time>2012-12-16T13:24:05Z</time>
      </trkpt>
      <trkpt lat="44.77216" lon="-0.33701">
        <ele>104</ele>
        <time>2012-12-16T13:24:08Z</time>
      </trkpt>
      <trkpt lat="44.77204" lon="-0.33654">
        <ele>104</ele>
        <time>2012-12-16T13:24:16Z</time>
      </trkpt>
      <trkpt lat="44.77203" lon="-0.33648">
        <ele>104</ele>
        <time>2012-12-16T13:24:17Z</time>
      </trkpt>
      <trkpt lat="44.77202" lon="-0.33642">
        <ele>104</ele>
        <time>2012-12-16T13:24:18Z</time>
      </trkpt>
      <trkpt lat="44.77201" lon="-0.33624">
        <ele>104</ele>
        <time>2012-12-16T13:24:21Z</time>
      </trkpt>
      <trkpt lat="44.77202" lon="-0.33618">
        <ele>104</ele>
        <time>2012-12-16T13:24:22Z</time>
      </trkpt>
      <trkpt lat="44.77204" lon="-0.33614">
        <ele>104</ele>
        <time>2012-12-16T13:24:23Z</time>
      </trkpt>
      <trkpt lat="44.77208" lon="-0.33611">
        <ele>104</ele>
        <time>2012-12-16T13:24:24Z</time>
      </trkpt>
      <trkpt lat="44.77211" lon="-0.33609">
        <ele>104</ele>
        <time>2012-12-16T13:24:25Z</time>
      </trkpt>
      <trkpt lat="44.77216" lon="-0.33608">
        <ele>104</ele>
        <time>2012-12-16T13:24:26Z</time>
      </trkpt>
      <trkpt lat="44.77219" lon="-0.33609">
        <ele>104</ele>
        <time>2012-12-16T13:24:27Z</time>
      </trkpt>
      <trkpt lat="44.77223" lon="-0.3361">
        <ele>104</ele>
        <time>2012-12-16T13:24:28Z</time>
      </trkpt>
      <trkpt lat="44.77226" lon="-0.3361">
        <ele>104</ele>
        <time>2012-12-16T13:24:29Z</time>
      </trkpt>
      <trkpt lat="44.7723" lon="-0.33609">
        <ele>104</ele>
        <time>2012-12-16T13:24:30Z</time>
      </trkpt>
      <trkpt lat="44.77233" lon="-0.33607">
        <ele>104</ele>
        <time>2012-12-16T13:24:31Z</time>
      </trkpt>
      <trkpt lat="44.77234" lon="-0.33604">
        <ele>104</ele>
        <time>2012-12-16T13:24:32Z</time>
      </trkpt>
      <trkpt lat="44.77235" lon="-0.336">
        <ele>104</ele>
        <time>2012-12-16T13:24:33Z</time>
      </trkpt>
      <trkpt lat="44.77235" lon="-0.33597">
        <ele>104</ele>
        <time>2012-12-16T13:24:34Z</time>
      </trkpt>
      <trkpt lat="44.77235" lon="-0.33594">
        <ele>104</ele>
        <time>2012-12-16T13:24:35Z</time>
      </trkpt>
      <trkpt lat="44.77235" lon="-0.33592">
        <ele>104</ele>
        <time>2012-12-16T13:24:36Z</time>
      </trkpt>
      <trkpt lat="44.77235" lon="-0.3359">
        <ele>104</ele>
        <time>2012-12-16T13:24:37Z</time>
      </trkpt>
      <trkpt lat="44.77236" lon="-0.33588">
        <ele>104</ele>
        <time>2012-12-16T13:24:38Z</time>
      </trkpt>
      <trkpt lat="44.77237" lon="-0.33585">
        <ele>104</ele>
        <time>2012-12-16T13:24:39Z</time>
      </trkpt>
      <trkpt lat="44.77238" lon="-0.33583">
        <ele>104</ele>
        <time>2012-12-16T13:24:40Z</time>
      </trkpt>
      <trkpt lat="44.7724" lon="-0.33582">
        <ele>104</ele>
        <time>2012-12-16T13:24:41Z</time>
      </trkpt>
      <trkpt lat="44.77243" lon="-0.33581">
        <ele>103</ele>
        <time>2012-12-16T13:24:42Z</time>
      </trkpt>
      <trkpt lat="44.77246" lon="-0.3358">
        <ele>103</ele>
        <time>2012-12-16T13:24:43Z</time>
      </trkpt>
      <trkpt lat="44.77248" lon="-0.33579">
        <ele>103</ele>
        <time>2012-12-16T13:24:44Z</time>
      </trkpt>
      <trkpt lat="44.77262" lon="-0.33563">
        <ele>103</ele>
        <time>2012-12-16T13:24:50Z</time>
      </trkpt>
      <trkpt lat="44.77263" lon="-0.33558">
        <ele>103</ele>
        <time>2012-12-16T13:24:51Z</time>
      </trkpt>
      <trkpt lat="44.77263" lon="-0.33554">
        <ele>103</ele>
        <time>2012-12-16T13:24:52Z</time>
      </trkpt>
      <trkpt lat="44.77262" lon="-0.3355">
        <ele>103</ele>
        <time>2012-12-16T13:24:53Z</time>
      </trkpt>
      <trkpt lat="44.77255" lon="-0.33524">
        <ele>103</ele>
        <time>2012-12-16T13:24:59Z</time>
      </trkpt>
      <trkpt lat="44.77244" lon="-0.33477">
        <ele>103</ele>
        <time>2012-12-16T13:25:08Z</time>
      </trkpt>
      <trkpt lat="44.7723" lon="-0.3343">
        <ele>103</ele>
        <time>2012-12-16T13:25:29Z</time>
      </trkpt>
      <trkpt lat="44.77228" lon="-0.33419">
        <ele>103</ele>
        <time>2012-12-16T13:25:31Z</time>
      </trkpt>
      <trkpt lat="44.77226" lon="-0.33413">
        <ele>103</ele>
        <time>2012-12-16T13:25:32Z</time>
      </trkpt>
      <trkpt lat="44.77225" lon="-0.33407">
        <ele>103</ele>
        <time>2012-12-16T13:25:33Z</time>
      </trkpt>
      <trkpt lat="44.77225" lon="-0.33401">
        <ele>103</ele>
        <time>2012-12-16T13:25:34Z</time>
      </trkpt>
      <trkpt lat="44.77225" lon="-0.33395">
        <ele>103</ele>
        <time>2012-12-16T13:25:35Z</time>
      </trkpt>
      <trkpt lat="44.77225" lon="-0.33383">
        <ele>103</ele>
        <time>2012-12-16T13:25:37Z</time>
      </trkpt>
      <trkpt lat="44.77224" lon="-0.33377">
        <ele>103</ele>
        <time>2012-12-16T13:25:38Z</time>
      </trkpt>
      <trkpt lat="44.77222" lon="-0.33371">
        <ele>103</ele>
        <time>2012-12-16T13:25:39Z</time>
      </trkpt>
      <trkpt lat="44.77217" lon="-0.33361">
        <ele>103</ele>
        <time>2012-12-16T13:25:41Z</time>
      </trkpt>
      <trkpt lat="44.77214" lon="-0.33355">
        <ele>103</ele>
        <time>2012-12-16T13:25:42Z</time>
      </trkpt>
      <trkpt lat="44.77212" lon="-0.3335">
        <ele>103</ele>
        <time>2012-12-16T13:25:43Z</time>
      </trkpt>
      <trkpt lat="44.77209" lon="-0.33338">
        <ele>103</ele>
        <time>2012-12-16T13:25:45Z</time>
      </trkpt>
      <trkpt lat="44.77206" lon="-0.33333">
        <ele>103</ele>
        <time>2012-12-16T13:25:46Z</time>
      </trkpt>
      <trkpt lat="44.77204" lon="-0.33327">
        <ele>103</ele>
        <time>2012-12-16T13:25:47Z</time>
      </trkpt>
      <trkpt lat="44.77202" lon="-0.33322">
        <ele>103</ele>
        <time>2012-12-16T13:25:48Z</time>
      </trkpt>
      <trkpt lat="44.77201" lon="-0.33316">
        <ele>103</ele>
        <time>2012-12-16T13:25:49Z</time>
      </trkpt>
      <trkpt lat="44.77201" lon="-0.33309">
        <ele>103</ele>
        <time>2012-12-16T13:25:50Z</time>
      </trkpt>
      <trkpt lat="44.77201" lon="-0.33302">
        <ele>103</ele>
        <time>2012-12-16T13:25:51Z</time>
      </trkpt>
      <trkpt lat="44.77201" lon="-0.33269">
        <ele>103</ele>
        <time>2012-12-16T13:25:56Z</time>
      </trkpt>
      <trkpt lat="44.77201" lon="-0.33263">
        <ele>102</ele>
        <time>2012-12-16T13:25:57Z</time>
      </trkpt>
      <trkpt lat="44.77201" lon="-0.33259">
        <ele>102</ele>
        <time>2012-12-16T13:25:58Z</time>
      </trkpt>
      <trkpt lat="44.77204" lon="-0.33236">
        <ele>102</ele>
        <time>2012-12-16T13:26:04Z</time>
      </trkpt>
      <trkpt lat="44.77206" lon="-0.33235">
        <ele>102</ele>
        <time>2012-12-16T13:26:05Z</time>
      </trkpt>
      <trkpt lat="44.77207" lon="-0.33236">
        <ele>103</ele>
        <time>2012-12-16T13:26:06Z</time>
      </trkpt>
      <trkpt lat="44.77208" lon="-0.33236">
        <ele>103</ele>
        <time>2012-12-16T13:26:07Z</time>
      </trkpt>
      <trkpt lat="44.77209" lon="-0.33236">
        <ele>103</ele>
        <time>2012-12-16T13:26:08Z</time>
      </trkpt>
      <trkpt lat="44.7721" lon="-0.33237">
        <ele>103</ele>
        <time>2012-12-16T13:26:09Z</time>
      </trkpt>
      <trkpt lat="44.77208" lon="-0.33238">
        <ele>103</ele>
        <time>2012-12-16T13:26:13Z</time>
      </trkpt>
      <trkpt lat="44.77114" lon="-0.33491">
        <ele>105</ele>
        <time>2012-12-16T13:26:20Z</time>
      </trkpt>
      <trkpt lat="44.77167" lon="-0.33362">
        <ele>103</ele>
        <time>2012-12-16T13:26:28Z</time>
      </trkpt>
      <trkpt lat="44.77179" lon="-0.33347">
        <ele>103</ele>
        <time>2012-12-16T13:26:35Z</time>
      </trkpt>
      <trkpt lat="44.77188" lon="-0.33339">
        <ele>103</ele>
        <time>2012-12-16T13:26:41Z</time>
      </trkpt>
      <trkpt lat="44.7721" lon="-0.33314">
        <ele>103</ele>
        <time>2012-12-16T13:26:49Z</time>
      </trkpt>
      <trkpt lat="44.77246" lon="-0.33289">
        <ele>103</ele>
        <time>2012-12-16T13:26:57Z</time>
      </trkpt>
      <trkpt lat="44.77281" lon="-0.33273">
        <ele>103</ele>
        <time>2012-12-16T13:27:06Z</time>
      </trkpt>
      <trkpt lat="44.77286" lon="-0.33271">
        <ele>103</ele>
        <time>2012-12-16T13:27:08Z</time>
      </trkpt>
      <trkpt lat="44.77298" lon="-0.33266">
        <ele>103</ele>
        <time>2012-12-16T13:27:13Z</time>
      </trkpt>
      <trkpt lat="44.77311" lon="-0.33232">
        <ele>103</ele>
        <time>2012-12-16T13:27:20Z</time>
      </trkpt>
      <trkpt lat="44.77316" lon="-0.33215">
        <ele>103</ele>
        <time>2012-12-16T13:27:24Z</time>
      </trkpt>
      <trkpt lat="44.77326" lon="-0.33187">
        <ele>102</ele>
        <time>2012-12-16T13:27:31Z</time>
      </trkpt>
      <trkpt lat="44.77336" lon="-0.33151">
        <ele>101</ele>
        <time>2012-12-16T13:27:39Z</time>
      </trkpt>
      <trkpt lat="44.77341" lon="-0.33116">
        <ele>100</ele>
        <time>2012-12-16T13:27:46Z</time>
      </trkpt>
      <trkpt lat="44.77348" lon="-0.33076">
        <ele>99</ele>
        <time>2012-12-16T13:27:53Z</time>
      </trkpt>
      <trkpt lat="44.77353" lon="-0.33052">
        <ele>99</ele>
        <time>2012-12-16T13:27:57Z</time>
      </trkpt>
      <trkpt lat="44.77361" lon="-0.33035">
        <ele>98</ele>
        <time>2012-12-16T13:28:01Z</time>
      </trkpt>
      <trkpt lat="44.77364" lon="-0.33034">
        <ele>98</ele>
        <time>2012-12-16T13:28:02Z</time>
      </trkpt>
      <trkpt lat="44.77367" lon="-0.33034">
        <ele>98</ele>
        <time>2012-12-16T13:28:03Z</time>
      </trkpt>
      <trkpt lat="44.77384" lon="-0.33036">
        <ele>99</ele>
        <time>2012-12-16T13:28:09Z</time>
      </trkpt>
      <trkpt lat="44.77396" lon="-0.33034">
        <ele>99</ele>
        <time>2012-12-16T13:28:12Z</time>
      </trkpt>
      <trkpt lat="44.7742" lon="-0.33012">
        <ele>99</ele>
        <time>2012-12-16T13:28:19Z</time>
      </trkpt>
      <trkpt lat="44.77436" lon="-0.32995">
        <ele>99</ele>
        <time>2012-12-16T13:28:25Z</time>
      </trkpt>
      <trkpt lat="44.77454" lon="-0.32975">
        <ele>98</ele>
        <time>2012-12-16T13:28:32Z</time>
      </trkpt>
      <trkpt lat="44.77478" lon="-0.32948">
        <ele>98</ele>
        <time>2012-12-16T13:28:41Z</time>
      </trkpt>
      <trkpt lat="44.7749" lon="-0.32936">
        <ele>98</ele>
        <time>2012-12-16T13:28:47Z</time>
      </trkpt>
      <trkpt lat="44.77499" lon="-0.32925">
        <ele>98</ele>
        <time>2012-12-16T13:28:41Z</time>
      </trkpt>
      <trkpt lat="44.77499" lon="-0.32925">
        <ele>98</ele>
        <time>2012-12-16T13:28:50Z</time>
      </trkpt>
      <trkpt lat="44.77499" lon="-0.32927">
        <ele>98</ele>
        <time>2012-12-16T13:28:55Z</time>
      </trkpt>
      <trkpt lat="44.77498" lon="-0.32922">
        <ele>98</ele>
        <time>2012-12-16T13:29:04Z</time>
      </trkpt>
      <trkpt lat="44.77586" lon="-0.32743">
        <ele>96</ele>
        <time>2012-12-16T13:29:16Z</time>
      </trkpt>
      <trkpt lat="44.7753" lon="-0.32861">
        <ele>98</ele>
        <time>2012-12-16T13:29:23Z</time>
      </trkpt>
      <trkpt lat="44.77514" lon="-0.3285">
        <ele>98</ele>
        <time>2012-12-16T13:29:35Z</time>
      </trkpt>
      <trkpt lat="44.77507" lon="-0.32855">
        <ele>98</ele>
        <time>2012-12-16T13:29:43Z</time>
      </trkpt>
      <trkpt lat="44.77506" lon="-0.32856">
        <ele>98</ele>
        <time>2012-12-16T13:29:49Z</time>
      </trkpt>
      <trkpt lat="44.77514" lon="-0.32858">
        <ele>98</ele>
        <time>2012-12-16T13:29:53Z</time>
      </trkpt>
      <trkpt lat="44.7753" lon="-0.32848">
        <ele>98</ele>
        <time>2012-12-16T13:30:00Z</time>
      </trkpt>
      <trkpt lat="44.77539" lon="-0.32845">
        <ele>98</ele>
        <time>2012-12-16T13:30:06Z</time>
      </trkpt>
      <trkpt lat="44.77549" lon="-0.32843">
        <ele>98</ele>
        <time>2012-12-16T13:30:10Z</time>
      </trkpt>
      <trkpt lat="44.77575" lon="-0.32843">
        <ele>98</ele>
        <time>2012-12-16T13:30:20Z</time>
      </trkpt>
      <trkpt lat="44.77592" lon="-0.32841">
        <ele>97</ele>
        <time>2012-12-16T13:30:27Z</time>
      </trkpt>
      <trkpt lat="44.77604" lon="-0.32835">
        <ele>96</ele>
        <time>2012-12-16T13:30:32Z</time>
      </trkpt>
      <trkpt lat="44.77608" lon="-0.32829">
        <ele>96</ele>
        <time>2012-12-16T13:30:35Z</time>
      </trkpt>
      <trkpt lat="44.776" lon="-0.32803">
        <ele>97</ele>
        <time>2012-12-16T13:30:43Z</time>
      </trkpt>
      <trkpt lat="44.77592" lon="-0.32769">
        <ele>97</ele>
        <time>2012-12-16T13:30:50Z</time>
      </trkpt>
      <trkpt lat="44.77589" lon="-0.32749">
        <ele>96</ele>
        <time>2012-12-16T13:30:54Z</time>
      </trkpt>
      <trkpt lat="44.77586" lon="-0.32711">
        <ele>95</ele>
        <time>2012-12-16T13:30:59Z</time>
      </trkpt>
      <trkpt lat="44.77581" lon="-0.32681">
        <ele>94</ele>
        <time>2012-12-16T13:31:03Z</time>
      </trkpt>
      <trkpt lat="44.77582" lon="-0.32646">
        <ele>92</ele>
        <time>2012-12-16T13:31:08Z</time>
      </trkpt>
      <trkpt lat="44.77586" lon="-0.32632">
        <ele>91</ele>
        <time>2012-12-16T13:31:10Z</time>
      </trkpt>
      <trkpt lat="44.77585" lon="-0.32604">
        <ele>90</ele>
        <time>2012-12-16T13:31:14Z</time>
      </trkpt>
      <trkpt lat="44.77581" lon="-0.32555">
        <ele>88</ele>
        <time>2012-12-16T13:31:20Z</time>
      </trkpt>
      <trkpt lat="44.77578" lon="-0.3249">
        <ele>85</ele>
        <time>2012-12-16T13:31:27Z</time>
      </trkpt>
      <trkpt lat="44.77577" lon="-0.32477">
        <ele>85</ele>
        <time>2012-12-16T13:31:29Z</time>
      </trkpt>
      <trkpt lat="44.77563" lon="-0.32439">
        <ele>84</ele>
        <time>2012-12-16T13:31:35Z</time>
      </trkpt>
      <trkpt lat="44.77561" lon="-0.32434">
        <ele>84</ele>
        <time>2012-12-16T13:31:36Z</time>
      </trkpt>
      <trkpt lat="44.77552" lon="-0.32406">
        <ele>82</ele>
        <time>2012-12-16T13:31:43Z</time>
      </trkpt>
      <trkpt lat="44.77547" lon="-0.3239">
        <ele>81</ele>
        <time>2012-12-16T13:31:48Z</time>
      </trkpt>
      <trkpt lat="44.77553" lon="-0.32386">
        <ele>81</ele>
        <time>2012-12-16T13:31:53Z</time>
      </trkpt>
      <trkpt lat="44.7758" lon="-0.32387">
        <ele>81</ele>
        <time>2012-12-16T13:32:04Z</time>
      </trkpt>
      <trkpt lat="44.77607" lon="-0.32389">
        <ele>80</ele>
        <time>2012-12-16T13:32:12Z</time>
      </trkpt>
      <trkpt lat="44.77631" lon="-0.32391">
        <ele>79</ele>
        <time>2012-12-16T13:32:19Z</time>
      </trkpt>
      <trkpt lat="44.77663" lon="-0.32393">
        <ele>78</ele>
        <time>2012-12-16T13:32:27Z</time>
      </trkpt>
      <trkpt lat="44.77702" lon="-0.32395">
        <ele>76</ele>
        <time>2012-12-16T13:32:37Z</time>
      </trkpt>
      <trkpt lat="44.77715" lon="-0.32387">
        <ele>75</ele>
        <time>2012-12-16T13:32:43Z</time>
      </trkpt>
      <trkpt lat="44.77722" lon="-0.32391">
        <ele>75</ele>
        <time>2012-12-16T13:32:48Z</time>
      </trkpt>
      <trkpt lat="44.77734" lon="-0.32392">
        <ele>74</ele>
        <time>2012-12-16T13:32:54Z</time>
      </trkpt>
      <trkpt lat="44.7774" lon="-0.32392">
        <ele>74</ele>
        <time>2012-12-16T13:33:01Z</time>
      </trkpt>
      <trkpt lat="44.7774" lon="-0.32392">
        <ele>74</ele>
        <time>2012-12-16T13:33:12Z</time>
      </trkpt>
      <trkpt lat="44.77741" lon="-0.32392">
        <ele>74</ele>
        <time>2012-12-16T13:33:27Z</time>
      </trkpt>
      <trkpt lat="44.7775" lon="-0.32395">
        <ele>74</ele>
        <time>2012-12-16T13:33:33Z</time>
      </trkpt>
      <trkpt lat="44.77761" lon="-0.324">
        <ele>74</ele>
        <time>2012-12-16T13:33:38Z</time>
      </trkpt>
      <trkpt lat="44.77777" lon="-0.32402">
        <ele>73</ele>
        <time>2012-12-16T13:33:45Z</time>
      </trkpt>
      <trkpt lat="44.77797" lon="-0.32403">
        <ele>73</ele>
        <time>2012-12-16T13:33:52Z</time>
      </trkpt>
      <trkpt lat="44.77818" lon="-0.324">
        <ele>72</ele>
        <time>2012-12-16T13:33:58Z</time>
      </trkpt>
      <trkpt lat="44.7782" lon="-0.32397">
        <ele>72</ele>
        <time>2012-12-16T13:33:59Z</time>
      </trkpt>
      <trkpt lat="44.77826" lon="-0.32375">
        <ele>71</ele>
        <time>2012-12-16T13:34:03Z</time>
      </trkpt>
      <trkpt lat="44.77835" lon="-0.32312">
        <ele>70</ele>
        <time>2012-12-16T13:34:10Z</time>
      </trkpt>
      <trkpt lat="44.77836" lon="-0.32303">
        <ele>69</ele>
        <time>2012-12-16T13:34:11Z</time>
      </trkpt>
      <trkpt lat="44.77844" lon="-0.32273">
        <ele>68</ele>
        <time>2012-12-16T13:34:16Z</time>
      </trkpt>
      <trkpt lat="44.77848" lon="-0.32272">
        <ele>68</ele>
        <time>2012-12-16T13:34:17Z</time>
      </trkpt>
      <trkpt lat="44.77886" lon="-0.32276">
        <ele>66</ele>
        <time>2012-12-16T13:34:25Z</time>
      </trkpt>
      <trkpt lat="44.7791" lon="-0.32285">
        <ele>66</ele>
        <time>2012-12-16T13:34:30Z</time>
      </trkpt>
      <trkpt lat="44.77935" lon="-0.32291">
        <ele>66</ele>
        <time>2012-12-16T13:34:36Z</time>
      </trkpt>
      <trkpt lat="44.77949" lon="-0.32271">
        <ele>65</ele>
        <time>2012-12-16T13:34:41Z</time>
      </trkpt>
      <trkpt lat="44.77952" lon="-0.32269">
        <ele>65</ele>
        <time>2012-12-16T13:34:42Z</time>
      </trkpt>
      <trkpt lat="44.77979" lon="-0.32271">
        <ele>64</ele>
        <time>2012-12-16T13:34:48Z</time>
      </trkpt>
      <trkpt lat="44.77988" lon="-0.32273">
        <ele>64</ele>
        <time>2012-12-16T13:34:50Z</time>
      </trkpt>
      <trkpt lat="44.78002" lon="-0.32261">
        <ele>64</ele>
        <time>2012-12-16T13:34:54Z</time>
      </trkpt>
      <trkpt lat="44.78011" lon="-0.32224">
        <ele>62</ele>
        <time>2012-12-16T13:35:00Z</time>
      </trkpt>
      <trkpt lat="44.78013" lon="-0.32217">
        <ele>62</ele>
        <time>2012-12-16T13:35:01Z</time>
      </trkpt>
      <trkpt lat="44.78016" lon="-0.32183">
        <ele>61</ele>
        <time>2012-12-16T13:35:07Z</time>
      </trkpt>
      <trkpt lat="44.78021" lon="-0.3216">
        <ele>60</ele>
        <time>2012-12-16T13:35:14Z</time>
      </trkpt>
      <trkpt lat="44.78022" lon="-0.32158">
        <ele>60</ele>
        <time>2012-12-16T13:35:23Z</time>
      </trkpt>
      <trkpt lat="44.78021" lon="-0.32157">
        <ele>60</ele>
        <time>2012-12-16T13:35:31Z</time>
      </trkpt>
      <trkpt lat="44.78022" lon="-0.32157">
        <ele>60</ele>
        <time>2012-12-16T13:35:44Z</time>
      </trkpt>
      <trkpt lat="44.78023" lon="-0.32158">
        <ele>60</ele>
        <time>2012-12-16T13:35:58Z</time>
      </trkpt>
      <trkpt lat="44.78022" lon="-0.32157">
        <ele>60</ele>
        <time>2012-12-16T13:36:14Z</time>
      </trkpt>
      <trkpt lat="44.78022" lon="-0.32155">
        <ele>60</ele>
        <time>2012-12-16T13:36:29Z</time>
      </trkpt>
      <trkpt lat="44.78023" lon="-0.32153">
        <ele>60</ele>
        <time>2012-12-16T13:36:36Z</time>
      </trkpt>
      <trkpt lat="44.78024" lon="-0.3215">
        <ele>60</ele>
        <time>2012-12-16T13:36:42Z</time>
      </trkpt>
      <trkpt lat="44.78029" lon="-0.32144">
        <ele>60</ele>
        <time>2012-12-16T13:36:48Z</time>
      </trkpt>
      <trkpt lat="44.7804" lon="-0.32144">
        <ele>60</ele>
        <time>2012-12-16T13:36:55Z</time>
      </trkpt>
      <trkpt lat="44.78045" lon="-0.32143">
        <ele>60</ele>
        <time>2012-12-16T13:36:57Z</time>
      </trkpt>
      <trkpt lat="44.78065" lon="-0.32143">
        <ele>60</ele>
        <time>2012-12-16T13:37:03Z</time>
      </trkpt>
      <trkpt lat="44.78076" lon="-0.32143">
        <ele>60</ele>
        <time>2012-12-16T13:37:06Z</time>
      </trkpt>
      <trkpt lat="44.78107" lon="-0.32136">
        <ele>60</ele>
        <time>2012-12-16T13:37:14Z</time>
      </trkpt>
      <trkpt lat="44.7813" lon="-0.32135">
        <ele>60</ele>
        <time>2012-12-16T13:37:20Z</time>
      </trkpt>
      <trkpt lat="44.78146" lon="-0.3214">
        <ele>60</ele>
        <time>2012-12-16T13:37:24Z</time>
      </trkpt>
      <trkpt lat="44.78159" lon="-0.32146">
        <ele>60</ele>
        <time>2012-12-16T13:37:27Z</time>
      </trkpt>
      <trkpt lat="44.78187" lon="-0.3216">
        <ele>60</ele>
        <time>2012-12-16T13:37:34Z</time>
      </trkpt>
      <trkpt lat="44.78191" lon="-0.32163">
        <ele>60</ele>
        <time>2012-12-16T13:37:35Z</time>
      </trkpt>
      <trkpt lat="44.7821" lon="-0.3217">
        <ele>60</ele>
        <time>2012-12-16T13:37:40Z</time>
      </trkpt>
      <trkpt lat="44.78214" lon="-0.32171">
        <ele>60</ele>
        <time>2012-12-16T13:37:41Z</time>
      </trkpt>
      <trkpt lat="44.78218" lon="-0.32171">
        <ele>60</ele>
        <time>2012-12-16T13:37:42Z</time>
      </trkpt>
      <trkpt lat="44.78234" lon="-0.32179">
        <ele>60</ele>
        <time>2012-12-16T13:37:46Z</time>
      </trkpt>
      <trkpt lat="44.78237" lon="-0.32183">
        <ele>60</ele>
        <time>2012-12-16T13:37:47Z</time>
      </trkpt>
      <trkpt lat="44.78256" lon="-0.32204">
        <ele>60</ele>
        <time>2012-12-16T13:37:53Z</time>
      </trkpt>
      <trkpt lat="44.78259" lon="-0.32206">
        <ele>60</ele>
        <time>2012-12-16T13:37:54Z</time>
      </trkpt>
      <trkpt lat="44.78263" lon="-0.32205">
        <ele>60</ele>
        <time>2012-12-16T13:37:55Z</time>
      </trkpt>
      <trkpt lat="44.78275" lon="-0.32202">
        <ele>60</ele>
        <time>2012-12-16T13:37:58Z</time>
      </trkpt>
      <trkpt lat="44.78279" lon="-0.322">
        <ele>60</ele>
        <time>2012-12-16T13:37:59Z</time>
      </trkpt>
      <trkpt lat="44.78283" lon="-0.32198">
        <ele>60</ele>
        <time>2012-12-16T13:38:00Z</time>
      </trkpt>
      <trkpt lat="44.78287" lon="-0.32197">
        <ele>60</ele>
        <time>2012-12-16T13:38:01Z</time>
      </trkpt>
      <trkpt lat="44.78292" lon="-0.32197">
        <ele>60</ele>
        <time>2012-12-16T13:38:02Z</time>
      </trkpt>
      <trkpt lat="44.78297" lon="-0.32197">
        <ele>60</ele>
        <time>2012-12-16T13:38:03Z</time>
      </trkpt>
      <trkpt lat="44.78301" lon="-0.32197">
        <ele>60</ele>
        <time>2012-12-16T13:38:04Z</time>
      </trkpt>
      <trkpt lat="44.78306" lon="-0.32198">
        <ele>60</ele>
        <time>2012-12-16T13:38:05Z</time>
      </trkpt>
      <trkpt lat="44.78311" lon="-0.32199">
        <ele>60</ele>
        <time>2012-12-16T13:38:06Z</time>
      </trkpt>
      <trkpt lat="44.78316" lon="-0.32199">
        <ele>60</ele>
        <time>2012-12-16T13:38:07Z</time>
      </trkpt>
      <trkpt lat="44.78321" lon="-0.322">
        <ele>60</ele>
        <time>2012-12-16T13:38:08Z</time>
      </trkpt>
      <trkpt lat="44.78325" lon="-0.32201">
        <ele>60</ele>
        <time>2012-12-16T13:38:09Z</time>
      </trkpt>
      <trkpt lat="44.7833" lon="-0.32201">
        <ele>60</ele>
        <time>2012-12-16T13:38:10Z</time>
      </trkpt>
      <trkpt lat="44.78334" lon="-0.32202">
        <ele>60</ele>
        <time>2012-12-16T13:38:11Z</time>
      </trkpt>
      <trkpt lat="44.78337" lon="-0.32202">
        <ele>60</ele>
        <time>2012-12-16T13:38:12Z</time>
      </trkpt>
      <trkpt lat="44.78341" lon="-0.32203">
        <ele>60</ele>
        <time>2012-12-16T13:38:13Z</time>
      </trkpt>
      <trkpt lat="44.78345" lon="-0.32203">
        <ele>60</ele>
        <time>2012-12-16T13:38:14Z</time>
      </trkpt>
      <trkpt lat="44.78349" lon="-0.32204">
        <ele>60</ele>
        <time>2012-12-16T13:38:15Z</time>
      </trkpt>
      <trkpt lat="44.78354" lon="-0.32204">
        <ele>60</ele>
        <time>2012-12-16T13:38:16Z</time>
      </trkpt>
      <trkpt lat="44.78363" lon="-0.32205">
        <ele>60</ele>
        <time>2012-12-16T13:38:18Z</time>
      </trkpt>
      <trkpt lat="44.78383" lon="-0.32208">
        <ele>61</ele>
        <time>2012-12-16T13:38:22Z</time>
      </trkpt>
      <trkpt lat="44.78388" lon="-0.32209">
        <ele>61</ele>
        <time>2012-12-16T13:38:23Z</time>
      </trkpt>
      <trkpt lat="44.78401" lon="-0.32212">
        <ele>61</ele>
        <time>2012-12-16T13:38:26Z</time>
      </trkpt>
      <trkpt lat="44.78416" lon="-0.32215">
        <ele>61</ele>
        <time>2012-12-16T13:38:29Z</time>
      </trkpt>
      <trkpt lat="44.78442" lon="-0.32227">
        <ele>61</ele>
        <time>2012-12-16T13:38:34Z</time>
      </trkpt>
      <trkpt lat="44.78456" lon="-0.32237">
        <ele>61</ele>
        <time>2012-12-16T13:38:37Z</time>
      </trkpt>
      <trkpt lat="44.78474" lon="-0.32252">
        <ele>61</ele>
        <time>2012-12-16T13:38:42Z</time>
      </trkpt>
      <trkpt lat="44.78484" lon="-0.32253">
        <ele>60</ele>
        <time>2012-12-16T13:38:46Z</time>
      </trkpt>
      <trkpt lat="44.78485" lon="-0.32251">
        <ele>60</ele>
        <time>2012-12-16T13:38:47Z</time>
      </trkpt>
      <trkpt lat="44.78487" lon="-0.32248">
        <ele>60</ele>
        <time>2012-12-16T13:38:48Z</time>
      </trkpt>
      <trkpt lat="44.78488" lon="-0.32244">
        <ele>60</ele>
        <time>2012-12-16T13:38:49Z</time>
      </trkpt>
      <trkpt lat="44.7849" lon="-0.32239">
        <ele>60</ele>
        <time>2012-12-16T13:38:50Z</time>
      </trkpt>
      <trkpt lat="44.78492" lon="-0.32233">
        <ele>60</ele>
        <time>2012-12-16T13:38:51Z</time>
      </trkpt>
      <trkpt lat="44.78508" lon="-0.32188">
        <ele>58</ele>
        <time>2012-12-16T13:38:58Z</time>
      </trkpt>
      <trkpt lat="44.78523" lon="-0.32152">
        <ele>58</ele>
        <time>2012-12-16T13:39:03Z</time>
      </trkpt>
      <trkpt lat="44.78548" lon="-0.32082">
        <ele>58</ele>
        <time>2012-12-16T13:39:12Z</time>
      </trkpt>
      <trkpt lat="44.78574" lon="-0.32015">
        <ele>59</ele>
        <time>2012-12-16T13:39:21Z</time>
      </trkpt>
      <trkpt lat="44.78598" lon="-0.31952">
        <ele>61</ele>
        <time>2012-12-16T13:39:30Z</time>
      </trkpt>
      <trkpt lat="44.78617" lon="-0.31902">
        <ele>63</ele>
        <time>2012-12-16T13:39:38Z</time>
      </trkpt>
      <trkpt lat="44.78635" lon="-0.31851">
        <ele>65</ele>
        <time>2012-12-16T13:39:46Z</time>
      </trkpt>
      <trkpt lat="44.78649" lon="-0.31816">
        <ele>66</ele>
        <time>2012-12-16T13:39:53Z</time>
      </trkpt>
      <trkpt lat="44.78651" lon="-0.3181">
        <ele>66</ele>
        <time>2012-12-16T13:39:55Z</time>
      </trkpt>
      <trkpt lat="44.7865" lon="-0.31808">
        <ele>66</ele>
        <time>2012-12-16T13:39:56Z</time>
      </trkpt>
      <trkpt lat="44.78645" lon="-0.31801">
        <ele>66</ele>
        <time>2012-12-16T13:40:00Z</time>
      </trkpt>
      <trkpt lat="44.78644" lon="-0.31801">
        <ele>66</ele>
        <time>2012-12-16T13:40:01Z</time>
      </trkpt>
      <trkpt lat="44.78642" lon="-0.31802">
        <ele>66</ele>
        <time>2012-12-16T13:40:02Z</time>
      </trkpt>
      <trkpt lat="44.7864" lon="-0.31803">
        <ele>66</ele>
        <time>2012-12-16T13:40:03Z</time>
      </trkpt>
      <trkpt lat="44.78639" lon="-0.31803">
        <ele>66</ele>
        <time>2012-12-16T13:40:04Z</time>
      </trkpt>
      <trkpt lat="44.78637" lon="-0.31803">
        <ele>66</ele>
        <time>2012-12-16T13:40:05Z</time>
      </trkpt>
      <trkpt lat="44.78635" lon="-0.31803">
        <ele>66</ele>
        <time>2012-12-16T13:40:06Z</time>
      </trkpt>
      <trkpt lat="44.78616" lon="-0.31802">
        <ele>65</ele>
        <time>2012-12-16T13:40:15Z</time>
      </trkpt>
      <trkpt lat="44.78593" lon="-0.31797">
        <ele>64</ele>
        <time>2012-12-16T13:40:23Z</time>
      </trkpt>
      <trkpt lat="44.78589" lon="-0.31797">
        <ele>64</ele>
        <time>2012-12-16T13:40:24Z</time>
      </trkpt>
      <trkpt lat="44.78566" lon="-0.31789">
        <ele>63</ele>
        <time>2012-12-16T13:40:30Z</time>
      </trkpt>
      <trkpt lat="44.78537" lon="-0.31775">
        <ele>62</ele>
        <time>2012-12-16T13:40:38Z</time>
      </trkpt>
      <trkpt lat="44.78533" lon="-0.31773">
        <ele>61</ele>
        <time>2012-12-16T13:40:39Z</time>
      </trkpt>
      <trkpt lat="44.78503" lon="-0.31758">
        <ele>61</ele>
        <time>2012-12-16T13:40:46Z</time>
      </trkpt>
      <trkpt lat="44.78481" lon="-0.31753">
        <ele>60</ele>
        <time>2012-12-16T13:40:51Z</time>
      </trkpt>
      <trkpt lat="44.78456" lon="-0.31747">
        <ele>60</ele>
        <time>2012-12-16T13:40:58Z</time>
      </trkpt>
      <trkpt lat="44.78433" lon="-0.31744">
        <ele>60</ele>
        <time>2012-12-16T13:41:05Z</time>
      </trkpt>
      <trkpt lat="44.78415" lon="-0.3175">
        <ele>61</ele>
        <time>2012-12-16T13:41:10Z</time>
      </trkpt>
      <trkpt lat="44.78399" lon="-0.31757">
        <ele>62</ele>
        <time>2012-12-16T13:41:16Z</time>
      </trkpt>
      <trkpt lat="44.78384" lon="-0.3176">
        <ele>63</ele>
        <time>2012-12-16T13:41:22Z</time>
      </trkpt>
      <trkpt lat="44.78364" lon="-0.31763">
        <ele>64</ele>
        <time>2012-12-16T13:41:28Z</time>
      </trkpt>
      <trkpt lat="44.78339" lon="-0.31763">
        <ele>65</ele>
        <time>2012-12-16T13:41:35Z</time>
      </trkpt>
      <trkpt lat="44.78317" lon="-0.31756">
        <ele>66</ele>
        <time>2012-12-16T13:41:41Z</time>
      </trkpt>
      <trkpt lat="44.78303" lon="-0.31758">
        <ele>66</ele>
        <time>2012-12-16T13:41:45Z</time>
      </trkpt>
      <trkpt lat="44.78281" lon="-0.31752">
        <ele>67</ele>
        <time>2012-12-16T13:41:52Z</time>
      </trkpt>
      <trkpt lat="44.78257" lon="-0.31749">
        <ele>67</ele>
        <time>2012-12-16T13:41:59Z</time>
      </trkpt>
      <trkpt lat="44.78236" lon="-0.31744">
        <ele>67</ele>
        <time>2012-12-16T13:42:06Z</time>
      </trkpt>
      <trkpt lat="44.78227" lon="-0.31747">
        <ele>67</ele>
        <time>2012-12-16T13:42:11Z</time>
      </trkpt>
      <trkpt lat="44.78226" lon="-0.31746">
        <ele>67</ele>
        <time>2012-12-16T13:42:12Z</time>
      </trkpt>
      <trkpt lat="44.78219" lon="-0.31744">
        <ele>67</ele>
        <time>2012-12-16T13:42:17Z</time>
      </trkpt>
      <trkpt lat="44.78216" lon="-0.31746">
        <ele>67</ele>
        <time>2012-12-16T13:42:24Z</time>
      </trkpt>
      <trkpt lat="44.78216" lon="-0.31745">
        <ele>67</ele>
        <time>2012-12-16T13:42:41Z</time>
      </trkpt>
      <trkpt lat="44.78215" lon="-0.31745">
        <ele>67</ele>
        <time>2012-12-16T13:42:57Z</time>
      </trkpt>
      <trkpt lat="44.78215" lon="-0.31745">
        <ele>67</ele>
        <time>2012-12-16T13:43:08Z</time>
      </trkpt>
      <trkpt lat="44.78216" lon="-0.31745">
        <ele>67</ele>
        <time>2012-12-16T13:43:25Z</time>
      </trkpt>
      <trkpt lat="44.78217" lon="-0.31745">
        <ele>67</ele>
        <time>2012-12-16T13:43:45Z</time>
      </trkpt>
      <trkpt lat="44.78216" lon="-0.31745">
        <ele>67</ele>
        <time>2012-12-16T13:43:53Z</time>
      </trkpt>
      <trkpt lat="44.78215" lon="-0.31744">
        <ele>67</ele>
        <time>2012-12-16T13:43:54Z</time>
      </trkpt>
      <trkpt lat="44.78211" lon="-0.31741">
        <ele>67</ele>
        <time>2012-12-16T13:43:57Z</time>
      </trkpt>
      <trkpt lat="44.78191" lon="-0.31738">
        <ele>67</ele>
        <time>2012-12-16T13:44:04Z</time>
      </trkpt>
      <trkpt lat="44.78162" lon="-0.31738">
        <ele>67</ele>
        <time>2012-12-16T13:44:12Z</time>
      </trkpt>
      <trkpt lat="44.78136" lon="-0.31741">
        <ele>67</ele>
        <time>2012-12-16T13:44:20Z</time>
      </trkpt>
      <trkpt lat="44.78113" lon="-0.31742">
        <ele>67</ele>
        <time>2012-12-16T13:44:28Z</time>
      </trkpt>
      <trkpt lat="44.78103" lon="-0.3174">
        <ele>66</ele>
        <time>2012-12-16T13:44:35Z</time>
      </trkpt>
      <trkpt lat="44.78083" lon="-0.31731">
        <ele>66</ele>
        <time>2012-12-16T13:44:43Z</time>
      </trkpt>
      <trkpt lat="44.78061" lon="-0.31719">
        <ele>66</ele>
        <time>2012-12-16T13:44:50Z</time>
      </trkpt>
      <trkpt lat="44.78043" lon="-0.31712">
        <ele>66</ele>
        <time>2012-12-16T13:44:55Z</time>
      </trkpt>
      <trkpt lat="44.78019" lon="-0.31698">
        <ele>67</ele>
        <time>2012-12-16T13:45:02Z</time>
      </trkpt>
      <trkpt lat="44.77993" lon="-0.31686">
        <ele>67</ele>
        <time>2012-12-16T13:45:10Z</time>
      </trkpt>
      <trkpt lat="44.77972" lon="-0.31675">
        <ele>68</ele>
        <time>2012-12-16T13:45:17Z</time>
      </trkpt>
      <trkpt lat="44.77953" lon="-0.31668">
        <ele>68</ele>
        <time>2012-12-16T13:45:23Z</time>
      </trkpt>
      <trkpt lat="44.77932" lon="-0.31659">
        <ele>69</ele>
        <time>2012-12-16T13:45:30Z</time>
      </trkpt>
      <trkpt lat="44.77911" lon="-0.31647">
        <ele>70</ele>
        <time>2012-12-16T13:45:37Z</time>
      </trkpt>
      <trkpt lat="44.77895" lon="-0.3164">
        <ele>70</ele>
        <time>2012-12-16T13:45:43Z</time>
      </trkpt>
      <trkpt lat="44.77876" lon="-0.31638">
        <ele>71</ele>
        <time>2012-12-16T13:45:50Z</time>
      </trkpt>
      <trkpt lat="44.77865" lon="-0.31636">
        <ele>71</ele>
        <time>2012-12-16T13:45:56Z</time>
      </trkpt>
      <trkpt lat="44.77849" lon="-0.31632">
        <ele>72</ele>
        <time>2012-12-16T13:46:03Z</time>
      </trkpt>
      <trkpt lat="44.77831" lon="-0.31625">
        <ele>71</ele>
        <time>2012-12-16T13:46:11Z</time>
      </trkpt>
      <trkpt lat="44.77816" lon="-0.31618">
        <ele>71</ele>
        <time>2012-12-16T13:46:18Z</time>
      </trkpt>
      <trkpt lat="44.77799" lon="-0.31612">
        <ele>70</ele>
        <time>2012-12-16T13:46:25Z</time>
      </trkpt>
      <trkpt lat="44.77783" lon="-0.3161">
        <ele>69</ele>
        <time>2012-12-16T13:46:31Z</time>
      </trkpt>
      <trkpt lat="44.77771" lon="-0.31608">
        <ele>69</ele>
        <time>2012-12-16T13:46:36Z</time>
      </trkpt>
      <trkpt lat="44.7777" lon="-0.31607">
        <ele>69</ele>
        <time>2012-12-16T13:46:42Z</time>
      </trkpt>
      <trkpt lat="44.7777" lon="-0.31607">
        <ele>69</ele>
        <time>2012-12-16T13:46:54Z</time>
      </trkpt>
      <trkpt lat="44.77763" lon="-0.31602">
        <ele>68</ele>
        <time>2012-12-16T13:46:59Z</time>
      </trkpt>
      <trkpt lat="44.77753" lon="-0.31599">
        <ele>68</ele>
        <time>2012-12-16T13:47:03Z</time>
      </trkpt>
      <trkpt lat="44.77736" lon="-0.31598">
        <ele>68</ele>
        <time>2012-12-16T13:47:09Z</time>
      </trkpt>
      <trkpt lat="44.77733" lon="-0.316">
        <ele>68</ele>
        <time>2012-12-16T13:47:10Z</time>
      </trkpt>
      <trkpt lat="44.77719" lon="-0.31602">
        <ele>68</ele>
        <time>2012-12-16T13:47:14Z</time>
      </trkpt>
      <trkpt lat="44.77702" lon="-0.31611">
        <ele>68</ele>
        <time>2012-12-16T13:47:20Z</time>
      </trkpt>
      <trkpt lat="44.77683" lon="-0.31615">
        <ele>70</ele>
        <time>2012-12-16T13:47:26Z</time>
      </trkpt>
      <trkpt lat="44.7768" lon="-0.31616">
        <ele>70</ele>
        <time>2012-12-16T13:47:27Z</time>
      </trkpt>
      <trkpt lat="44.7766" lon="-0.31623">
        <ele>70</ele>
        <time>2012-12-16T13:47:34Z</time>
      </trkpt>
      <trkpt lat="44.77646" lon="-0.31625">
        <ele>70</ele>
        <time>2012-12-16T13:47:40Z</time>
      </trkpt>
      <trkpt lat="44.7764" lon="-0.31625">
        <ele>70</ele>
        <time>2012-12-16T13:47:43Z</time>
      </trkpt>
      <trkpt lat="44.77626" lon="-0.3162">
        <ele>71</ele>
        <time>2012-12-16T13:47:50Z</time>
      </trkpt>
      <trkpt lat="44.77613" lon="-0.31622">
        <ele>71</ele>
        <time>2012-12-16T13:47:56Z</time>
      </trkpt>
      <trkpt lat="44.77603" lon="-0.31623">
        <ele>70</ele>
        <time>2012-12-16T13:48:02Z</time>
      </trkpt>
      <trkpt lat="44.77587" lon="-0.31623">
        <ele>70</ele>
        <time>2012-12-16T13:48:07Z</time>
      </trkpt>
      <trkpt lat="44.7758" lon="-0.31624">
        <ele>70</ele>
        <time>2012-12-16T13:48:10Z</time>
      </trkpt>
      <trkpt lat="44.7757" lon="-0.31625">
        <ele>69</ele>
        <time>2012-12-16T13:48:14Z</time>
      </trkpt>
      <trkpt lat="44.77557" lon="-0.31626">
        <ele>68</ele>
        <time>2012-12-16T13:48:19Z</time>
      </trkpt>
      <trkpt lat="44.77532" lon="-0.31624">
        <ele>67</ele>
        <time>2012-12-16T13:48:27Z</time>
      </trkpt>
      <trkpt lat="44.77517" lon="-0.31615">
        <ele>67</ele>
        <time>2012-12-16T13:48:32Z</time>
      </trkpt>
      <trkpt lat="44.77498" lon="-0.31596">
        <ele>68</ele>
        <time>2012-12-16T13:48:39Z</time>
      </trkpt>
      <trkpt lat="44.77485" lon="-0.31578">
        <ele>69</ele>
        <time>2012-12-16T13:48:44Z</time>
      </trkpt>
      <trkpt lat="44.77462" lon="-0.31559">
        <ele>70</ele>
        <time>2012-12-16T13:48:52Z</time>
      </trkpt>
      <trkpt lat="44.77438" lon="-0.31546">
        <ele>70</ele>
        <time>2012-12-16T13:49:01Z</time>
      </trkpt>
      <trkpt lat="44.77427" lon="-0.31541">
        <ele>70</ele>
        <time>2012-12-16T13:49:07Z</time>
      </trkpt>
      <trkpt lat="44.77409" lon="-0.31534">
        <ele>70</ele>
        <time>2012-12-16T13:49:12Z</time>
      </trkpt>
      <trkpt lat="44.77405" lon="-0.31533">
        <ele>70</ele>
        <time>2012-12-16T13:49:13Z</time>
      </trkpt>
      <trkpt lat="44.77402" lon="-0.31532">
        <ele>70</ele>
        <time>2012-12-16T13:49:14Z</time>
      </trkpt>
      <trkpt lat="44.77398" lon="-0.31529">
        <ele>69</ele>
        <time>2012-12-16T13:49:15Z</time>
      </trkpt>
      <trkpt lat="44.77395" lon="-0.31526">
        <ele>69</ele>
        <time>2012-12-16T13:49:16Z</time>
      </trkpt>
      <trkpt lat="44.77391" lon="-0.31523">
        <ele>69</ele>
        <time>2012-12-16T13:49:17Z</time>
      </trkpt>
      <trkpt lat="44.77387" lon="-0.3152">
        <ele>69</ele>
        <time>2012-12-16T13:49:18Z</time>
      </trkpt>
      <trkpt lat="44.77383" lon="-0.31517">
        <ele>68</ele>
        <time>2012-12-16T13:49:19Z</time>
      </trkpt>
      <trkpt lat="44.7738" lon="-0.31513">
        <ele>68</ele>
        <time>2012-12-16T13:49:20Z</time>
      </trkpt>
      <trkpt lat="44.77376" lon="-0.31509">
        <ele>68</ele>
        <time>2012-12-16T13:49:21Z</time>
      </trkpt>
      <trkpt lat="44.77363" lon="-0.31493">
        <ele>67</ele>
        <time>2012-12-16T13:49:26Z</time>
      </trkpt>
      <trkpt lat="44.77349" lon="-0.31468">
        <ele>66</ele>
        <time>2012-12-16T13:49:33Z</time>
      </trkpt>
      <trkpt lat="44.77338" lon="-0.31437">
        <ele>66</ele>
        <time>2012-12-16T13:49:40Z</time>
      </trkpt>
      <trkpt lat="44.7733" lon="-0.31417">
        <ele>65</ele>
        <time>2012-12-16T13:49:46Z</time>
      </trkpt>
      <trkpt lat="44.77324" lon="-0.31403">
        <ele>64</ele>
        <time>2012-12-16T13:49:53Z</time>
      </trkpt>
      <trkpt lat="44.77319" lon="-0.31391">
        <ele>64</ele>
        <time>2012-12-16T13:49:58Z</time>
      </trkpt>
      <trkpt lat="44.77314" lon="-0.31375">
        <ele>64</ele>
        <time>2012-12-16T13:50:05Z</time>
      </trkpt>
      <trkpt lat="44.77313" lon="-0.31372">
        <ele>64</ele>
        <time>2012-12-16T13:50:11Z</time>
      </trkpt>
      <trkpt lat="44.77312" lon="-0.31367">
        <ele>64</ele>
        <time>2012-12-16T13:50:21Z</time>
      </trkpt>
      <trkpt lat="44.77309" lon="-0.31354">
        <ele>65</ele>
        <time>2012-12-16T13:50:28Z</time>
      </trkpt>
      <trkpt lat="44.77305" lon="-0.31341">
        <ele>65</ele>
        <time>2012-12-16T13:50:33Z</time>
      </trkpt>
      <trkpt lat="44.77298" lon="-0.31321">
        <ele>66</ele>
        <time>2012-12-16T13:50:39Z</time>
      </trkpt>
      <trkpt lat="44.77297" lon="-0.31318">
        <ele>66</ele>
        <time>2012-12-16T13:50:40Z</time>
      </trkpt>
      <trkpt lat="44.77279" lon="-0.31317">
        <ele>65</ele>
        <time>2012-12-16T13:50:46Z</time>
      </trkpt>
      <trkpt lat="44.77259" lon="-0.31321">
        <ele>66</ele>
        <time>2012-12-16T13:50:54Z</time>
      </trkpt>
      <trkpt lat="44.77245" lon="-0.31325">
        <ele>66</ele>
        <time>2012-12-16T13:51:00Z</time>
      </trkpt>
      <trkpt lat="44.77235" lon="-0.31327">
        <ele>67</ele>
        <time>2012-12-16T13:51:05Z</time>
      </trkpt>
      <trkpt lat="44.77227" lon="-0.31318">
        <ele>67</ele>
        <time>2012-12-16T13:51:11Z</time>
      </trkpt>
      <trkpt lat="44.77217" lon="-0.31305">
        <ele>68</ele>
        <time>2012-12-16T13:51:18Z</time>
      </trkpt>
      <trkpt lat="44.77208" lon="-0.31297">
        <ele>68</ele>
        <time>2012-12-16T13:51:24Z</time>
      </trkpt>
      <trkpt lat="44.77196" lon="-0.31285">
        <ele>68</ele>
        <time>2012-12-16T13:51:32Z</time>
      </trkpt>
      <trkpt lat="44.77177" lon="-0.31273">
        <ele>69</ele>
        <time>2012-12-16T13:51:42Z</time>
      </trkpt>
      <trkpt lat="44.77161" lon="-0.31264">
        <ele>69</ele>
        <time>2012-12-16T13:51:50Z</time>
      </trkpt>
      <trkpt lat="44.77144" lon="-0.31252">
        <ele>69</ele>
        <time>2012-12-16T13:51:59Z</time>
      </trkpt>
      <trkpt lat="44.77141" lon="-0.31233">
        <ele>68</ele>
        <time>2012-12-16T13:52:06Z</time>
      </trkpt>
      <trkpt lat="44.77137" lon="-0.31213">
        <ele>68</ele>
        <time>2012-12-16T13:52:14Z</time>
      </trkpt>
      <trkpt lat="44.7713" lon="-0.31192">
        <ele>69</ele>
        <time>2012-12-16T13:52:23Z</time>
      </trkpt>
      <trkpt lat="44.77126" lon="-0.31172">
        <ele>69</ele>
        <time>2012-12-16T13:52:30Z</time>
      </trkpt>
      <trkpt lat="44.77126" lon="-0.31153">
        <ele>70</ele>
        <time>2012-12-16T13:52:37Z</time>
      </trkpt>
      <trkpt lat="44.77125" lon="-0.31151">
        <ele>70</ele>
        <time>2012-12-16T13:52:38Z</time>
      </trkpt>
      <trkpt lat="44.77128" lon="-0.31136">
        <ele>71</ele>
        <time>2012-12-16T13:52:43Z</time>
      </trkpt>
      <trkpt lat="44.77139" lon="-0.31108">
        <ele>71</ele>
        <time>2012-12-16T13:52:51Z</time>
      </trkpt>
      <trkpt lat="44.77153" lon="-0.31108">
        <ele>71</ele>
        <time>2012-12-16T13:52:57Z</time>
      </trkpt>
      <trkpt lat="44.77187" lon="-0.31134">
        <ele>69</ele>
        <time>2012-12-16T13:53:06Z</time>
      </trkpt>
      <trkpt lat="44.77224" lon="-0.3116">
        <ele>67</ele>
        <time>2012-12-16T13:53:14Z</time>
      </trkpt>
      <trkpt lat="44.77247" lon="-0.31169">
        <ele>66</ele>
        <time>2012-12-16T13:53:19Z</time>
      </trkpt>
      <trkpt lat="44.77251" lon="-0.31168">
        <ele>66</ele>
        <time>2012-12-16T13:53:20Z</time>
      </trkpt>
      <trkpt lat="44.77255" lon="-0.31167">
        <ele>66</ele>
        <time>2012-12-16T13:53:21Z</time>
      </trkpt>
      <trkpt lat="44.77259" lon="-0.31166">
        <ele>66</ele>
        <time>2012-12-16T13:53:22Z</time>
      </trkpt>
      <trkpt lat="44.77263" lon="-0.31164">
        <ele>66</ele>
        <time>2012-12-16T13:53:23Z</time>
      </trkpt>
      <trkpt lat="44.77266" lon="-0.31162">
        <ele>66</ele>
        <time>2012-12-16T13:53:24Z</time>
      </trkpt>
      <trkpt lat="44.7727" lon="-0.31159">
        <ele>66</ele>
        <time>2012-12-16T13:53:25Z</time>
      </trkpt>
      <trkpt lat="44.77272" lon="-0.31155">
        <ele>66</ele>
        <time>2012-12-16T13:53:26Z</time>
      </trkpt>
      <trkpt lat="44.77288" lon="-0.31129">
        <ele>67</ele>
        <time>2012-12-16T13:53:33Z</time>
      </trkpt>
      <trkpt lat="44.77298" lon="-0.31107">
        <ele>68</ele>
        <time>2012-12-16T13:53:40Z</time>
      </trkpt>
      <trkpt lat="44.77309" lon="-0.31084">
        <ele>68</ele>
        <time>2012-12-16T13:53:46Z</time>
      </trkpt>
      <trkpt lat="44.77323" lon="-0.31056">
        <ele>68</ele>
        <time>2012-12-16T13:53:53Z</time>
      </trkpt>
      <trkpt lat="44.77326" lon="-0.31046">
        <ele>68</ele>
        <time>2012-12-16T13:53:55Z</time>
      </trkpt>
      <trkpt lat="44.77331" lon="-0.31036">
        <ele>68</ele>
        <time>2012-12-16T13:53:57Z</time>
      </trkpt>
      <trkpt lat="44.77337" lon="-0.31027">
        <ele>68</ele>
        <time>2012-12-16T13:53:59Z</time>
      </trkpt>
      <trkpt lat="44.77351" lon="-0.31001">
        <ele>69</ele>
        <time>2012-12-16T13:54:04Z</time>
      </trkpt>
      <trkpt lat="44.77355" lon="-0.30997">
        <ele>69</ele>
        <time>2012-12-16T13:54:05Z</time>
      </trkpt>
      <trkpt lat="44.77359" lon="-0.30993">
        <ele>69</ele>
        <time>2012-12-16T13:54:06Z</time>
      </trkpt>
      <trkpt lat="44.77363" lon="-0.30991">
        <ele>70</ele>
        <time>2012-12-16T13:54:07Z</time>
      </trkpt>
      <trkpt lat="44.77368" lon="-0.30989">
        <ele>70</ele>
        <time>2012-12-16T13:54:08Z</time>
      </trkpt>
      <trkpt lat="44.77372" lon="-0.30988">
        <ele>70</ele>
        <time>2012-12-16T13:54:09Z</time>
      </trkpt>
      <trkpt lat="44.77376" lon="-0.30987">
        <ele>70</ele>
        <time>2012-12-16T13:54:10Z</time>
      </trkpt>
      <trkpt lat="44.77422" lon="-0.30984">
        <ele>74</ele>
        <time>2012-12-16T13:54:20Z</time>
      </trkpt>
      <trkpt lat="44.77456" lon="-0.3098">
        <ele>76</ele>
        <time>2012-12-16T13:54:28Z</time>
      </trkpt>
      <trkpt lat="44.77461" lon="-0.3098">
        <ele>76</ele>
        <time>2012-12-16T13:54:29Z</time>
      </trkpt>
      <trkpt lat="44.77482" lon="-0.30974">
        <ele>77</ele>
        <time>2012-12-16T13:54:35Z</time>
      </trkpt>
      <trkpt lat="44.77499" lon="-0.3096">
        <ele>77</ele>
        <time>2012-12-16T13:54:41Z</time>
      </trkpt>
      <trkpt lat="44.77519" lon="-0.30944">
        <ele>77</ele>
        <time>2012-12-16T13:54:47Z</time>
      </trkpt>
      <trkpt lat="44.77523" lon="-0.30941">
        <ele>77</ele>
        <time>2012-12-16T13:54:48Z</time>
      </trkpt>
      <trkpt lat="44.77556" lon="-0.30915">
        <ele>77</ele>
        <time>2012-12-16T13:54:57Z</time>
      </trkpt>
      <trkpt lat="44.77584" lon="-0.30892">
        <ele>78</ele>
        <time>2012-12-16T13:55:05Z</time>
      </trkpt>
      <trkpt lat="44.77613" lon="-0.30871">
        <ele>79</ele>
        <time>2012-12-16T13:55:14Z</time>
      </trkpt>
      <trkpt lat="44.7763" lon="-0.30853">
        <ele>81</ele>
        <time>2012-12-16T13:55:21Z</time>
      </trkpt>
      <trkpt lat="44.77647" lon="-0.30833">
        <ele>81</ele>
        <time>2012-12-16T13:55:28Z</time>
      </trkpt>
      <trkpt lat="44.77664" lon="-0.30817">
        <ele>81</ele>
        <time>2012-12-16T13:55:35Z</time>
      </trkpt>
      <trkpt lat="44.77682" lon="-0.30804">
        <ele>82</ele>
        <time>2012-12-16T13:55:42Z</time>
      </trkpt>
      <trkpt lat="44.7771" lon="-0.30782">
        <ele>81</ele>
        <time>2012-12-16T13:55:51Z</time>
      </trkpt>
      <trkpt lat="44.77727" lon="-0.3077">
        <ele>82</ele>
        <time>2012-12-16T13:55:58Z</time>
      </trkpt>
      <trkpt lat="44.77738" lon="-0.30763">
        <ele>82</ele>
        <time>2012-12-16T13:56:04Z</time>
      </trkpt>
      <trkpt lat="44.7776" lon="-0.30759">
        <ele>82</ele>
        <time>2012-12-16T13:56:12Z</time>
      </trkpt>
      <trkpt lat="44.77778" lon="-0.3076">
        <ele>83</ele>
        <time>2012-12-16T13:56:19Z</time>
      </trkpt>
      <trkpt lat="44.77797" lon="-0.30759">
        <ele>83</ele>
        <time>2012-12-16T13:56:26Z</time>
      </trkpt>
      <trkpt lat="44.77816" lon="-0.30753">
        <ele>84</ele>
        <time>2012-12-16T13:56:33Z</time>
      </trkpt>
      <trkpt lat="44.77835" lon="-0.30756">
        <ele>85</ele>
        <time>2012-12-16T13:56:40Z</time>
      </trkpt>
      <trkpt lat="44.77847" lon="-0.30758">
        <ele>85</ele>
        <time>2012-12-16T13:56:46Z</time>
      </trkpt>
      <trkpt lat="44.77851" lon="-0.30754">
        <ele>86</ele>
        <time>2012-12-16T13:56:50Z</time>
      </trkpt>
      <trkpt lat="44.77852" lon="-0.30754">
        <ele>86</ele>
        <time>2012-12-16T13:56:51Z</time>
      </trkpt>
      <trkpt lat="44.7786" lon="-0.30751">
        <ele>86</ele>
        <time>2012-12-16T13:56:57Z</time>
      </trkpt>
      <trkpt lat="44.77866" lon="-0.30748">
        <ele>87</ele>
        <time>2012-12-16T13:57:05Z</time>
      </trkpt>
      <trkpt lat="44.77871" lon="-0.30743">
        <ele>88</ele>
        <time>2012-12-16T13:57:11Z</time>
      </trkpt>
      <trkpt lat="44.77875" lon="-0.3074">
        <ele>88</ele>
        <time>2012-12-16T13:57:18Z</time>
      </trkpt>
      <trkpt lat="44.77877" lon="-0.3074">
        <ele>88</ele>
        <time>2012-12-16T13:57:33Z</time>
      </trkpt>
      <trkpt lat="44.77877" lon="-0.30739">
        <ele>88</ele>
        <time>2012-12-16T13:57:41Z</time>
      </trkpt>
      <trkpt lat="44.77877" lon="-0.30741">
        <ele>88</ele>
        <time>2012-12-16T13:57:59Z</time>
      </trkpt>
      <trkpt lat="44.77874" lon="-0.30742">
        <ele>88</ele>
        <time>2012-12-16T13:58:07Z</time>
      </trkpt>
      <trkpt lat="44.77874" lon="-0.30742">
        <ele>88</ele>
        <time>2012-12-16T13:58:12Z</time>
      </trkpt>
      <trkpt lat="44.77875" lon="-0.30741">
        <ele>88</ele>
        <time>2012-12-16T13:58:23Z</time>
      </trkpt>
      <trkpt lat="44.77878" lon="-0.30738">
        <ele>88</ele>
        <time>2012-12-16T13:58:29Z</time>
      </trkpt>
      <trkpt lat="44.77884" lon="-0.30734">
        <ele>89</ele>
        <time>2012-12-16T13:58:34Z</time>
      </trkpt>
      <trkpt lat="44.77888" lon="-0.3073">
        <ele>89</ele>
        <time>2012-12-16T13:58:39Z</time>
      </trkpt>
      <trkpt lat="44.7789" lon="-0.30726">
        <ele>89</ele>
        <time>2012-12-16T13:58:43Z</time>
      </trkpt>
      <trkpt lat="44.7789" lon="-0.30723">
        <ele>90</ele>
        <time>2012-12-16T13:58:45Z</time>
      </trkpt>
      <trkpt lat="44.77897" lon="-0.30715">
        <ele>90</ele>
        <time>2012-12-16T13:58:51Z</time>
      </trkpt>
      <trkpt lat="44.77898" lon="-0.30714">
        <ele>90</ele>
        <time>2012-12-16T13:58:52Z</time>
      </trkpt>
      <trkpt lat="44.77904" lon="-0.30712">
        <ele>90</ele>
        <time>2012-12-16T13:58:58Z</time>
      </trkpt>
      <trkpt lat="44.77907" lon="-0.30708">
        <ele>91</ele>
        <time>2012-12-16T13:59:05Z</time>
      </trkpt>
      <trkpt lat="44.7791" lon="-0.30706">
        <ele>91</ele>
        <time>2012-12-16T13:59:10Z</time>
      </trkpt>
      <trkpt lat="44.77911" lon="-0.30704">
        <ele>91</ele>
        <time>2012-12-16T13:59:17Z</time>
      </trkpt>
      <trkpt lat="44.77912" lon="-0.307">
        <ele>91</ele>
        <time>2012-12-16T13:59:22Z</time>
      </trkpt>
      <trkpt lat="44.77914" lon="-0.30699">
        <ele>91</ele>
        <time>2012-12-16T13:59:30Z</time>
      </trkpt>
      <trkpt lat="44.77915" lon="-0.30698">
        <ele>91</ele>
        <time>2012-12-16T13:59:40Z</time>
      </trkpt>
      <trkpt lat="44.77919" lon="-0.30694">
        <ele>92</ele>
        <time>2012-12-16T13:59:46Z</time>
      </trkpt>
      <trkpt lat="44.77923" lon="-0.3069">
        <ele>92</ele>
        <time>2012-12-16T13:59:52Z</time>
      </trkpt>
      <trkpt lat="44.77924" lon="-0.30689">
        <ele>92</ele>
        <time>2012-12-16T14:00:01Z</time>
      </trkpt>
      <trkpt lat="44.77925" lon="-0.30689">
        <ele>92</ele>
        <time>2012-12-16T14:00:14Z</time>
      </trkpt>
      <trkpt lat="44.77926" lon="-0.30688">
        <ele>92</ele>
        <time>2012-12-16T14:00:30Z</time>
      </trkpt>
      <trkpt lat="44.77926" lon="-0.30687">
        <ele>92</ele>
        <time>2012-12-16T14:00:47Z</time>
      </trkpt>
      <trkpt lat="44.77927" lon="-0.30687">
        <ele>92</ele>
        <time>2012-12-16T14:01:02Z</time>
      </trkpt>
      <trkpt lat="44.77928" lon="-0.30685">
        <ele>92</ele>
        <time>2012-12-16T14:01:09Z</time>
      </trkpt>
      <trkpt lat="44.7793" lon="-0.30683">
        <ele>92</ele>
        <time>2012-12-16T14:01:16Z</time>
      </trkpt>
      <trkpt lat="44.77934" lon="-0.30678">
        <ele>92</ele>
        <time>2012-12-16T14:01:24Z</time>
      </trkpt>
      <trkpt lat="44.77936" lon="-0.30676">
        <ele>92</ele>
        <time>2012-12-16T14:01:26Z</time>
      </trkpt>
      <trkpt lat="44.77937" lon="-0.30675">
        <ele>92</ele>
        <time>2012-12-16T14:01:27Z</time>
      </trkpt>
      <trkpt lat="44.77938" lon="-0.30674">
        <ele>92</ele>
        <time>2012-12-16T14:01:28Z</time>
      </trkpt>
      <trkpt lat="44.77939" lon="-0.30673">
        <ele>92</ele>
        <time>2012-12-16T14:01:29Z</time>
      </trkpt>
      <trkpt lat="44.7794" lon="-0.30671">
        <ele>92</ele>
        <time>2012-12-16T14:01:33Z</time>
      </trkpt>
      <trkpt lat="44.77941" lon="-0.3067">
        <ele>92</ele>
        <time>2012-12-16T14:01:35Z</time>
      </trkpt>
      <trkpt lat="44.77946" lon="-0.30665">
        <ele>92</ele>
        <time>2012-12-16T14:01:41Z</time>
      </trkpt>
      <trkpt lat="44.77948" lon="-0.30662">
        <ele>92</ele>
        <time>2012-12-16T14:01:47Z</time>
      </trkpt>
      <trkpt lat="44.77952" lon="-0.30659">
        <ele>92</ele>
        <time>2012-12-16T14:01:53Z</time>
      </trkpt>
      <trkpt lat="44.77956" lon="-0.30655">
        <ele>92</ele>
        <time>2012-12-16T14:01:58Z</time>
      </trkpt>
      <trkpt lat="44.77959" lon="-0.30653">
        <ele>92</ele>
        <time>2012-12-16T14:02:04Z</time>
      </trkpt>
      <trkpt lat="44.77961" lon="-0.30652">
        <ele>92</ele>
        <time>2012-12-16T14:02:16Z</time>
      </trkpt>
      <trkpt lat="44.77963" lon="-0.30651">
        <ele>92</ele>
        <time>2012-12-16T14:02:26Z</time>
      </trkpt>
      <trkpt lat="44.77964" lon="-0.3065">
        <ele>92</ele>
        <time>2012-12-16T14:02:32Z</time>
      </trkpt>
      <trkpt lat="44.77965" lon="-0.30648">
        <ele>92</ele>
        <time>2012-12-16T14:02:38Z</time>
      </trkpt>
      <trkpt lat="44.77968" lon="-0.30645">
        <ele>92</ele>
        <time>2012-12-16T14:02:42Z</time>
      </trkpt>
      <trkpt lat="44.7797" lon="-0.30643">
        <ele>92</ele>
        <time>2012-12-16T14:02:45Z</time>
      </trkpt>
      <trkpt lat="44.77971" lon="-0.30642">
        <ele>92</ele>
        <time>2012-12-16T14:02:48Z</time>
      </trkpt>
      <trkpt lat="44.77973" lon="-0.30639">
        <ele>92</ele>
        <time>2012-12-16T14:02:50Z</time>
      </trkpt>
      <trkpt lat="44.77975" lon="-0.30637">
        <ele>92</ele>
        <time>2012-12-16T14:02:51Z</time>
      </trkpt>
      <trkpt lat="44.77977" lon="-0.30636">
        <ele>92</ele>
        <time>2012-12-16T14:02:52Z</time>
      </trkpt>
      <trkpt lat="44.77979" lon="-0.30635">
        <ele>92</ele>
        <time>2012-12-16T14:02:53Z</time>
      </trkpt>
      <trkpt lat="44.7798" lon="-0.30634">
        <ele>92</ele>
        <time>2012-12-16T14:02:54Z</time>
      </trkpt>
      <trkpt lat="44.77982" lon="-0.30633">
        <ele>92</ele>
        <time>2012-12-16T14:02:55Z</time>
      </trkpt>
      <trkpt lat="44.77988" lon="-0.3063">
        <ele>92</ele>
        <time>2012-12-16T14:03:01Z</time>
      </trkpt>
      <trkpt lat="44.77996" lon="-0.30623">
        <ele>92</ele>
        <time>2012-12-16T14:03:07Z</time>
      </trkpt>
      <trkpt lat="44.77999" lon="-0.30621">
        <ele>91</ele>
        <time>2012-12-16T14:03:08Z</time>
      </trkpt>
      <trkpt lat="44.7801" lon="-0.30615">
        <ele>91</ele>
        <time>2012-12-16T14:03:14Z</time>
      </trkpt>
      <trkpt lat="44.78012" lon="-0.30615">
        <ele>91</ele>
        <time>2012-12-16T14:03:20Z</time>
      </trkpt>
      <trkpt lat="44.78012" lon="-0.30615">
        <ele>91</ele>
        <time>2012-12-16T14:03:21Z</time>
      </trkpt>
      <trkpt lat="44.78019" lon="-0.30609">
        <ele>91</ele>
        <time>2012-12-16T14:03:25Z</time>
      </trkpt>
      <trkpt lat="44.78027" lon="-0.30603">
        <ele>91</ele>
        <time>2012-12-16T14:03:31Z</time>
      </trkpt>
      <trkpt lat="44.78031" lon="-0.306">
        <ele>91</ele>
        <time>2012-12-16T14:03:34Z</time>
      </trkpt>
      <trkpt lat="44.78035" lon="-0.30599">
        <ele>91</ele>
        <time>2012-12-16T14:03:36Z</time>
      </trkpt>
      <trkpt lat="44.78037" lon="-0.30589">
        <ele>92</ele>
        <time>2012-12-16T14:03:41Z</time>
      </trkpt>
      <trkpt lat="44.78037" lon="-0.30583">
        <ele>93</ele>
        <time>2012-12-16T14:03:46Z</time>
      </trkpt>
      <trkpt lat="44.78038" lon="-0.30578">
        <ele>93</ele>
        <time>2012-12-16T14:03:49Z</time>
      </trkpt>
      <trkpt lat="44.78039" lon="-0.30563">
        <ele>95</ele>
        <time>2012-12-16T14:03:57Z</time>
      </trkpt>
      <trkpt lat="44.78043" lon="-0.30552">
        <ele>96</ele>
        <time>2012-12-16T14:04:02Z</time>
      </trkpt>
      <trkpt lat="44.78045" lon="-0.30545">
        <ele>97</ele>
        <time>2012-12-16T14:04:05Z</time>
      </trkpt>
      <trkpt lat="44.78051" lon="-0.30532">
        <ele>98</ele>
        <time>2012-12-16T14:04:10Z</time>
      </trkpt>
      <trkpt lat="44.78057" lon="-0.30516">
        <ele>99</ele>
        <time>2012-12-16T14:04:17Z</time>
      </trkpt>
      <trkpt lat="44.78062" lon="-0.30504">
        <ele>99</ele>
        <time>2012-12-16T14:04:22Z</time>
      </trkpt>
      <trkpt lat="44.78069" lon="-0.3049">
        <ele>99</ele>
        <time>2012-12-16T14:04:28Z</time>
      </trkpt>
      <trkpt lat="44.78076" lon="-0.30475">
        <ele>100</ele>
        <time>2012-12-16T14:04:33Z</time>
      </trkpt>
      <trkpt lat="44.7808" lon="-0.30458">
        <ele>100</ele>
        <time>2012-12-16T14:04:40Z</time>
      </trkpt>
      <trkpt lat="44.78081" lon="-0.30446">
        <ele>101</ele>
        <time>2012-12-16T14:04:44Z</time>
      </trkpt>
      <trkpt lat="44.78082" lon="-0.30442">
        <ele>101</ele>
        <time>2012-12-16T14:04:45Z</time>
      </trkpt>
      <trkpt lat="44.78084" lon="-0.30413">
        <ele>102</ele>
        <time>2012-12-16T14:04:53Z</time>
      </trkpt>
      <trkpt lat="44.78088" lon="-0.30392">
        <ele>102</ele>
        <time>2012-12-16T14:04:58Z</time>
      </trkpt>
      <trkpt lat="44.7809" lon="-0.30376">
        <ele>102</ele>
        <time>2012-12-16T14:05:02Z</time>
      </trkpt>
      <trkpt lat="44.78094" lon="-0.30366">
        <ele>102</ele>
        <time>2012-12-16T14:05:06Z</time>
      </trkpt>
      <trkpt lat="44.78101" lon="-0.30347">
        <ele>102</ele>
        <time>2012-12-16T14:05:12Z</time>
      </trkpt>
      <trkpt lat="44.78109" lon="-0.3032">
        <ele>102</ele>
        <time>2012-12-16T14:05:19Z</time>
      </trkpt>
      <trkpt lat="44.78111" lon="-0.30311">
        <ele>101</ele>
        <time>2012-12-16T14:05:21Z</time>
      </trkpt>
      <trkpt lat="44.78112" lon="-0.30301">
        <ele>101</ele>
        <time>2012-12-16T14:05:27Z</time>
      </trkpt>
      <trkpt lat="44.78112" lon="-0.30297">
        <ele>101</ele>
        <time>2012-12-16T14:05:37Z</time>
      </trkpt>
      <trkpt lat="44.78112" lon="-0.30291">
        <ele>101</ele>
        <time>2012-12-16T14:05:52Z</time>
      </trkpt>
      <trkpt lat="44.78112" lon="-0.30288">
        <ele>101</ele>
        <time>2012-12-16T14:06:03Z</time>
      </trkpt>
      <trkpt lat="44.78111" lon="-0.30286">
        <ele>101</ele>
        <time>2012-12-16T14:06:12Z</time>
      </trkpt>
      <trkpt lat="44.78117" lon="-0.30271">
        <ele>100</ele>
        <time>2012-12-16T14:06:19Z</time>
      </trkpt>
      <trkpt lat="44.78123" lon="-0.30258">
        <ele>100</ele>
        <time>2012-12-16T14:06:23Z</time>
      </trkpt>
      <trkpt lat="44.78133" lon="-0.30241">
        <ele>99</ele>
        <time>2012-12-16T14:06:29Z</time>
      </trkpt>
      <trkpt lat="44.7814" lon="-0.30211">
        <ele>98</ele>
        <time>2012-12-16T14:06:35Z</time>
      </trkpt>
      <trkpt lat="44.78151" lon="-0.30172">
        <ele>96</ele>
        <time>2012-12-16T14:06:41Z</time>
      </trkpt>
      <trkpt lat="44.78163" lon="-0.30136">
        <ele>94</ele>
        <time>2012-12-16T14:06:47Z</time>
      </trkpt>
      <trkpt lat="44.78165" lon="-0.3013">
        <ele>94</ele>
        <time>2012-12-16T14:06:48Z</time>
      </trkpt>
      <trkpt lat="44.78175" lon="-0.30108">
        <ele>93</ele>
        <time>2012-12-16T14:06:52Z</time>
      </trkpt>
      <trkpt lat="44.78177" lon="-0.30103">
        <ele>93</ele>
        <time>2012-12-16T14:06:53Z</time>
      </trkpt>
      <trkpt lat="44.7818" lon="-0.30098">
        <ele>93</ele>
        <time>2012-12-16T14:06:54Z</time>
      </trkpt>
      <trkpt lat="44.78182" lon="-0.30094">
        <ele>93</ele>
        <time>2012-12-16T14:06:55Z</time>
      </trkpt>
      <trkpt lat="44.78184" lon="-0.30088">
        <ele>92</ele>
        <time>2012-12-16T14:06:57Z</time>
      </trkpt>
      <trkpt lat="44.78205" lon="-0.30064">
        <ele>92</ele>
        <time>2012-12-16T14:07:04Z</time>
      </trkpt>
      <trkpt lat="44.78218" lon="-0.30048">
        <ele>90</ele>
        <time>2012-12-16T14:07:09Z</time>
      </trkpt>
      <trkpt lat="44.78223" lon="-0.30045">
        <ele>90</ele>
        <time>2012-12-16T14:07:15Z</time>
      </trkpt>
      <trkpt lat="44.78225" lon="-0.30043">
        <ele>90</ele>
        <time>2012-12-16T14:07:27Z</time>
      </trkpt>
      <trkpt lat="44.78225" lon="-0.30043">
        <ele>90</ele>
        <time>2012-12-16T14:07:32Z</time>
      </trkpt>
      <trkpt lat="44.78234" lon="-0.30038">
        <ele>90</ele>
        <time>2012-12-16T14:07:38Z</time>
      </trkpt>
      <trkpt lat="44.78254" lon="-0.30034">
        <ele>89</ele>
        <time>2012-12-16T14:07:46Z</time>
      </trkpt>
      <trkpt lat="44.78281" lon="-0.30024">
        <ele>87</ele>
        <time>2012-12-16T14:07:53Z</time>
      </trkpt>
      <trkpt lat="44.78285" lon="-0.30021">
        <ele>87</ele>
        <time>2012-12-16T14:07:54Z</time>
      </trkpt>
      <trkpt lat="44.78319" lon="-0.29996">
        <ele>86</ele>
        <time>2012-12-16T14:08:01Z</time>
      </trkpt>
      <trkpt lat="44.78363" lon="-0.29951">
        <ele>85</ele>
        <time>2012-12-16T14:08:09Z</time>
      </trkpt>
      <trkpt lat="44.78395" lon="-0.2992">
        <ele>84</ele>
        <time>2012-12-16T14:08:15Z</time>
      </trkpt>
      <trkpt lat="44.78443" lon="-0.29883">
        <ele>83</ele>
        <time>2012-12-16T14:08:23Z</time>
      </trkpt>
      <trkpt lat="44.78493" lon="-0.29848">
        <ele>82</ele>
        <time>2012-12-16T14:08:31Z</time>
      </trkpt>
      <trkpt lat="44.7854" lon="-0.29818">
        <ele>81</ele>
        <time>2012-12-16T14:08:39Z</time>
      </trkpt>
      <trkpt lat="44.78578" lon="-0.29795">
        <ele>81</ele>
        <time>2012-12-16T14:08:47Z</time>
      </trkpt>
      <trkpt lat="44.78618" lon="-0.29768">
        <ele>82</ele>
        <time>2012-12-16T14:08:56Z</time>
      </trkpt>
      <trkpt lat="44.78654" lon="-0.29745">
        <ele>83</ele>
        <time>2012-12-16T14:09:05Z</time>
      </trkpt>
      <trkpt lat="44.78679" lon="-0.29734">
        <ele>84</ele>
        <time>2012-12-16T14:09:12Z</time>
      </trkpt>
      <trkpt lat="44.78682" lon="-0.29736">
        <ele>84</ele>
        <time>2012-12-16T14:09:13Z</time>
      </trkpt>
      <trkpt lat="44.78683" lon="-0.29738">
        <ele>84</ele>
        <time>2012-12-16T14:09:14Z</time>
      </trkpt>
      <trkpt lat="44.78685" lon="-0.29739">
        <ele>84</ele>
        <time>2012-12-16T14:09:15Z</time>
      </trkpt>
      <trkpt lat="44.78688" lon="-0.29747">
        <ele>84</ele>
        <time>2012-12-16T14:09:18Z</time>
      </trkpt>
      <trkpt lat="44.78692" lon="-0.29788">
        <ele>84</ele>
        <time>2012-12-16T14:09:27Z</time>
      </trkpt>
      <trkpt lat="44.78694" lon="-0.29819">
        <ele>83</ele>
        <time>2012-12-16T14:09:33Z</time>
      </trkpt>
      <trkpt lat="44.787" lon="-0.29848">
        <ele>82</ele>
        <time>2012-12-16T14:09:39Z</time>
      </trkpt>
      <trkpt lat="44.78704" lon="-0.29881">
        <ele>82</ele>
        <time>2012-12-16T14:09:45Z</time>
      </trkpt>
      <trkpt lat="44.78705" lon="-0.29937">
        <ele>81</ele>
        <time>2012-12-16T14:09:54Z</time>
      </trkpt>
      <trkpt lat="44.78705" lon="-0.29961">
        <ele>80</ele>
        <time>2012-12-16T14:09:58Z</time>
      </trkpt>
      <trkpt lat="44.78709" lon="-0.29984">
        <ele>80</ele>
        <time>2012-12-16T14:10:02Z</time>
      </trkpt>
      <trkpt lat="44.78709" lon="-0.30025">
        <ele>79</ele>
        <time>2012-12-16T14:10:09Z</time>
      </trkpt>
      <trkpt lat="44.78709" lon="-0.30036">
        <ele>78</ele>
        <time>2012-12-16T14:10:11Z</time>
      </trkpt>
      <trkpt lat="44.78711" lon="-0.30073">
        <ele>77</ele>
        <time>2012-12-16T14:10:18Z</time>
      </trkpt>
      <trkpt lat="44.78713" lon="-0.30088">
        <ele>77</ele>
        <time>2012-12-16T14:10:24Z</time>
      </trkpt>
      <trkpt lat="44.78714" lon="-0.30095">
        <ele>77</ele>
        <time>2012-12-16T14:10:31Z</time>
      </trkpt>
      <trkpt lat="44.78714" lon="-0.30101">
        <ele>77</ele>
        <time>2012-12-16T14:10:35Z</time>
      </trkpt>
      <trkpt lat="44.78715" lon="-0.30105">
        <ele>77</ele>
        <time>2012-12-16T14:10:37Z</time>
      </trkpt>
      <trkpt lat="44.78715" lon="-0.30111">
        <ele>77</ele>
        <time>2012-12-16T14:10:40Z</time>
      </trkpt>
      <trkpt lat="44.78714" lon="-0.30117">
        <ele>77</ele>
        <time>2012-12-16T14:10:44Z</time>
      </trkpt>
      <trkpt lat="44.78712" lon="-0.30128">
        <ele>76</ele>
        <time>2012-12-16T14:10:51Z</time>
      </trkpt>
      <trkpt lat="44.78714" lon="-0.3013">
        <ele>76</ele>
        <time>2012-12-16T14:10:59Z</time>
      </trkpt>
      <trkpt lat="44.78715" lon="-0.30131">
        <ele>76</ele>
        <time>2012-12-16T14:11:08Z</time>
      </trkpt>
      <trkpt lat="44.78715" lon="-0.30132">
        <ele>76</ele>
        <time>2012-12-16T14:11:18Z</time>
      </trkpt>
      <trkpt lat="44.78715" lon="-0.30133">
        <ele>76</ele>
        <time>2012-12-16T14:11:24Z</time>
      </trkpt>
      <trkpt lat="44.78718" lon="-0.30135">
        <ele>76</ele>
        <time>2012-12-16T14:11:31Z</time>
      </trkpt>
      <trkpt lat="44.78721" lon="-0.30135">
        <ele>77</ele>
        <time>2012-12-16T14:11:38Z</time>
      </trkpt>
      <trkpt lat="44.78725" lon="-0.30142">
        <ele>77</ele>
        <time>2012-12-16T14:11:44Z</time>
      </trkpt>
      <trkpt lat="44.78726" lon="-0.30145">
        <ele>77</ele>
        <time>2012-12-16T14:11:50Z</time>
      </trkpt>
      <trkpt lat="44.78727" lon="-0.30166">
        <ele>76</ele>
        <time>2012-12-16T14:11:57Z</time>
      </trkpt>
      <trkpt lat="44.78729" lon="-0.30197">
        <ele>76</ele>
        <time>2012-12-16T14:12:06Z</time>
      </trkpt>
      <trkpt lat="44.7873" lon="-0.30221">
        <ele>75</ele>
        <time>2012-12-16T14:12:13Z</time>
      </trkpt>
      <trkpt lat="44.78731" lon="-0.30249">
        <ele>75</ele>
        <time>2012-12-16T14:12:21Z</time>
      </trkpt>
      <trkpt lat="44.78734" lon="-0.30269">
        <ele>74</ele>
        <time>2012-12-16T14:12:28Z</time>
      </trkpt>
      <trkpt lat="44.78732" lon="-0.30273">
        <ele>74</ele>
        <time>2012-12-16T14:12:33Z</time>
      </trkpt>
      <trkpt lat="44.7873" lon="-0.30275">
        <ele>74</ele>
        <time>2012-12-16T14:12:39Z</time>
      </trkpt>
      <trkpt lat="44.78729" lon="-0.30276">
        <ele>74</ele>
        <time>2012-12-16T14:12:47Z</time>
      </trkpt>
      <trkpt lat="44.78728" lon="-0.30276">
        <ele>74</ele>
        <time>2012-12-16T14:12:56Z</time>
      </trkpt>
      <trkpt lat="44.78725" lon="-0.30276">
        <ele>74</ele>
        <time>2012-12-16T14:13:03Z</time>
      </trkpt>
      <trkpt lat="44.78724" lon="-0.30278">
        <ele>74</ele>
        <time>2012-12-16T14:13:11Z</time>
      </trkpt>
      <trkpt lat="44.78723" lon="-0.3028">
        <ele>74</ele>
        <time>2012-12-16T14:13:18Z</time>
      </trkpt>
      <trkpt lat="44.78724" lon="-0.30282">
        <ele>74</ele>
        <time>2012-12-16T14:13:26Z</time>
      </trkpt>
      <trkpt lat="44.78723" lon="-0.30284">
        <ele>74</ele>
        <time>2012-12-16T14:13:50Z</time>
      </trkpt>
      <trkpt lat="44.78723" lon="-0.30285">
        <ele>74</ele>
        <time>2012-12-16T14:14:09Z</time>
      </trkpt>
      <trkpt lat="44.78723" lon="-0.30286">
        <ele>74</ele>
        <time>2012-12-16T14:14:28Z</time>
      </trkpt>
      <trkpt lat="44.78722" lon="-0.30286">
        <ele>74</ele>
        <time>2012-12-16T14:14:41Z</time>
      </trkpt>
      <trkpt lat="44.78723" lon="-0.3029">
        <ele>74</ele>
        <time>2012-12-16T14:14:47Z</time>
      </trkpt>
      <trkpt lat="44.78725" lon="-0.30294">
        <ele>74</ele>
        <time>2012-12-16T14:14:55Z</time>
      </trkpt>
      <trkpt lat="44.78725" lon="-0.30298">
        <ele>74</ele>
        <time>2012-12-16T14:15:01Z</time>
      </trkpt>
      <trkpt lat="44.78725" lon="-0.30302">
        <ele>74</ele>
        <time>2012-12-16T14:15:07Z</time>
      </trkpt>
      <trkpt lat="44.78727" lon="-0.30308">
        <ele>74</ele>
        <time>2012-12-16T14:15:14Z</time>
      </trkpt>
      <trkpt lat="44.78727" lon="-0.30318">
        <ele>73</ele>
        <time>2012-12-16T14:15:22Z</time>
      </trkpt>
      <trkpt lat="44.78727" lon="-0.30332">
        <ele>73</ele>
        <time>2012-12-16T14:15:31Z</time>
      </trkpt>
      <trkpt lat="44.78727" lon="-0.30341">
        <ele>73</ele>
        <time>2012-12-16T14:15:38Z</time>
      </trkpt>
      <trkpt lat="44.78726" lon="-0.30349">
        <ele>73</ele>
        <time>2012-12-16T14:15:45Z</time>
      </trkpt>
      <trkpt lat="44.78726" lon="-0.30359">
        <ele>73</ele>
        <time>2012-12-16T14:15:53Z</time>
      </trkpt>
      <trkpt lat="44.78725" lon="-0.30361">
        <ele>73</ele>
        <time>2012-12-16T14:16:02Z</time>
      </trkpt>
      <trkpt lat="44.78726" lon="-0.30363">
        <ele>73</ele>
        <time>2012-12-16T14:16:13Z</time>
      </trkpt>
      <trkpt lat="44.78726" lon="-0.3037">
        <ele>73</ele>
        <time>2012-12-16T14:16:20Z</time>
      </trkpt>
      <trkpt lat="44.78726" lon="-0.3037">
        <ele>73</ele>
        <time>2012-12-16T14:16:29Z</time>
      </trkpt>
      <trkpt lat="44.78726" lon="-0.30371">
        <ele>73</ele>
        <time>2012-12-16T14:16:39Z</time>
      </trkpt>
      <trkpt lat="44.78726" lon="-0.30371">
        <ele>73</ele>
        <time>2012-12-16T14:16:48Z</time>
      </trkpt>
      <trkpt lat="44.78726" lon="-0.30372">
        <ele>73</ele>
        <time>2012-12-16T14:17:03Z</time>
      </trkpt>
      <trkpt lat="44.78726" lon="-0.30372">
        <ele>73</ele>
        <time>2012-12-16T14:17:15Z</time>
      </trkpt>
      <trkpt lat="44.78725" lon="-0.30371">
        <ele>73</ele>
        <time>2012-12-16T14:17:27Z</time>
      </trkpt>
      <trkpt lat="44.78726" lon="-0.30371">
        <ele>73</ele>
        <time>2012-12-16T14:17:43Z</time>
      </trkpt>
      <trkpt lat="44.78726" lon="-0.30372">
        <ele>73</ele>
        <time>2012-12-16T14:17:59Z</time>
      </trkpt>
      <trkpt lat="44.78725" lon="-0.30372">
        <ele>73</ele>
        <time>2012-12-16T14:18:07Z</time>
      </trkpt>
      <trkpt lat="44.78725" lon="-0.30372">
        <ele>73</ele>
        <time>2012-12-16T14:18:13Z</time>
      </trkpt>
      <trkpt lat="44.78726" lon="-0.30375">
        <ele>73</ele>
        <time>2012-12-16T14:18:19Z</time>
      </trkpt>
      <trkpt lat="44.78726" lon="-0.30395">
        <ele>73</ele>
        <time>2012-12-16T14:18:27Z</time>
      </trkpt>
      <trkpt lat="44.78726" lon="-0.30424">
        <ele>73</ele>
        <time>2012-12-16T14:18:35Z</time>
      </trkpt>
      <trkpt lat="44.78728" lon="-0.30449">
        <ele>72</ele>
        <time>2012-12-16T14:18:42Z</time>
      </trkpt>
      <trkpt lat="44.78731" lon="-0.30479">
        <ele>72</ele>
        <time>2012-12-16T14:18:50Z</time>
      </trkpt>
      <trkpt lat="44.7873" lon="-0.30514">
        <ele>72</ele>
        <time>2012-12-16T14:18:58Z</time>
      </trkpt>
      <trkpt lat="44.7873" lon="-0.30557">
        <ele>72</ele>
        <time>2012-12-16T14:19:07Z</time>
      </trkpt>
      <trkpt lat="44.78729" lon="-0.30594">
        <ele>71</ele>
        <time>2012-12-16T14:19:14Z</time>
      </trkpt>
      <trkpt lat="44.78729" lon="-0.3062">
        <ele>71</ele>
        <time>2012-12-16T14:19:18Z</time>
      </trkpt>
      <trkpt lat="44.78728" lon="-0.30627">
        <ele>71</ele>
        <time>2012-12-16T14:19:19Z</time>
      </trkpt>
      <trkpt lat="44.78725" lon="-0.30675">
        <ele>72</ele>
        <time>2012-12-16T14:19:27Z</time>
      </trkpt>
      <trkpt lat="44.78725" lon="-0.30681">
        <ele>72</ele>
        <time>2012-12-16T14:19:28Z</time>
      </trkpt>
      <trkpt lat="44.78724" lon="-0.30687">
        <ele>72</ele>
        <time>2012-12-16T14:19:29Z</time>
      </trkpt>
      <trkpt lat="44.78723" lon="-0.30693">
        <ele>72</ele>
        <time>2012-12-16T14:19:30Z</time>
      </trkpt>
      <trkpt lat="44.78721" lon="-0.30742">
        <ele>72</ele>
        <time>2012-12-16T14:19:38Z</time>
      </trkpt>
      <trkpt lat="44.78717" lon="-0.30793">
        <ele>71</ele>
        <time>2012-12-16T14:19:46Z</time>
      </trkpt>
      <trkpt lat="44.78713" lon="-0.30824">
        <ele>71</ele>
        <time>2012-12-16T14:19:52Z</time>
      </trkpt>
      <trkpt lat="44.7871" lon="-0.30867">
        <ele>70</ele>
        <time>2012-12-16T14:20:00Z</time>
      </trkpt>
      <trkpt lat="44.7871" lon="-0.30888">
        <ele>70</ele>
        <time>2012-12-16T14:20:04Z</time>
      </trkpt>
      <trkpt lat="44.78711" lon="-0.30894">
        <ele>70</ele>
        <time>2012-12-16T14:20:05Z</time>
      </trkpt>
      <trkpt lat="44.7871" lon="-0.30901">
        <ele>70</ele>
        <time>2012-12-16T14:20:06Z</time>
      </trkpt>
      <trkpt lat="44.78706" lon="-0.30948">
        <ele>70</ele>
        <time>2012-12-16T14:20:14Z</time>
      </trkpt>
      <trkpt lat="44.78706" lon="-0.30954">
        <ele>70</ele>
        <time>2012-12-16T14:20:15Z</time>
      </trkpt>
      <trkpt lat="44.78705" lon="-0.3096">
        <ele>70</ele>
        <time>2012-12-16T14:20:16Z</time>
      </trkpt>
      <trkpt lat="44.78702" lon="-0.30986">
        <ele>70</ele>
        <time>2012-12-16T14:20:20Z</time>
      </trkpt>
      <trkpt lat="44.78702" lon="-0.30993">
        <ele>70</ele>
        <time>2012-12-16T14:20:21Z</time>
      </trkpt>
      <trkpt lat="44.78697" lon="-0.31047">
        <ele>70</ele>
        <time>2012-12-16T14:20:29Z</time>
      </trkpt>
      <trkpt lat="44.78693" lon="-0.31096">
        <ele>69</ele>
        <time>2012-12-16T14:20:36Z</time>
      </trkpt>
      <trkpt lat="44.78692" lon="-0.31103">
        <ele>69</ele>
        <time>2012-12-16T14:20:37Z</time>
      </trkpt>
      <trkpt lat="44.78691" lon="-0.31141">
        <ele>70</ele>
        <time>2012-12-16T14:20:43Z</time>
      </trkpt>
      <trkpt lat="44.7869" lon="-0.31167">
        <ele>70</ele>
        <time>2012-12-16T14:20:47Z</time>
      </trkpt>
      <trkpt lat="44.7869" lon="-0.31179">
        <ele>70</ele>
        <time>2012-12-16T14:20:49Z</time>
      </trkpt>
      <trkpt lat="44.7869" lon="-0.31184">
        <ele>70</ele>
        <time>2012-12-16T14:20:50Z</time>
      </trkpt>
      <trkpt lat="44.7869" lon="-0.3119">
        <ele>70</ele>
        <time>2012-12-16T14:20:51Z</time>
      </trkpt>
      <trkpt lat="44.7869" lon="-0.31196">
        <ele>70</ele>
        <time>2012-12-16T14:20:52Z</time>
      </trkpt>
      <trkpt lat="44.78689" lon="-0.31201">
        <ele>70</ele>
        <time>2012-12-16T14:20:53Z</time>
      </trkpt>
      <trkpt lat="44.78688" lon="-0.31233">
        <ele>71</ele>
        <time>2012-12-16T14:20:59Z</time>
      </trkpt>
      <trkpt lat="44.78688" lon="-0.31239">
        <ele>71</ele>
        <time>2012-12-16T14:21:00Z</time>
      </trkpt>
      <trkpt lat="44.78687" lon="-0.31245">
        <ele>71</ele>
        <time>2012-12-16T14:21:01Z</time>
      </trkpt>
      <trkpt lat="44.78685" lon="-0.31276">
        <ele>72</ele>
        <time>2012-12-16T14:21:07Z</time>
      </trkpt>
      <trkpt lat="44.78684" lon="-0.31319">
        <ele>72</ele>
        <time>2012-12-16T14:21:16Z</time>
      </trkpt>
      <trkpt lat="44.78686" lon="-0.3135">
        <ele>72</ele>
        <time>2012-12-16T14:21:23Z</time>
      </trkpt>
      <trkpt lat="44.78687" lon="-0.31381">
        <ele>72</ele>
        <time>2012-12-16T14:21:29Z</time>
      </trkpt>
      <trkpt lat="44.78691" lon="-0.31429">
        <ele>72</ele>
        <time>2012-12-16T14:21:37Z</time>
      </trkpt>
      <trkpt lat="44.78691" lon="-0.31434">
        <ele>71</ele>
        <time>2012-12-16T14:21:38Z</time>
      </trkpt>
      <trkpt lat="44.78691" lon="-0.3144">
        <ele>71</ele>
        <time>2012-12-16T14:21:39Z</time>
      </trkpt>
      <trkpt lat="44.78694" lon="-0.31475">
        <ele>70</ele>
        <time>2012-12-16T14:21:46Z</time>
      </trkpt>
      <trkpt lat="44.78695" lon="-0.31505">
        <ele>70</ele>
        <time>2012-12-16T14:21:52Z</time>
      </trkpt>
      <trkpt lat="44.78696" lon="-0.31562">
        <ele>69</ele>
        <time>2012-12-16T14:22:01Z</time>
      </trkpt>
      <trkpt lat="44.78695" lon="-0.31569">
        <ele>69</ele>
        <time>2012-12-16T14:22:02Z</time>
      </trkpt>
      <trkpt lat="44.78695" lon="-0.31583">
        <ele>68</ele>
        <time>2012-12-16T14:22:04Z</time>
      </trkpt>
      <trkpt lat="44.78694" lon="-0.31589">
        <ele>68</ele>
        <time>2012-12-16T14:22:05Z</time>
      </trkpt>
      <trkpt lat="44.78694" lon="-0.31595">
        <ele>68</ele>
        <time>2012-12-16T14:22:06Z</time>
      </trkpt>
      <trkpt lat="44.78694" lon="-0.31601">
        <ele>68</ele>
        <time>2012-12-16T14:22:07Z</time>
      </trkpt>
      <trkpt lat="44.78693" lon="-0.31608">
        <ele>68</ele>
        <time>2012-12-16T14:22:08Z</time>
      </trkpt>
      <trkpt lat="44.78689" lon="-0.31632">
        <ele>67</ele>
        <time>2012-12-16T14:22:12Z</time>
      </trkpt>
      <trkpt lat="44.78688" lon="-0.31638">
        <ele>67</ele>
        <time>2012-12-16T14:22:13Z</time>
      </trkpt>
      <trkpt lat="44.78684" lon="-0.3166">
        <ele>67</ele>
        <time>2012-12-16T14:22:17Z</time>
      </trkpt>
      <trkpt lat="44.78683" lon="-0.31666">
        <ele>67</ele>
        <time>2012-12-16T14:22:18Z</time>
      </trkpt>
      <trkpt lat="44.78681" lon="-0.31671">
        <ele>67</ele>
        <time>2012-12-16T14:22:19Z</time>
      </trkpt>
      <trkpt lat="44.7868" lon="-0.31676">
        <ele>67</ele>
        <time>2012-12-16T14:22:20Z</time>
      </trkpt>
      <trkpt lat="44.78679" lon="-0.31682">
        <ele>66</ele>
        <time>2012-12-16T14:22:21Z</time>
      </trkpt>
      <trkpt lat="44.78671" lon="-0.31715">
        <ele>66</ele>
        <time>2012-12-16T14:22:27Z</time>
      </trkpt>
      <trkpt lat="44.78662" lon="-0.3175">
        <ele>66</ele>
        <time>2012-12-16T14:22:34Z</time>
      </trkpt>
      <trkpt lat="44.78657" lon="-0.31779">
        <ele>66</ele>
        <time>2012-12-16T14:22:41Z</time>
      </trkpt>
      <trkpt lat="44.78656" lon="-0.31785">
        <ele>66</ele>
        <time>2012-12-16T14:22:43Z</time>
      </trkpt>
      <trkpt lat="44.78655" lon="-0.31788">
        <ele>66</ele>
        <time>2012-12-16T14:22:44Z</time>
      </trkpt>
      <trkpt lat="44.78653" lon="-0.31792">
        <ele>66</ele>
        <time>2012-12-16T14:22:48Z</time>
      </trkpt>
      <trkpt lat="44.78652" lon="-0.31794">
        <ele>66</ele>
        <time>2012-12-16T14:22:56Z</time>
      </trkpt>
      <trkpt lat="44.78652" lon="-0.31795">
        <ele>66</ele>
        <time>2012-12-16T14:23:03Z</time>
      </trkpt>
      <trkpt lat="44.78652" lon="-0.31795">
        <ele>66</ele>
        <time>2012-12-16T14:23:15Z</time>
      </trkpt>
      <trkpt lat="44.78652" lon="-0.31796">
        <ele>66</ele>
        <time>2012-12-16T14:23:32Z</time>
      </trkpt>
      <trkpt lat="44.78652" lon="-0.31795">
        <ele>66</ele>
        <time>2012-12-16T14:23:47Z</time>
      </trkpt>
      <trkpt lat="44.78653" lon="-0.31796">
        <ele>66</ele>
        <time>2012-12-16T14:23:59Z</time>
      </trkpt>
      <trkpt lat="44.78653" lon="-0.31797">
        <ele>66</ele>
        <time>2012-12-16T14:24:14Z</time>
      </trkpt>
      <trkpt lat="44.78651" lon="-0.31801">
        <ele>66</ele>
        <time>2012-12-16T14:24:26Z</time>
      </trkpt>
      <trkpt lat="44.78649" lon="-0.31804">
        <ele>66</ele>
        <time>2012-12-16T14:24:28Z</time>
      </trkpt>
      <trkpt lat="44.78637" lon="-0.31805">
        <ele>66</ele>
        <time>2012-12-16T14:24:33Z</time>
      </trkpt>
      <trkpt lat="44.78611" lon="-0.31802">
        <ele>65</ele>
        <time>2012-12-16T14:24:41Z</time>
      </trkpt>
      <trkpt lat="44.7858" lon="-0.31796">
        <ele>64</ele>
        <time>2012-12-16T14:24:50Z</time>
      </trkpt>
      <trkpt lat="44.78553" lon="-0.31784">
        <ele>62</ele>
        <time>2012-12-16T14:24:58Z</time>
      </trkpt>
      <trkpt lat="44.78532" lon="-0.31773">
        <ele>61</ele>
        <time>2012-12-16T14:25:05Z</time>
      </trkpt>
      <trkpt lat="44.78507" lon="-0.31762">
        <ele>61</ele>
        <time>2012-12-16T14:25:13Z</time>
      </trkpt>
      <trkpt lat="44.78481" lon="-0.31756">
        <ele>60</ele>
        <time>2012-12-16T14:25:21Z</time>
      </trkpt>
      <trkpt lat="44.78456" lon="-0.31749">
        <ele>60</ele>
        <time>2012-12-16T14:25:29Z</time>
      </trkpt>
      <trkpt lat="44.78439" lon="-0.31746">
        <ele>60</ele>
        <time>2012-12-16T14:25:35Z</time>
      </trkpt>
      <trkpt lat="44.78431" lon="-0.31748">
        <ele>60</ele>
        <time>2012-12-16T14:25:38Z</time>
      </trkpt>
      <trkpt lat="44.78415" lon="-0.31754">
        <ele>61</ele>
        <time>2012-12-16T14:25:42Z</time>
      </trkpt>
      <trkpt lat="44.78388" lon="-0.31763">
        <ele>62</ele>
        <time>2012-12-16T14:25:49Z</time>
      </trkpt>
      <trkpt lat="44.78366" lon="-0.31767">
        <ele>64</ele>
        <time>2012-12-16T14:25:55Z</time>
      </trkpt>
      <trkpt lat="44.78342" lon="-0.31768">
        <ele>65</ele>
        <time>2012-12-16T14:26:01Z</time>
      </trkpt>
      <trkpt lat="44.78321" lon="-0.31762">
        <ele>66</ele>
        <time>2012-12-16T14:26:06Z</time>
      </trkpt>
      <trkpt lat="44.78301" lon="-0.31756">
        <ele>66</ele>
        <time>2012-12-16T14:26:12Z</time>
      </trkpt>
      <trkpt lat="44.78281" lon="-0.31752">
        <ele>67</ele>
        <time>2012-12-16T14:26:19Z</time>
      </trkpt>
      <trkpt lat="44.78264" lon="-0.3175">
        <ele>67</ele>
        <time>2012-12-16T14:26:25Z</time>
      </trkpt>
      <trkpt lat="44.78247" lon="-0.31746">
        <ele>67</ele>
        <time>2012-12-16T14:26:31Z</time>
      </trkpt>
      <trkpt lat="44.78232" lon="-0.31748">
        <ele>67</ele>
        <time>2012-12-16T14:26:38Z</time>
      </trkpt>
      <trkpt lat="44.78223" lon="-0.31746">
        <ele>67</ele>
        <time>2012-12-16T14:26:44Z</time>
      </trkpt>
      <trkpt lat="44.78205" lon="-0.31742">
        <ele>67</ele>
        <time>2012-12-16T14:26:53Z</time>
      </trkpt>
      <trkpt lat="44.78186" lon="-0.31738">
        <ele>67</ele>
        <time>2012-12-16T14:27:01Z</time>
      </trkpt>
      <trkpt lat="44.78165" lon="-0.31738">
        <ele>67</ele>
        <time>2012-12-16T14:27:10Z</time>
      </trkpt>
      <trkpt lat="44.78146" lon="-0.31741">
        <ele>67</ele>
        <time>2012-12-16T14:27:19Z</time>
      </trkpt>
      <trkpt lat="44.78123" lon="-0.31744">
        <ele>67</ele>
        <time>2012-12-16T14:27:29Z</time>
      </trkpt>
      <trkpt lat="44.78112" lon="-0.31746">
        <ele>66</ele>
        <time>2012-12-16T14:27:36Z</time>
      </trkpt>
      <trkpt lat="44.78112" lon="-0.31747">
        <ele>66</ele>
        <time>2012-12-16T14:27:45Z</time>
      </trkpt>
      <trkpt lat="44.78111" lon="-0.31746">
        <ele>66</ele>
        <time>2012-12-16T14:27:57Z</time>
      </trkpt>
      <trkpt lat="44.78111" lon="-0.31746">
        <ele>66</ele>
        <time>2012-12-16T14:28:09Z</time>
      </trkpt>
      <trkpt lat="44.7811" lon="-0.31746">
        <ele>66</ele>
        <time>2012-12-16T14:28:27Z</time>
      </trkpt>
      <trkpt lat="44.7811" lon="-0.31746">
        <ele>66</ele>
        <time>2012-12-16T14:28:37Z</time>
      </trkpt>
      <trkpt lat="44.78111" lon="-0.31746">
        <ele>66</ele>
        <time>2012-12-16T14:28:45Z</time>
      </trkpt>
      <trkpt lat="44.7811" lon="-0.31746">
        <ele>66</ele>
        <time>2012-12-16T14:28:58Z</time>
      </trkpt>
      <trkpt lat="44.7811" lon="-0.31746">
        <ele>66</ele>
        <time>2012-12-16T14:29:06Z</time>
      </trkpt>
      <trkpt lat="44.78104" lon="-0.31745">
        <ele>66</ele>
        <time>2012-12-16T14:29:12Z</time>
      </trkpt>
      <trkpt lat="44.78105" lon="-0.31753">
        <ele>66</ele>
        <time>2012-12-16T14:29:16Z</time>
      </trkpt>
      <trkpt lat="44.78115" lon="-0.31775">
        <ele>66</ele>
        <time>2012-12-16T14:29:25Z</time>
      </trkpt>
      <trkpt lat="44.78127" lon="-0.31807">
        <ele>66</ele>
        <time>2012-12-16T14:29:33Z</time>
      </trkpt>
      <trkpt lat="44.78137" lon="-0.31835">
        <ele>66</ele>
        <time>2012-12-16T14:29:39Z</time>
      </trkpt>
      <trkpt lat="44.78141" lon="-0.31845">
        <ele>66</ele>
        <time>2012-12-16T14:29:41Z</time>
      </trkpt>
      <trkpt lat="44.78143" lon="-0.3185">
        <ele>65</ele>
        <time>2012-12-16T14:29:42Z</time>
      </trkpt>
      <trkpt lat="44.78159" lon="-0.31892">
        <ele>64</ele>
        <time>2012-12-16T14:29:50Z</time>
      </trkpt>
      <trkpt lat="44.78161" lon="-0.31898">
        <ele>64</ele>
        <time>2012-12-16T14:29:51Z</time>
      </trkpt>
      <trkpt lat="44.7817" lon="-0.31921">
        <ele>64</ele>
        <time>2012-12-16T14:29:55Z</time>
      </trkpt>
      <trkpt lat="44.78184" lon="-0.3196">
        <ele>63</ele>
        <time>2012-12-16T14:30:02Z</time>
      </trkpt>
      <trkpt lat="44.78187" lon="-0.31965">
        <ele>62</ele>
        <time>2012-12-16T14:30:03Z</time>
      </trkpt>
      <trkpt lat="44.78192" lon="-0.31977">
        <ele>62</ele>
        <time>2012-12-16T14:30:05Z</time>
      </trkpt>
      <trkpt lat="44.782" lon="-0.31998">
        <ele>61</ele>
        <time>2012-12-16T14:30:09Z</time>
      </trkpt>
      <trkpt lat="44.78202" lon="-0.32004">
        <ele>61</ele>
        <time>2012-12-16T14:30:10Z</time>
      </trkpt>
      <trkpt lat="44.78204" lon="-0.32009">
        <ele>61</ele>
        <time>2012-12-16T14:30:11Z</time>
      </trkpt>
      <trkpt lat="44.78206" lon="-0.32014">
        <ele>60</ele>
        <time>2012-12-16T14:30:12Z</time>
      </trkpt>
      <trkpt lat="44.78208" lon="-0.32019">
        <ele>60</ele>
        <time>2012-12-16T14:30:13Z</time>
      </trkpt>
      <trkpt lat="44.78219" lon="-0.32048">
        <ele>60</ele>
        <time>2012-12-16T14:30:18Z</time>
      </trkpt>
      <trkpt lat="44.78225" lon="-0.32065">
        <ele>60</ele>
        <time>2012-12-16T14:30:21Z</time>
      </trkpt>
      <trkpt lat="44.78232" lon="-0.32082">
        <ele>60</ele>
        <time>2012-12-16T14:30:24Z</time>
      </trkpt>
      <trkpt lat="44.78234" lon="-0.32087">
        <ele>59</ele>
        <time>2012-12-16T14:30:25Z</time>
      </trkpt>
      <trkpt lat="44.78237" lon="-0.32094">
        <ele>59</ele>
        <time>2012-12-16T14:30:26Z</time>
      </trkpt>
      <trkpt lat="44.78239" lon="-0.321">
        <ele>59</ele>
        <time>2012-12-16T14:30:27Z</time>
      </trkpt>
      <trkpt lat="44.78242" lon="-0.32105">
        <ele>59</ele>
        <time>2012-12-16T14:30:28Z</time>
      </trkpt>
      <trkpt lat="44.78256" lon="-0.32143">
        <ele>59</ele>
        <time>2012-12-16T14:30:34Z</time>
      </trkpt>
      <trkpt lat="44.78261" lon="-0.32154">
        <ele>59</ele>
        <time>2012-12-16T14:30:36Z</time>
      </trkpt>
      <trkpt lat="44.78263" lon="-0.3216">
        <ele>59</ele>
        <time>2012-12-16T14:30:37Z</time>
      </trkpt>
      <trkpt lat="44.78268" lon="-0.32172">
        <ele>59</ele>
        <time>2012-12-16T14:30:39Z</time>
      </trkpt>
      <trkpt lat="44.7827" lon="-0.32178">
        <ele>59</ele>
        <time>2012-12-16T14:30:40Z</time>
      </trkpt>
      <trkpt lat="44.78272" lon="-0.32183">
        <ele>59</ele>
        <time>2012-12-16T14:30:41Z</time>
      </trkpt>
      <trkpt lat="44.78283" lon="-0.32214">
        <ele>60</ele>
        <time>2012-12-16T14:30:46Z</time>
      </trkpt>
      <trkpt lat="44.78288" lon="-0.32226">
        <ele>61</ele>
        <time>2012-12-16T14:30:48Z</time>
      </trkpt>
      <trkpt lat="44.78296" lon="-0.32243">
        <ele>62</ele>
        <time>2012-12-16T14:30:51Z</time>
      </trkpt>
      <trkpt lat="44.78315" lon="-0.32298">
        <ele>65</ele>
        <time>2012-12-16T14:31:00Z</time>
      </trkpt>
      <trkpt lat="44.78331" lon="-0.32339">
        <ele>66</ele>
        <time>2012-12-16T14:31:08Z</time>
      </trkpt>
      <trkpt lat="44.78349" lon="-0.32391">
        <ele>67</ele>
        <time>2012-12-16T14:31:18Z</time>
      </trkpt>
      <trkpt lat="44.78351" lon="-0.32396">
        <ele>67</ele>
        <time>2012-12-16T14:31:19Z</time>
      </trkpt>
      <trkpt lat="44.78354" lon="-0.32401">
        <ele>67</ele>
        <time>2012-12-16T14:31:20Z</time>
      </trkpt>
      <trkpt lat="44.78356" lon="-0.32406">
        <ele>67</ele>
        <time>2012-12-16T14:31:21Z</time>
      </trkpt>
      <trkpt lat="44.78374" lon="-0.32452">
        <ele>67</ele>
        <time>2012-12-16T14:31:31Z</time>
      </trkpt>
      <trkpt lat="44.78384" lon="-0.32482">
        <ele>67</ele>
        <time>2012-12-16T14:31:38Z</time>
      </trkpt>
      <trkpt lat="44.78389" lon="-0.32492">
        <ele>67</ele>
        <time>2012-12-16T14:31:44Z</time>
      </trkpt>
      <trkpt lat="44.78393" lon="-0.32506">
        <ele>67</ele>
        <time>2012-12-16T14:31:51Z</time>
      </trkpt>
      <trkpt lat="44.78394" lon="-0.32509">
        <ele>67</ele>
        <time>2012-12-16T14:31:52Z</time>
      </trkpt>
      <trkpt lat="44.78395" lon="-0.32511">
        <ele>68</ele>
        <time>2012-12-16T14:31:53Z</time>
      </trkpt>
      <trkpt lat="44.78403" lon="-0.32529">
        <ele>68</ele>
        <time>2012-12-16T14:31:59Z</time>
      </trkpt>
      <trkpt lat="44.78412" lon="-0.32556">
        <ele>68</ele>
        <time>2012-12-16T14:32:06Z</time>
      </trkpt>
      <trkpt lat="44.78422" lon="-0.3259">
        <ele>70</ele>
        <time>2012-12-16T14:32:14Z</time>
      </trkpt>
      <trkpt lat="44.78431" lon="-0.32615">
        <ele>71</ele>
        <time>2012-12-16T14:32:20Z</time>
      </trkpt>
      <trkpt lat="44.78438" lon="-0.32642">
        <ele>72</ele>
        <time>2012-12-16T14:32:26Z</time>
      </trkpt>
      <trkpt lat="44.78447" lon="-0.32676">
        <ele>73</ele>
        <time>2012-12-16T14:32:34Z</time>
      </trkpt>
      <trkpt lat="44.78453" lon="-0.32706">
        <ele>73</ele>
        <time>2012-12-16T14:32:41Z</time>
      </trkpt>
      <trkpt lat="44.78457" lon="-0.3273">
        <ele>74</ele>
        <time>2012-12-16T14:32:47Z</time>
      </trkpt>
      <trkpt lat="44.78463" lon="-0.32756">
        <ele>74</ele>
        <time>2012-12-16T14:32:54Z</time>
      </trkpt>
      <trkpt lat="44.78463" lon="-0.32759">
        <ele>74</ele>
        <time>2012-12-16T14:32:55Z</time>
      </trkpt>
      <trkpt lat="44.78464" lon="-0.32762">
        <ele>74</ele>
        <time>2012-12-16T14:32:56Z</time>
      </trkpt>
      <trkpt lat="44.78465" lon="-0.32765">
        <ele>74</ele>
        <time>2012-12-16T14:32:57Z</time>
      </trkpt>
      <trkpt lat="44.78465" lon="-0.32769">
        <ele>74</ele>
        <time>2012-12-16T14:32:58Z</time>
      </trkpt>
      <trkpt lat="44.78466" lon="-0.32772">
        <ele>74</ele>
        <time>2012-12-16T14:32:59Z</time>
      </trkpt>
      <trkpt lat="44.78468" lon="-0.3279">
        <ele>74</ele>
        <time>2012-12-16T14:33:05Z</time>
      </trkpt>
      <trkpt lat="44.7847" lon="-0.32814">
        <ele>74</ele>
        <time>2012-12-16T14:33:11Z</time>
      </trkpt>
      <trkpt lat="44.78473" lon="-0.32842">
        <ele>74</ele>
        <time>2012-12-16T14:33:18Z</time>
      </trkpt>
      <trkpt lat="44.78473" lon="-0.32864">
        <ele>74</ele>
        <time>2012-12-16T14:33:23Z</time>
      </trkpt>
      <trkpt lat="44.78474" lon="-0.32869">
        <ele>74</ele>
        <time>2012-12-16T14:33:24Z</time>
      </trkpt>
      <trkpt lat="44.78475" lon="-0.32873">
        <ele>74</ele>
        <time>2012-12-16T14:33:25Z</time>
      </trkpt>
      <trkpt lat="44.78476" lon="-0.32878">
        <ele>74</ele>
        <time>2012-12-16T14:33:26Z</time>
      </trkpt>
      <trkpt lat="44.78476" lon="-0.32883">
        <ele>74</ele>
        <time>2012-12-16T14:33:27Z</time>
      </trkpt>
      <trkpt lat="44.78477" lon="-0.32888">
        <ele>74</ele>
        <time>2012-12-16T14:33:28Z</time>
      </trkpt>
      <trkpt lat="44.78477" lon="-0.32893">
        <ele>74</ele>
        <time>2012-12-16T14:33:29Z</time>
      </trkpt>
      <trkpt lat="44.78477" lon="-0.32898">
        <ele>74</ele>
        <time>2012-12-16T14:33:30Z</time>
      </trkpt>
      <trkpt lat="44.78479" lon="-0.32928">
        <ele>74</ele>
        <time>2012-12-16T14:33:36Z</time>
      </trkpt>
      <trkpt lat="44.78483" lon="-0.32957">
        <ele>74</ele>
        <time>2012-12-16T14:33:42Z</time>
      </trkpt>
      <trkpt lat="44.78482" lon="-0.32996">
        <ele>74</ele>
        <time>2012-12-16T14:33:49Z</time>
      </trkpt>
      <trkpt lat="44.78482" lon="-0.33023">
        <ele>74</ele>
        <time>2012-12-16T14:33:54Z</time>
      </trkpt>
      <trkpt lat="44.78481" lon="-0.33056">
        <ele>74</ele>
        <time>2012-12-16T14:34:00Z</time>
      </trkpt>
      <trkpt lat="44.78477" lon="-0.33095">
        <ele>73</ele>
        <time>2012-12-16T14:34:07Z</time>
      </trkpt>
      <trkpt lat="44.78474" lon="-0.33127">
        <ele>73</ele>
        <time>2012-12-16T14:34:13Z</time>
      </trkpt>
      <trkpt lat="44.78474" lon="-0.33169">
        <ele>75</ele>
        <time>2012-12-16T14:34:21Z</time>
      </trkpt>
      <trkpt lat="44.78473" lon="-0.33206">
        <ele>76</ele>
        <time>2012-12-16T14:34:28Z</time>
      </trkpt>
      <trkpt lat="44.78472" lon="-0.33239">
        <ele>78</ele>
        <time>2012-12-16T14:34:34Z</time>
      </trkpt>
      <trkpt lat="44.78471" lon="-0.33265">
        <ele>79</ele>
        <time>2012-12-16T14:34:39Z</time>
      </trkpt>
      <trkpt lat="44.78469" lon="-0.3329">
        <ele>79</ele>
        <time>2012-12-16T14:34:44Z</time>
      </trkpt>
      <trkpt lat="44.78469" lon="-0.33294">
        <ele>79</ele>
        <time>2012-12-16T14:34:45Z</time>
      </trkpt>
      <trkpt lat="44.78468" lon="-0.33298">
        <ele>79</ele>
        <time>2012-12-16T14:34:46Z</time>
      </trkpt>
      <trkpt lat="44.78468" lon="-0.33303">
        <ele>79</ele>
        <time>2012-12-16T14:34:47Z</time>
      </trkpt>
      <trkpt lat="44.78468" lon="-0.33308">
        <ele>79</ele>
        <time>2012-12-16T14:34:48Z</time>
      </trkpt>
      <trkpt lat="44.78465" lon="-0.33336">
        <ele>80</ele>
        <time>2012-12-16T14:34:53Z</time>
      </trkpt>
      <trkpt lat="44.78463" lon="-0.33375">
        <ele>79</ele>
        <time>2012-12-16T14:35:00Z</time>
      </trkpt>
      <trkpt lat="44.7846" lon="-0.33416">
        <ele>79</ele>
        <time>2012-12-16T14:35:07Z</time>
      </trkpt>
      <trkpt lat="44.78455" lon="-0.33459">
        <ele>79</ele>
        <time>2012-12-16T14:35:15Z</time>
      </trkpt>
      <trkpt lat="44.78449" lon="-0.33503">
        <ele>79</ele>
        <time>2012-12-16T14:35:23Z</time>
      </trkpt>
      <trkpt lat="44.78444" lon="-0.33542">
        <ele>79</ele>
        <time>2012-12-16T14:35:30Z</time>
      </trkpt>
      <trkpt lat="44.78438" lon="-0.33574">
        <ele>80</ele>
        <time>2012-12-16T14:35:36Z</time>
      </trkpt>
      <trkpt lat="44.78429" lon="-0.33609">
        <ele>79</ele>
        <time>2012-12-16T14:35:43Z</time>
      </trkpt>
      <trkpt lat="44.78422" lon="-0.33644">
        <ele>78</ele>
        <time>2012-12-16T14:35:50Z</time>
      </trkpt>
      <trkpt lat="44.78411" lon="-0.33678">
        <ele>78</ele>
        <time>2012-12-16T14:35:57Z</time>
      </trkpt>
      <trkpt lat="44.78398" lon="-0.33718">
        <ele>79</ele>
        <time>2012-12-16T14:36:06Z</time>
      </trkpt>
      <trkpt lat="44.78397" lon="-0.33721">
        <ele>79</ele>
        <time>2012-12-16T14:36:07Z</time>
      </trkpt>
      <trkpt lat="44.78396" lon="-0.33724">
        <ele>79</ele>
        <time>2012-12-16T14:36:08Z</time>
      </trkpt>
      <trkpt lat="44.78395" lon="-0.33728">
        <ele>79</ele>
        <time>2012-12-16T14:36:09Z</time>
      </trkpt>
      <trkpt lat="44.78394" lon="-0.33732">
        <ele>79</ele>
        <time>2012-12-16T14:36:10Z</time>
      </trkpt>
      <trkpt lat="44.78392" lon="-0.33736">
        <ele>80</ele>
        <time>2012-12-16T14:36:11Z</time>
      </trkpt>
      <trkpt lat="44.78391" lon="-0.3374">
        <ele>80</ele>
        <time>2012-12-16T14:36:12Z</time>
      </trkpt>
      <trkpt lat="44.78389" lon="-0.33744">
        <ele>80</ele>
        <time>2012-12-16T14:36:13Z</time>
      </trkpt>
      <trkpt lat="44.78376" lon="-0.33777">
        <ele>82</ele>
        <time>2012-12-16T14:36:21Z</time>
      </trkpt>
      <trkpt lat="44.78367" lon="-0.338">
        <ele>84</ele>
        <time>2012-12-16T14:36:28Z</time>
      </trkpt>
      <trkpt lat="44.78357" lon="-0.33823">
        <ele>86</ele>
        <time>2012-12-16T14:36:35Z</time>
      </trkpt>
      <trkpt lat="44.78345" lon="-0.3385">
        <ele>87</ele>
        <time>2012-12-16T14:36:42Z</time>
      </trkpt>
      <trkpt lat="44.78331" lon="-0.33877">
        <ele>87</ele>
        <time>2012-12-16T14:36:48Z</time>
      </trkpt>
      <trkpt lat="44.78313" lon="-0.33907">
        <ele>87</ele>
        <time>2012-12-16T14:36:56Z</time>
      </trkpt>
      <trkpt lat="44.78294" lon="-0.3394">
        <ele>87</ele>
        <time>2012-12-16T14:37:05Z</time>
      </trkpt>
      <trkpt lat="44.78279" lon="-0.33966">
        <ele>86</ele>
        <time>2012-12-16T14:37:12Z</time>
      </trkpt>
      <trkpt lat="44.78265" lon="-0.33986">
        <ele>85</ele>
        <time>2012-12-16T14:37:18Z</time>
      </trkpt>
      <trkpt lat="44.78241" lon="-0.34019">
        <ele>85</ele>
        <time>2012-12-16T14:37:27Z</time>
      </trkpt>
      <trkpt lat="44.78221" lon="-0.34046">
        <ele>85</ele>
        <time>2012-12-16T14:37:35Z</time>
      </trkpt>
      <trkpt lat="44.78205" lon="-0.34065">
        <ele>87</ele>
        <time>2012-12-16T14:37:41Z</time>
      </trkpt>
      <trkpt lat="44.78185" lon="-0.34086">
        <ele>88</ele>
        <time>2012-12-16T14:37:49Z</time>
      </trkpt>
      <trkpt lat="44.78167" lon="-0.34108">
        <ele>89</ele>
        <time>2012-12-16T14:37:56Z</time>
      </trkpt>
      <trkpt lat="44.78147" lon="-0.34125">
        <ele>91</ele>
        <time>2012-12-16T14:38:03Z</time>
      </trkpt>
      <trkpt lat="44.78122" lon="-0.34147">
        <ele>92</ele>
        <time>2012-12-16T14:38:12Z</time>
      </trkpt>
      <trkpt lat="44.78099" lon="-0.34166">
        <ele>93</ele>
        <time>2012-12-16T14:38:20Z</time>
      </trkpt>
      <trkpt lat="44.78078" lon="-0.34183">
        <ele>94</ele>
        <time>2012-12-16T14:38:27Z</time>
      </trkpt>
      <trkpt lat="44.78061" lon="-0.34197">
        <ele>94</ele>
        <time>2012-12-16T14:38:33Z</time>
      </trkpt>
      <trkpt lat="44.78037" lon="-0.34215">
        <ele>93</ele>
        <time>2012-12-16T14:38:41Z</time>
      </trkpt>
      <trkpt lat="44.78011" lon="-0.34233">
        <ele>92</ele>
        <time>2012-12-16T14:38:49Z</time>
      </trkpt>
      <trkpt lat="44.77998" lon="-0.34241">
        <ele>92</ele>
        <time>2012-12-16T14:38:54Z</time>
      </trkpt>
      <trkpt lat="44.77981" lon="-0.34254">
        <ele>93</ele>
        <time>2012-12-16T14:39:01Z</time>
      </trkpt>
      <trkpt lat="44.77971" lon="-0.34261">
        <ele>93</ele>
        <time>2012-12-16T14:39:05Z</time>
      </trkpt>
      <trkpt lat="44.77969" lon="-0.34264">
        <ele>93</ele>
        <time>2012-12-16T14:39:06Z</time>
      </trkpt>
      <trkpt lat="44.77967" lon="-0.34266">
        <ele>93</ele>
        <time>2012-12-16T14:39:07Z</time>
      </trkpt>
      <trkpt lat="44.77964" lon="-0.34268">
        <ele>93</ele>
        <time>2012-12-16T14:39:08Z</time>
      </trkpt>
      <trkpt lat="44.77961" lon="-0.3427">
        <ele>93</ele>
        <time>2012-12-16T14:39:09Z</time>
      </trkpt>
      <trkpt lat="44.77944" lon="-0.34282">
        <ele>94</ele>
        <time>2012-12-16T14:39:15Z</time>
      </trkpt>
      <trkpt lat="44.77928" lon="-0.34292">
        <ele>94</ele>
        <time>2012-12-16T14:39:20Z</time>
      </trkpt>
      <trkpt lat="44.77907" lon="-0.34308">
        <ele>94</ele>
        <time>2012-12-16T14:39:27Z</time>
      </trkpt>
      <trkpt lat="44.77888" lon="-0.34323">
        <ele>94</ele>
        <time>2012-12-16T14:39:34Z</time>
      </trkpt>
      <trkpt lat="44.77869" lon="-0.34338">
        <ele>93</ele>
        <time>2012-12-16T14:39:40Z</time>
      </trkpt>
      <trkpt lat="44.77843" lon="-0.34359">
        <ele>93</ele>
        <time>2012-12-16T14:39:48Z</time>
      </trkpt>
      <trkpt lat="44.77821" lon="-0.34383">
        <ele>94</ele>
        <time>2012-12-16T14:39:56Z</time>
      </trkpt>
      <trkpt lat="44.77804" lon="-0.34405">
        <ele>96</ele>
        <time>2012-12-16T14:40:03Z</time>
      </trkpt>
      <trkpt lat="44.77791" lon="-0.34427">
        <ele>98</ele>
        <time>2012-12-16T14:40:09Z</time>
      </trkpt>
      <trkpt lat="44.77777" lon="-0.34449">
        <ele>100</ele>
        <time>2012-12-16T14:40:15Z</time>
      </trkpt>
      <trkpt lat="44.77764" lon="-0.34476">
        <ele>102</ele>
        <time>2012-12-16T14:40:21Z</time>
      </trkpt>
      <trkpt lat="44.77744" lon="-0.34521">
        <ele>103</ele>
        <time>2012-12-16T14:40:31Z</time>
      </trkpt>
      <trkpt lat="44.77733" lon="-0.34552">
        <ele>104</ele>
        <time>2012-12-16T14:40:38Z</time>
      </trkpt>
      <trkpt lat="44.77728" lon="-0.34574">
        <ele>104</ele>
        <time>2012-12-16T14:40:43Z</time>
      </trkpt>
      <trkpt lat="44.77719" lon="-0.34612">
        <ele>104</ele>
        <time>2012-12-16T14:40:50Z</time>
      </trkpt>
      <trkpt lat="44.7771" lon="-0.34656">
        <ele>104</ele>
        <time>2012-12-16T14:40:59Z</time>
      </trkpt>
      <trkpt lat="44.77704" lon="-0.34677">
        <ele>103</ele>
        <time>2012-12-16T14:41:05Z</time>
      </trkpt>
      <trkpt lat="44.777" lon="-0.34698">
        <ele>103</ele>
        <time>2012-12-16T14:41:10Z</time>
      </trkpt>
      <trkpt lat="44.77694" lon="-0.34722">
        <ele>102</ele>
        <time>2012-12-16T14:41:15Z</time>
      </trkpt>
      <trkpt lat="44.77689" lon="-0.34742">
        <ele>102</ele>
        <time>2012-12-16T14:41:19Z</time>
      </trkpt>
      <trkpt lat="44.77687" lon="-0.34748">
        <ele>102</ele>
        <time>2012-12-16T14:41:20Z</time>
      </trkpt>
      <trkpt lat="44.77679" lon="-0.34781">
        <ele>101</ele>
        <time>2012-12-16T14:41:26Z</time>
      </trkpt>
      <trkpt lat="44.77669" lon="-0.34823">
        <ele>100</ele>
        <time>2012-12-16T14:41:34Z</time>
      </trkpt>
      <trkpt lat="44.77665" lon="-0.34838">
        <ele>100</ele>
        <time>2012-12-16T14:41:39Z</time>
      </trkpt>
      <trkpt lat="44.77665" lon="-0.34838">
        <ele>100</ele>
        <time>2012-12-16T14:41:51Z</time>
      </trkpt>
      <trkpt lat="44.77665" lon="-0.34838">
        <ele>100</ele>
        <time>2012-12-16T14:42:05Z</time>
      </trkpt>
      <trkpt lat="44.77665" lon="-0.34838">
        <ele>100</ele>
        <time>2012-12-16T14:42:14Z</time>
      </trkpt>
      <trkpt lat="44.77665" lon="-0.34839">
        <ele>100</ele>
        <time>2012-12-16T14:42:31Z</time>
      </trkpt>
      <trkpt lat="44.77665" lon="-0.34839">
        <ele>100</ele>
        <time>2012-12-16T14:42:45Z</time>
      </trkpt>
      <trkpt lat="44.77665" lon="-0.34839">
        <ele>100</ele>
        <time>2012-12-16T14:43:01Z</time>
      </trkpt>
      <trkpt lat="44.77665" lon="-0.3484">
        <ele>100</ele>
        <time>2012-12-16T14:43:13Z</time>
      </trkpt>
      <trkpt lat="44.77665" lon="-0.34839">
        <ele>100</ele>
        <time>2012-12-16T14:43:30Z</time>
      </trkpt>
      <trkpt lat="44.77665" lon="-0.3484">
        <ele>100</ele>
        <time>2012-12-16T14:43:42Z</time>
      </trkpt>
      <trkpt lat="44.77665" lon="-0.34839">
        <ele>100</ele>
        <time>2012-12-16T14:43:55Z</time>
      </trkpt>
      <trkpt lat="44.77665" lon="-0.3484">
        <ele>100</ele>
        <time>2012-12-16T14:44:06Z</time>
      </trkpt>
      <trkpt lat="44.77665" lon="-0.3484">
        <ele>100</ele>
        <time>2012-12-16T14:44:16Z</time>
      </trkpt>
      <trkpt lat="44.77665" lon="-0.3484">
        <ele>100</ele>
        <time>2012-12-16T14:44:30Z</time>
      </trkpt>
      <trkpt lat="44.77665" lon="-0.3484">
        <ele>100</ele>
        <time>2012-12-16T14:44:42Z</time>
      </trkpt>
      <trkpt lat="44.77665" lon="-0.3484">
        <ele>100</ele>
        <time>2012-12-16T14:45:02Z</time>
      </trkpt>
      <trkpt lat="44.77665" lon="-0.3484">
        <ele>100</ele>
        <time>2012-12-16T14:45:16Z</time>
      </trkpt>
      <trkpt lat="44.77665" lon="-0.3484">
        <ele>100</ele>
        <time>2012-12-16T14:45:24Z</time>
      </trkpt>
      <trkpt lat="44.77665" lon="-0.34839">
        <ele>100</ele>
        <time>2012-12-16T14:45:37Z</time>
      </trkpt>
      <trkpt lat="44.77665" lon="-0.34839">
        <ele>100</ele>
        <time>2012-12-16T14:45:45Z</time>
      </trkpt>
      <trkpt lat="44.77665" lon="-0.34839">
        <ele>100</ele>
        <time>2012-12-16T14:45:56Z</time>
      </trkpt>
      <trkpt lat="44.77665" lon="-0.3484">
        <ele>100</ele>
        <time>2012-12-16T14:46:04Z</time>
      </trkpt>
      <trkpt lat="44.77664" lon="-0.3484">
        <ele>100</ele>
        <time>2012-12-16T14:46:08Z</time>
      </trkpt>
      <trkpt lat="44.77664" lon="-0.34842">
        <ele>100</ele>
        <time>2012-12-16T14:46:09Z</time>
      </trkpt>
      <trkpt lat="44.77664" lon="-0.34844">
        <ele>100</ele>
        <time>2012-12-16T14:46:10Z</time>
      </trkpt>
      <trkpt lat="44.77664" lon="-0.34846">
        <ele>100</ele>
        <time>2012-12-16T14:46:11Z</time>
      </trkpt>
      <trkpt lat="44.77663" lon="-0.34848">
        <ele>100</ele>
        <time>2012-12-16T14:46:12Z</time>
      </trkpt>
      <trkpt lat="44.77662" lon="-0.3485">
        <ele>100</ele>
        <time>2012-12-16T14:46:13Z</time>
      </trkpt>
      <trkpt lat="44.77662" lon="-0.34852">
        <ele>100</ele>
        <time>2012-12-16T14:46:14Z</time>
      </trkpt>
      <trkpt lat="44.77661" lon="-0.34855">
        <ele>100</ele>
        <time>2012-12-16T14:46:15Z</time>
      </trkpt>
      <trkpt lat="44.7766" lon="-0.34859">
        <ele>100</ele>
        <time>2012-12-16T14:46:16Z</time>
      </trkpt>
      <trkpt lat="44.77659" lon="-0.34862">
        <ele>100</ele>
        <time>2012-12-16T14:46:17Z</time>
      </trkpt>
      <trkpt lat="44.77658" lon="-0.34865">
        <ele>100</ele>
        <time>2012-12-16T14:46:18Z</time>
      </trkpt>
      <trkpt lat="44.77658" lon="-0.34868">
        <ele>100</ele>
        <time>2012-12-16T14:46:19Z</time>
      </trkpt>
      <trkpt lat="44.77657" lon="-0.34871">
        <ele>100</ele>
        <time>2012-12-16T14:46:20Z</time>
      </trkpt>
      <trkpt lat="44.77654" lon="-0.34889">
        <ele>99</ele>
        <time>2012-12-16T14:46:28Z</time>
      </trkpt>
      <trkpt lat="44.7765" lon="-0.34903">
        <ele>99</ele>
        <time>2012-12-16T14:46:35Z</time>
      </trkpt>
      <trkpt lat="44.77646" lon="-0.34925">
        <ele>98</ele>
        <time>2012-12-16T14:46:45Z</time>
      </trkpt>
      <trkpt lat="44.77642" lon="-0.34943">
        <ele>97</ele>
        <time>2012-12-16T14:46:51Z</time>
      </trkpt>
      <trkpt lat="44.77639" lon="-0.34967">
        <ele>97</ele>
        <time>2012-12-16T14:46:58Z</time>
      </trkpt>
      <trkpt lat="44.7764" lon="-0.34969">
        <ele>97</ele>
        <time>2012-12-16T14:46:59Z</time>
      </trkpt>
      <trkpt lat="44.77648" lon="-0.34977">
        <ele>97</ele>
        <time>2012-12-16T14:47:06Z</time>
      </trkpt>
      <trkpt lat="44.7767" lon="-0.34981">
        <ele>98</ele>
        <time>2012-12-16T14:47:14Z</time>
      </trkpt>
      <trkpt lat="44.7769" lon="-0.34993">
        <ele>99</ele>
        <time>2012-12-16T14:47:20Z</time>
      </trkpt>
      <trkpt lat="44.77714" lon="-0.35012">
        <ele>100</ele>
        <time>2012-12-16T14:47:27Z</time>
      </trkpt>
      <trkpt lat="44.77738" lon="-0.3503">
        <ele>101</ele>
        <time>2012-12-16T14:47:34Z</time>
      </trkpt>
      <trkpt lat="44.77758" lon="-0.35042">
        <ele>101</ele>
        <time>2012-12-16T14:47:41Z</time>
      </trkpt>
      <trkpt lat="44.77776" lon="-0.35034">
        <ele>101</ele>
        <time>2012-12-16T14:47:47Z</time>
      </trkpt>
      <trkpt lat="44.77801" lon="-0.35032">
        <ele>102</ele>
        <time>2012-12-16T14:47:55Z</time>
      </trkpt>
      <trkpt lat="44.77818" lon="-0.35035">
        <ele>102</ele>
        <time>2012-12-16T14:48:01Z</time>
      </trkpt>
      <trkpt lat="44.77837" lon="-0.35038">
        <ele>102</ele>
        <time>2012-12-16T14:48:07Z</time>
      </trkpt>
      <trkpt lat="44.77865" lon="-0.35045">
        <ele>102</ele>
        <time>2012-12-16T14:48:16Z</time>
      </trkpt>
      <trkpt lat="44.77888" lon="-0.35052">
        <ele>103</ele>
        <time>2012-12-16T14:48:23Z</time>
      </trkpt>
      <trkpt lat="44.77913" lon="-0.35049">
        <ele>103</ele>
        <time>2012-12-16T14:48:30Z</time>
      </trkpt>
      <trkpt lat="44.77928" lon="-0.35025">
        <ele>103</ele>
        <time>2012-12-16T14:48:36Z</time>
      </trkpt>
      <trkpt lat="44.77936" lon="-0.35005">
        <ele>103</ele>
        <time>2012-12-16T14:48:40Z</time>
      </trkpt>
      <trkpt lat="44.77939" lon="-0.35">
        <ele>103</ele>
        <time>2012-12-16T14:48:41Z</time>
      </trkpt>
      <trkpt lat="44.77942" lon="-0.34995">
        <ele>103</ele>
        <time>2012-12-16T14:48:42Z</time>
      </trkpt>
      <trkpt lat="44.77946" lon="-0.34992">
        <ele>103</ele>
        <time>2012-12-16T14:48:43Z</time>
      </trkpt>
      <trkpt lat="44.7795" lon="-0.34989">
        <ele>103</ele>
        <time>2012-12-16T14:48:44Z</time>
      </trkpt>
      <trkpt lat="44.77954" lon="-0.34986">
        <ele>103</ele>
        <time>2012-12-16T14:48:45Z</time>
      </trkpt>
      <trkpt lat="44.77963" lon="-0.34981">
        <ele>103</ele>
        <time>2012-12-16T14:48:47Z</time>
      </trkpt>
      <trkpt lat="44.77968" lon="-0.3498">
        <ele>103</ele>
        <time>2012-12-16T14:48:48Z</time>
      </trkpt>
      <trkpt lat="44.77972" lon="-0.3498">
        <ele>103</ele>
        <time>2012-12-16T14:48:49Z</time>
      </trkpt>
      <trkpt lat="44.77981" lon="-0.34978">
        <ele>103</ele>
        <time>2012-12-16T14:48:51Z</time>
      </trkpt>
      <trkpt lat="44.77986" lon="-0.34977">
        <ele>103</ele>
        <time>2012-12-16T14:48:52Z</time>
      </trkpt>
      <trkpt lat="44.78" lon="-0.34973">
        <ele>103</ele>
        <time>2012-12-16T14:48:55Z</time>
      </trkpt>
      <trkpt lat="44.78005" lon="-0.34972">
        <ele>103</ele>
        <time>2012-12-16T14:48:56Z</time>
      </trkpt>
      <trkpt lat="44.78043" lon="-0.34962">
        <ele>102</ele>
        <time>2012-12-16T14:49:03Z</time>
      </trkpt>
      <trkpt lat="44.7808" lon="-0.3495">
        <ele>101</ele>
        <time>2012-12-16T14:49:09Z</time>
      </trkpt>
      <trkpt lat="44.78108" lon="-0.34932">
        <ele>101</ele>
        <time>2012-12-16T14:49:14Z</time>
      </trkpt>
      <trkpt lat="44.78148" lon="-0.34907">
        <ele>100</ele>
        <time>2012-12-16T14:49:21Z</time>
      </trkpt>
      <trkpt lat="44.78197" lon="-0.34876">
        <ele>98</ele>
        <time>2012-12-16T14:49:29Z</time>
      </trkpt>
      <trkpt lat="44.78236" lon="-0.34846">
        <ele>97</ele>
        <time>2012-12-16T14:49:36Z</time>
      </trkpt>
      <trkpt lat="44.78241" lon="-0.34844">
        <ele>97</ele>
        <time>2012-12-16T14:49:37Z</time>
      </trkpt>
      <trkpt lat="44.78246" lon="-0.34845">
        <ele>97</ele>
        <time>2012-12-16T14:49:38Z</time>
      </trkpt>
      <trkpt lat="44.7825" lon="-0.34847">
        <ele>96</ele>
        <time>2012-12-16T14:49:39Z</time>
      </trkpt>
      <trkpt lat="44.78254" lon="-0.3485">
        <ele>96</ele>
        <time>2012-12-16T14:49:40Z</time>
      </trkpt>
      <trkpt lat="44.78257" lon="-0.34852">
        <ele>96</ele>
        <time>2012-12-16T14:49:41Z</time>
      </trkpt>
      <trkpt lat="44.78261" lon="-0.34855">
        <ele>96</ele>
        <time>2012-12-16T14:49:42Z</time>
      </trkpt>
      <trkpt lat="44.78283" lon="-0.34868">
        <ele>96</ele>
        <time>2012-12-16T14:49:50Z</time>
      </trkpt>
      <trkpt lat="44.78296" lon="-0.34877">
        <ele>96</ele>
        <time>2012-12-16T14:49:56Z</time>
      </trkpt>
      <trkpt lat="44.78316" lon="-0.3489">
        <ele>96</ele>
        <time>2012-12-16T14:50:02Z</time>
      </trkpt>
      <trkpt lat="44.78327" lon="-0.34896">
        <ele>96</ele>
        <time>2012-12-16T14:50:05Z</time>
      </trkpt>
      <trkpt lat="44.78362" lon="-0.34907">
        <ele>96</ele>
        <time>2012-12-16T14:50:14Z</time>
      </trkpt>
      <trkpt lat="44.78397" lon="-0.34917">
        <ele>96</ele>
        <time>2012-12-16T14:50:23Z</time>
      </trkpt>
      <trkpt lat="44.78406" lon="-0.3492">
        <ele>95</ele>
        <time>2012-12-16T14:50:25Z</time>
      </trkpt>
      <trkpt lat="44.7841" lon="-0.34921">
        <ele>95</ele>
        <time>2012-12-16T14:50:26Z</time>
      </trkpt>
      <trkpt lat="44.78414" lon="-0.34922">
        <ele>95</ele>
        <time>2012-12-16T14:50:27Z</time>
      </trkpt>
      <trkpt lat="44.78445" lon="-0.34934">
        <ele>93</ele>
        <time>2012-12-16T14:50:35Z</time>
      </trkpt>
      <trkpt lat="44.78465" lon="-0.34944">
        <ele>93</ele>
        <time>2012-12-16T14:50:42Z</time>
      </trkpt>
      <trkpt lat="44.78479" lon="-0.34954">
        <ele>92</ele>
        <time>2012-12-16T14:50:51Z</time>
      </trkpt>
      <trkpt lat="44.78499" lon="-0.3497">
        <ele>91</ele>
        <time>2012-12-16T14:50:58Z</time>
      </trkpt>
      <trkpt lat="44.78518" lon="-0.34991">
        <ele>89</ele>
        <time>2012-12-16T14:51:05Z</time>
      </trkpt>
      <trkpt lat="44.78535" lon="-0.35016">
        <ele>88</ele>
        <time>2012-12-16T14:51:12Z</time>
      </trkpt>
      <trkpt lat="44.78555" lon="-0.35037">
        <ele>85</ele>
        <time>2012-12-16T14:51:18Z</time>
      </trkpt>
      <trkpt lat="44.78572" lon="-0.35051">
        <ele>83</ele>
        <time>2012-12-16T14:51:24Z</time>
      </trkpt>
      <trkpt lat="44.78586" lon="-0.35064">
        <ele>81</ele>
        <time>2012-12-16T14:51:28Z</time>
      </trkpt>
      <trkpt lat="44.7859" lon="-0.35067">
        <ele>81</ele>
        <time>2012-12-16T14:51:29Z</time>
      </trkpt>
      <trkpt lat="44.78594" lon="-0.3507">
        <ele>80</ele>
        <time>2012-12-16T14:51:30Z</time>
      </trkpt>
      <trkpt lat="44.78597" lon="-0.35074">
        <ele>80</ele>
        <time>2012-12-16T14:51:31Z</time>
      </trkpt>
      <trkpt lat="44.786" lon="-0.35077">
        <ele>79</ele>
        <time>2012-12-16T14:51:32Z</time>
      </trkpt>
      <trkpt lat="44.78611" lon="-0.3509">
        <ele>77</ele>
        <time>2012-12-16T14:51:35Z</time>
      </trkpt>
      <trkpt lat="44.78616" lon="-0.35093">
        <ele>77</ele>
        <time>2012-12-16T14:51:36Z</time>
      </trkpt>
      <trkpt lat="44.7862" lon="-0.35096">
        <ele>76</ele>
        <time>2012-12-16T14:51:37Z</time>
      </trkpt>
      <trkpt lat="44.78623" lon="-0.35099">
        <ele>75</ele>
        <time>2012-12-16T14:51:38Z</time>
      </trkpt>
      <trkpt lat="44.78625" lon="-0.35101">
        <ele>75</ele>
        <time>2012-12-16T14:51:39Z</time>
      </trkpt>
      <trkpt lat="44.78626" lon="-0.35103">
        <ele>75</ele>
        <time>2012-12-16T14:51:40Z</time>
      </trkpt>
      <trkpt lat="44.78627" lon="-0.35105">
        <ele>74</ele>
        <time>2012-12-16T14:51:41Z</time>
      </trkpt>
      <trkpt lat="44.78629" lon="-0.35107">
        <ele>74</ele>
        <time>2012-12-16T14:51:42Z</time>
      </trkpt>
      <trkpt lat="44.78631" lon="-0.35109">
        <ele>74</ele>
        <time>2012-12-16T14:51:43Z</time>
      </trkpt>
      <trkpt lat="44.78633" lon="-0.3511">
        <ele>73</ele>
        <time>2012-12-16T14:51:44Z</time>
      </trkpt>
      <trkpt lat="44.78634" lon="-0.3511">
        <ele>73</ele>
        <time>2012-12-16T14:51:45Z</time>
      </trkpt>
      <trkpt lat="44.78636" lon="-0.35112">
        <ele>73</ele>
        <time>2012-12-16T14:51:46Z</time>
      </trkpt>
      <trkpt lat="44.78638" lon="-0.35114">
        <ele>73</ele>
        <time>2012-12-16T14:51:47Z</time>
      </trkpt>
      <trkpt lat="44.78639" lon="-0.35115">
        <ele>72</ele>
        <time>2012-12-16T14:51:48Z</time>
      </trkpt>
      <trkpt lat="44.78641" lon="-0.35117">
        <ele>72</ele>
        <time>2012-12-16T14:51:49Z</time>
      </trkpt>
      <trkpt lat="44.78648" lon="-0.35123">
        <ele>71</ele>
        <time>2012-12-16T14:51:54Z</time>
      </trkpt>
      <trkpt lat="44.78658" lon="-0.35131">
        <ele>70</ele>
        <time>2012-12-16T14:52:00Z</time>
      </trkpt>
      <trkpt lat="44.78666" lon="-0.35139">
        <ele>69</ele>
        <time>2012-12-16T14:52:05Z</time>
      </trkpt>
      <trkpt lat="44.78675" lon="-0.35142">
        <ele>70</ele>
        <time>2012-12-16T14:52:10Z</time>
      </trkpt>
      <trkpt lat="44.78676" lon="-0.35144">
        <ele>70</ele>
        <time>2012-12-16T14:52:11Z</time>
      </trkpt>
      <trkpt lat="44.78678" lon="-0.35145">
        <ele>70</ele>
        <time>2012-12-16T14:52:12Z</time>
      </trkpt>
      <trkpt lat="44.7868" lon="-0.35147">
        <ele>70</ele>
        <time>2012-12-16T14:52:13Z</time>
      </trkpt>
      <trkpt lat="44.78682" lon="-0.35149">
        <ele>70</ele>
        <time>2012-12-16T14:52:14Z</time>
      </trkpt>
      <trkpt lat="44.78684" lon="-0.3515">
        <ele>70</ele>
        <time>2012-12-16T14:52:15Z</time>
      </trkpt>
      <trkpt lat="44.78686" lon="-0.35152">
        <ele>70</ele>
        <time>2012-12-16T14:52:16Z</time>
      </trkpt>
      <trkpt lat="44.78687" lon="-0.35154">
        <ele>70</ele>
        <time>2012-12-16T14:52:17Z</time>
      </trkpt>
      <trkpt lat="44.78689" lon="-0.35156">
        <ele>70</ele>
        <time>2012-12-16T14:52:18Z</time>
      </trkpt>
      <trkpt lat="44.7869" lon="-0.35158">
        <ele>71</ele>
        <time>2012-12-16T14:52:19Z</time>
      </trkpt>
      <trkpt lat="44.78691" lon="-0.3516">
        <ele>71</ele>
        <time>2012-12-16T14:52:20Z</time>
      </trkpt>
      <trkpt lat="44.78692" lon="-0.35161">
        <ele>71</ele>
        <time>2012-12-16T14:52:21Z</time>
      </trkpt>
      <trkpt lat="44.78694" lon="-0.35163">
        <ele>71</ele>
        <time>2012-12-16T14:52:22Z</time>
      </trkpt>
      <trkpt lat="44.78695" lon="-0.35165">
        <ele>71</ele>
        <time>2012-12-16T14:52:23Z</time>
      </trkpt>
      <trkpt lat="44.78696" lon="-0.35167">
        <ele>71</ele>
        <time>2012-12-16T14:52:24Z</time>
      </trkpt>
      <trkpt lat="44.78698" lon="-0.35168">
        <ele>71</ele>
        <time>2012-12-16T14:52:25Z</time>
      </trkpt>
      <trkpt lat="44.78704" lon="-0.35178">
        <ele>72</ele>
        <time>2012-12-16T14:52:31Z</time>
      </trkpt>
      <trkpt lat="44.78713" lon="-0.35191">
        <ele>73</ele>
        <time>2012-12-16T14:52:39Z</time>
      </trkpt>
      <trkpt lat="44.78724" lon="-0.35208">
        <ele>76</ele>
        <time>2012-12-16T14:52:49Z</time>
      </trkpt>
      <trkpt lat="44.78737" lon="-0.35219">
        <ele>79</ele>
        <time>2012-12-16T14:52:58Z</time>
      </trkpt>
      <trkpt lat="44.78749" lon="-0.35228">
        <ele>81</ele>
        <time>2012-12-16T14:53:06Z</time>
      </trkpt>
      <trkpt lat="44.7876" lon="-0.3524">
        <ele>82</ele>
        <time>2012-12-16T14:53:14Z</time>
      </trkpt>
      <trkpt lat="44.78771" lon="-0.35253">
        <ele>83</ele>
        <time>2012-12-16T14:53:24Z</time>
      </trkpt>
      <trkpt lat="44.78779" lon="-0.35261">
        <ele>84</ele>
        <time>2012-12-16T14:53:31Z</time>
      </trkpt>
      <trkpt lat="44.78785" lon="-0.3527">
        <ele>85</ele>
        <time>2012-12-16T14:53:38Z</time>
      </trkpt>
      <trkpt lat="44.78794" lon="-0.3528">
        <ele>86</ele>
        <time>2012-12-16T14:53:46Z</time>
      </trkpt>
      <trkpt lat="44.78804" lon="-0.35288">
        <ele>87</ele>
        <time>2012-12-16T14:53:53Z</time>
      </trkpt>
      <trkpt lat="44.78805" lon="-0.3529">
        <ele>87</ele>
        <time>2012-12-16T14:53:54Z</time>
      </trkpt>
      <trkpt lat="44.78815" lon="-0.35302">
        <ele>88</ele>
        <time>2012-12-16T14:54:02Z</time>
      </trkpt>
      <trkpt lat="44.78818" lon="-0.35307">
        <ele>88</ele>
        <time>2012-12-16T14:54:09Z</time>
      </trkpt>
      <trkpt lat="44.78818" lon="-0.35308">
        <ele>88</ele>
        <time>2012-12-16T14:54:17Z</time>
      </trkpt>
      <trkpt lat="44.78817" lon="-0.35309">
        <ele>88</ele>
        <time>2012-12-16T14:54:34Z</time>
      </trkpt>
      <trkpt lat="44.78818" lon="-0.35309">
        <ele>88</ele>
        <time>2012-12-16T14:54:45Z</time>
      </trkpt>
      <trkpt lat="44.78819" lon="-0.35312">
        <ele>88</ele>
        <time>2012-12-16T14:54:52Z</time>
      </trkpt>
      <trkpt lat="44.7882" lon="-0.35313">
        <ele>88</ele>
        <time>2012-12-16T14:54:53Z</time>
      </trkpt>
      <trkpt lat="44.78821" lon="-0.35314">
        <ele>88</ele>
        <time>2012-12-16T14:54:54Z</time>
      </trkpt>
      <trkpt lat="44.78822" lon="-0.35316">
        <ele>88</ele>
        <time>2012-12-16T14:54:55Z</time>
      </trkpt>
      <trkpt lat="44.78823" lon="-0.35317">
        <ele>88</ele>
        <time>2012-12-16T14:54:56Z</time>
      </trkpt>
      <trkpt lat="44.78824" lon="-0.35319">
        <ele>88</ele>
        <time>2012-12-16T14:54:57Z</time>
      </trkpt>
      <trkpt lat="44.78824" lon="-0.35321">
        <ele>88</ele>
        <time>2012-12-16T14:54:58Z</time>
      </trkpt>
      <trkpt lat="44.78825" lon="-0.35323">
        <ele>88</ele>
        <time>2012-12-16T14:54:59Z</time>
      </trkpt>
      <trkpt lat="44.78832" lon="-0.3534">
        <ele>89</ele>
        <time>2012-12-16T14:55:07Z</time>
      </trkpt>
      <trkpt lat="44.78837" lon="-0.35357">
        <ele>90</ele>
        <time>2012-12-16T14:55:14Z</time>
      </trkpt>
      <trkpt lat="44.78844" lon="-0.3537">
        <ele>90</ele>
        <time>2012-12-16T14:55:19Z</time>
      </trkpt>
      <trkpt lat="44.78845" lon="-0.35371">
        <ele>91</ele>
        <time>2012-12-16T14:55:20Z</time>
      </trkpt>
      <trkpt lat="44.78846" lon="-0.35373">
        <ele>91</ele>
        <time>2012-12-16T14:55:21Z</time>
      </trkpt>
      <trkpt lat="44.78852" lon="-0.35383">
        <ele>91</ele>
        <time>2012-12-16T14:55:28Z</time>
      </trkpt>
      <trkpt lat="44.78853" lon="-0.35385">
        <ele>91</ele>
        <time>2012-12-16T14:55:29Z</time>
      </trkpt>
      <trkpt lat="44.78866" lon="-0.354">
        <ele>92</ele>
        <time>2012-12-16T14:55:37Z</time>
      </trkpt>
      <trkpt lat="44.78879" lon="-0.35411">
        <ele>93</ele>
        <time>2012-12-16T14:55:44Z</time>
      </trkpt>
      <trkpt lat="44.78895" lon="-0.35421">
        <ele>94</ele>
        <time>2012-12-16T14:55:51Z</time>
      </trkpt>
      <trkpt lat="44.7891" lon="-0.35423">
        <ele>95</ele>
        <time>2012-12-16T14:55:58Z</time>
      </trkpt>
      <trkpt lat="44.78918" lon="-0.35412">
        <ele>95</ele>
        <time>2012-12-16T14:56:03Z</time>
      </trkpt>
      <trkpt lat="44.78922" lon="-0.35404">
        <ele>95</ele>
        <time>2012-12-16T14:56:07Z</time>
      </trkpt>
      <trkpt lat="44.78927" lon="-0.354">
        <ele>96</ele>
        <time>2012-12-16T14:56:14Z</time>
      </trkpt>
      <trkpt lat="44.78927" lon="-0.354">
        <ele>96</ele>
        <time>2012-12-16T14:56:15Z</time>
      </trkpt>
      <trkpt lat="44.78931" lon="-0.35393">
        <ele>96</ele>
        <time>2012-12-16T14:56:22Z</time>
      </trkpt>
      <trkpt lat="44.78932" lon="-0.35392">
        <ele>96</ele>
        <time>2012-12-16T14:56:28Z</time>
      </trkpt>
      <trkpt lat="44.78933" lon="-0.35392">
        <ele>96</ele>
        <time>2012-12-16T14:56:39Z</time>
      </trkpt>
      <trkpt lat="44.78932" lon="-0.35392">
        <ele>96</ele>
        <time>2012-12-16T14:56:56Z</time>
      </trkpt>
      <trkpt lat="44.78932" lon="-0.35391">
        <ele>96</ele>
        <time>2012-12-16T14:57:07Z</time>
      </trkpt>
      <trkpt lat="44.78932" lon="-0.35391">
        <ele>96</ele>
        <time>2012-12-16T14:57:18Z</time>
      </trkpt>
      <trkpt lat="44.78932" lon="-0.35391">
        <ele>96</ele>
        <time>2012-12-16T14:57:35Z</time>
      </trkpt>
      <trkpt lat="44.78934" lon="-0.35395">
        <ele>96</ele>
        <time>2012-12-16T14:57:39Z</time>
      </trkpt>
      <trkpt lat="44.78943" lon="-0.35408">
        <ele>96</ele>
        <time>2012-12-16T14:57:50Z</time>
      </trkpt>
      <trkpt lat="44.78958" lon="-0.35429">
        <ele>96</ele>
        <time>2012-12-16T14:57:58Z</time>
      </trkpt>
      <trkpt lat="44.78973" lon="-0.35452">
        <ele>96</ele>
        <time>2012-12-16T14:58:06Z</time>
      </trkpt>
      <trkpt lat="44.78983" lon="-0.3547">
        <ele>96</ele>
        <time>2012-12-16T14:58:12Z</time>
      </trkpt>
      <trkpt lat="44.78994" lon="-0.35491">
        <ele>96</ele>
        <time>2012-12-16T14:58:19Z</time>
      </trkpt>
      <trkpt lat="44.79011" lon="-0.35512">
        <ele>97</ele>
        <time>2012-12-16T14:58:27Z</time>
      </trkpt>
      <trkpt lat="44.79023" lon="-0.35526">
        <ele>97</ele>
        <time>2012-12-16T14:58:34Z</time>
      </trkpt>
      <trkpt lat="44.79034" lon="-0.35543">
        <ele>98</ele>
        <time>2012-12-16T14:58:42Z</time>
      </trkpt>
      <trkpt lat="44.79044" lon="-0.35558">
        <ele>98</ele>
        <time>2012-12-16T14:58:50Z</time>
      </trkpt>
      <trkpt lat="44.79046" lon="-0.35564">
        <ele>98</ele>
        <time>2012-12-16T14:58:53Z</time>
      </trkpt>
      <trkpt lat="44.79041" lon="-0.35573">
        <ele>98</ele>
        <time>2012-12-16T14:59:00Z</time>
      </trkpt>
      <trkpt lat="44.7903" lon="-0.35581">
        <ele>98</ele>
        <time>2012-12-16T14:59:07Z</time>
      </trkpt>
      <trkpt lat="44.79021" lon="-0.35594">
        <ele>98</ele>
        <time>2012-12-16T14:59:13Z</time>
      </trkpt>
      <trkpt lat="44.79006" lon="-0.3561">
        <ele>98</ele>
        <time>2012-12-16T14:59:21Z</time>
      </trkpt>
      <trkpt lat="44.78993" lon="-0.3563">
        <ele>98</ele>
        <time>2012-12-16T14:59:27Z</time>
      </trkpt>
      <trkpt lat="44.78984" lon="-0.35643">
        <ele>98</ele>
        <time>2012-12-16T14:59:30Z</time>
      </trkpt>
      <trkpt lat="44.78962" lon="-0.35666">
        <ele>99</ele>
        <time>2012-12-16T14:59:38Z</time>
      </trkpt>
      <trkpt lat="44.78945" lon="-0.35687">
        <ele>99</ele>
        <time>2012-12-16T14:59:45Z</time>
      </trkpt>
      <trkpt lat="44.78925" lon="-0.35711">
        <ele>99</ele>
        <time>2012-12-16T14:59:53Z</time>
      </trkpt>
      <trkpt lat="44.78907" lon="-0.35734">
        <ele>99</ele>
        <time>2012-12-16T15:00:00Z</time>
      </trkpt>
      <trkpt lat="44.78884" lon="-0.3576">
        <ele>98</ele>
        <time>2012-12-16T15:00:08Z</time>
      </trkpt>
      <trkpt lat="44.78864" lon="-0.35787">
        <ele>98</ele>
        <time>2012-12-16T15:00:16Z</time>
      </trkpt>
      <trkpt lat="44.78839" lon="-0.35816">
        <ele>97</ele>
        <time>2012-12-16T15:00:25Z</time>
      </trkpt>
      <trkpt lat="44.78816" lon="-0.35843">
        <ele>97</ele>
        <time>2012-12-16T15:00:33Z</time>
      </trkpt>
      <trkpt lat="44.78796" lon="-0.35869">
        <ele>97</ele>
        <time>2012-12-16T15:00:40Z</time>
      </trkpt>
      <trkpt lat="44.78782" lon="-0.35891">
        <ele>97</ele>
        <time>2012-12-16T15:00:46Z</time>
      </trkpt>
      <trkpt lat="44.78769" lon="-0.35909">
        <ele>97</ele>
        <time>2012-12-16T15:00:52Z</time>
      </trkpt>
      <trkpt lat="44.78769" lon="-0.35914">
        <ele>97</ele>
        <time>2012-12-16T15:00:53Z</time>
      </trkpt>
      <trkpt lat="44.7877" lon="-0.35918">
        <ele>97</ele>
        <time>2012-12-16T15:00:54Z</time>
      </trkpt>
      <trkpt lat="44.78773" lon="-0.3592">
        <ele>97</ele>
        <time>2012-12-16T15:00:55Z</time>
      </trkpt>
      <trkpt lat="44.78776" lon="-0.35921">
        <ele>97</ele>
        <time>2012-12-16T15:00:56Z</time>
      </trkpt>
      <trkpt lat="44.7878" lon="-0.35922">
        <ele>97</ele>
        <time>2012-12-16T15:00:57Z</time>
      </trkpt>
      <trkpt lat="44.78784" lon="-0.35922">
        <ele>97</ele>
        <time>2012-12-16T15:00:58Z</time>
      </trkpt>
      <trkpt lat="44.78816" lon="-0.35923">
        <ele>97</ele>
        <time>2012-12-16T15:01:06Z</time>
      </trkpt>
      <trkpt lat="44.78854" lon="-0.35928">
        <ele>97</ele>
        <time>2012-12-16T15:01:15Z</time>
      </trkpt>
      <trkpt lat="44.78899" lon="-0.35934">
        <ele>97</ele>
        <time>2012-12-16T15:01:25Z</time>
      </trkpt>
      <trkpt lat="44.78955" lon="-0.3594">
        <ele>97</ele>
        <time>2012-12-16T15:01:37Z</time>
      </trkpt>
      <trkpt lat="44.78973" lon="-0.35944">
        <ele>97</ele>
        <time>2012-12-16T15:01:41Z</time>
      </trkpt>
      <trkpt lat="44.78977" lon="-0.35944">
        <ele>97</ele>
        <time>2012-12-16T15:01:42Z</time>
      </trkpt>
      <trkpt lat="44.78981" lon="-0.35945">
        <ele>97</ele>
        <time>2012-12-16T15:01:43Z</time>
      </trkpt>
      <trkpt lat="44.78985" lon="-0.35945">
        <ele>97</ele>
        <time>2012-12-16T15:01:44Z</time>
      </trkpt>
      <trkpt lat="44.7899" lon="-0.35946">
        <ele>97</ele>
        <time>2012-12-16T15:01:45Z</time>
      </trkpt>
      <trkpt lat="44.78993" lon="-0.35947">
        <ele>97</ele>
        <time>2012-12-16T15:01:46Z</time>
      </trkpt>
      <trkpt lat="44.79016" lon="-0.35954">
        <ele>97</ele>
        <time>2012-12-16T15:01:53Z</time>
      </trkpt>
      <trkpt lat="44.79016" lon="-0.35959">
        <ele>97</ele>
        <time>2012-12-16T15:01:54Z</time>
      </trkpt>
      <trkpt lat="44.79017" lon="-0.35964">
        <ele>96</ele>
        <time>2012-12-16T15:01:55Z</time>
      </trkpt>
      <trkpt lat="44.79016" lon="-0.35969">
        <ele>96</ele>
        <time>2012-12-16T15:01:56Z</time>
      </trkpt>
      <trkpt lat="44.79016" lon="-0.35974">
        <ele>96</ele>
        <time>2012-12-16T15:01:57Z</time>
      </trkpt>
      <trkpt lat="44.79014" lon="-0.36012">
        <ele>95</ele>
        <time>2012-12-16T15:02:03Z</time>
      </trkpt>
      <trkpt lat="44.79012" lon="-0.36056">
        <ele>95</ele>
        <time>2012-12-16T15:02:08Z</time>
      </trkpt>
      <trkpt lat="44.79011" lon="-0.36064">
        <ele>95</ele>
        <time>2012-12-16T15:02:09Z</time>
      </trkpt>
      <trkpt lat="44.79012" lon="-0.36072">
        <ele>95</ele>
        <time>2012-12-16T15:02:10Z</time>
      </trkpt>
      <trkpt lat="44.79014" lon="-0.3608">
        <ele>95</ele>
        <time>2012-12-16T15:02:11Z</time>
      </trkpt>
      <trkpt lat="44.79016" lon="-0.36087">
        <ele>95</ele>
        <time>2012-12-16T15:02:12Z</time>
      </trkpt>
      <trkpt lat="44.79019" lon="-0.36093">
        <ele>94</ele>
        <time>2012-12-16T15:02:13Z</time>
      </trkpt>
      <trkpt lat="44.79031" lon="-0.36124">
        <ele>92</ele>
        <time>2012-12-16T15:02:18Z</time>
      </trkpt>
      <trkpt lat="44.7905" lon="-0.36173">
        <ele>92</ele>
        <time>2012-12-16T15:02:25Z</time>
      </trkpt>
      <trkpt lat="44.79064" lon="-0.36219">
        <ele>91</ele>
        <time>2012-12-16T15:02:31Z</time>
      </trkpt>
      <trkpt lat="44.79068" lon="-0.36235">
        <ele>90</ele>
        <time>2012-12-16T15:02:33Z</time>
      </trkpt>
      <trkpt lat="44.79069" lon="-0.36244">
        <ele>90</ele>
        <time>2012-12-16T15:02:34Z</time>
      </trkpt>
      <trkpt lat="44.7907" lon="-0.36267">
        <ele>90</ele>
        <time>2012-12-16T15:02:37Z</time>
      </trkpt>
      <trkpt lat="44.7907" lon="-0.36275">
        <ele>90</ele>
        <time>2012-12-16T15:02:38Z</time>
      </trkpt>
      <trkpt lat="44.79076" lon="-0.36345">
        <ele>89</ele>
        <time>2012-12-16T15:02:47Z</time>
      </trkpt>
      <trkpt lat="44.79079" lon="-0.3636">
        <ele>88</ele>
        <time>2012-12-16T15:02:49Z</time>
      </trkpt>
      <trkpt lat="44.79081" lon="-0.36367">
        <ele>88</ele>
        <time>2012-12-16T15:02:50Z</time>
      </trkpt>
      <trkpt lat="44.79101" lon="-0.36415">
        <ele>87</ele>
        <time>2012-12-16T15:02:58Z</time>
      </trkpt>
      <trkpt lat="44.79103" lon="-0.3642">
        <ele>87</ele>
        <time>2012-12-16T15:02:59Z</time>
      </trkpt>
      <trkpt lat="44.7911" lon="-0.36435">
        <ele>87</ele>
        <time>2012-12-16T15:03:02Z</time>
      </trkpt>
      <trkpt lat="44.79114" lon="-0.36446">
        <ele>87</ele>
        <time>2012-12-16T15:03:04Z</time>
      </trkpt>
      <trkpt lat="44.79119" lon="-0.36459">
        <ele>88</ele>
        <time>2012-12-16T15:03:06Z</time>
      </trkpt>
      <trkpt lat="44.79121" lon="-0.36464">
        <ele>88</ele>
        <time>2012-12-16T15:03:07Z</time>
      </trkpt>
      <trkpt lat="44.79128" lon="-0.3649">
        <ele>89</ele>
        <time>2012-12-16T15:03:12Z</time>
      </trkpt>
      <trkpt lat="44.79127" lon="-0.36495">
        <ele>89</ele>
        <time>2012-12-16T15:03:13Z</time>
      </trkpt>
      <trkpt lat="44.79126" lon="-0.36499">
        <ele>90</ele>
        <time>2012-12-16T15:03:14Z</time>
      </trkpt>
      <trkpt lat="44.79123" lon="-0.36503">
        <ele>90</ele>
        <time>2012-12-16T15:03:15Z</time>
      </trkpt>
      <trkpt lat="44.7912" lon="-0.36506">
        <ele>91</ele>
        <time>2012-12-16T15:03:16Z</time>
      </trkpt>
      <trkpt lat="44.79118" lon="-0.36509">
        <ele>91</ele>
        <time>2012-12-16T15:03:17Z</time>
      </trkpt>
      <trkpt lat="44.79107" lon="-0.36521">
        <ele>93</ele>
        <time>2012-12-16T15:03:22Z</time>
      </trkpt>
      <trkpt lat="44.79096" lon="-0.36535">
        <ele>95</ele>
        <time>2012-12-16T15:03:27Z</time>
      </trkpt>
      <trkpt lat="44.79082" lon="-0.36558">
        <ele>97</ele>
        <time>2012-12-16T15:03:34Z</time>
      </trkpt>
      <trkpt lat="44.79068" lon="-0.36575">
        <ele>97</ele>
        <time>2012-12-16T15:03:40Z</time>
      </trkpt>
      <trkpt lat="44.79047" lon="-0.366">
        <ele>96</ele>
        <time>2012-12-16T15:03:48Z</time>
      </trkpt>
      <trkpt lat="44.79022" lon="-0.36625">
        <ele>95</ele>
        <time>2012-12-16T15:03:56Z</time>
      </trkpt>
      <trkpt lat="44.79009" lon="-0.36638">
        <ele>95</ele>
        <time>2012-12-16T15:04:00Z</time>
      </trkpt>
      <trkpt lat="44.79006" lon="-0.36642">
        <ele>95</ele>
        <time>2012-12-16T15:04:01Z</time>
      </trkpt>
      <trkpt lat="44.78976" lon="-0.36673">
        <ele>94</ele>
        <time>2012-12-16T15:04:10Z</time>
      </trkpt>
      <trkpt lat="44.78965" lon="-0.36684">
        <ele>94</ele>
        <time>2012-12-16T15:04:13Z</time>
      </trkpt>
      <trkpt lat="44.78951" lon="-0.36701">
        <ele>94</ele>
        <time>2012-12-16T15:04:17Z</time>
      </trkpt>
      <trkpt lat="44.78947" lon="-0.36705">
        <ele>94</ele>
        <time>2012-12-16T15:04:18Z</time>
      </trkpt>
      <trkpt lat="44.78932" lon="-0.36722">
        <ele>94</ele>
        <time>2012-12-16T15:04:22Z</time>
      </trkpt>
      <trkpt lat="44.78929" lon="-0.36726">
        <ele>94</ele>
        <time>2012-12-16T15:04:23Z</time>
      </trkpt>
      <trkpt lat="44.78923" lon="-0.36735">
        <ele>94</ele>
        <time>2012-12-16T15:04:25Z</time>
      </trkpt>
      <trkpt lat="44.7892" lon="-0.36739">
        <ele>94</ele>
        <time>2012-12-16T15:04:26Z</time>
      </trkpt>
      <trkpt lat="44.78911" lon="-0.36752">
        <ele>94</ele>
        <time>2012-12-16T15:04:29Z</time>
      </trkpt>
      <trkpt lat="44.78908" lon="-0.36756">
        <ele>93</ele>
        <time>2012-12-16T15:04:30Z</time>
      </trkpt>
      <trkpt lat="44.78892" lon="-0.36776">
        <ele>92</ele>
        <time>2012-12-16T15:04:37Z</time>
      </trkpt>
      <trkpt lat="44.7889" lon="-0.36779">
        <ele>91</ele>
        <time>2012-12-16T15:04:43Z</time>
      </trkpt>
      <trkpt lat="44.78889" lon="-0.3678">
        <ele>91</ele>
        <time>2012-12-16T15:04:44Z</time>
      </trkpt>
      <trkpt lat="44.78888" lon="-0.36782">
        <ele>91</ele>
        <time>2012-12-16T15:04:49Z</time>
      </trkpt>
      <trkpt lat="44.78888" lon="-0.36785">
        <ele>91</ele>
        <time>2012-12-16T15:04:56Z</time>
      </trkpt>
      <trkpt lat="44.78888" lon="-0.36788">
        <ele>90</ele>
        <time>2012-12-16T15:05:01Z</time>
      </trkpt>
      <trkpt lat="44.78888" lon="-0.36788">
        <ele>90</ele>
        <time>2012-12-16T15:05:09Z</time>
      </trkpt>
      <trkpt lat="44.78887" lon="-0.36788">
        <ele>90</ele>
        <time>2012-12-16T15:05:25Z</time>
      </trkpt>
      <trkpt lat="44.78887" lon="-0.36791">
        <ele>90</ele>
        <time>2012-12-16T15:05:35Z</time>
      </trkpt>
      <trkpt lat="44.78889" lon="-0.36802">
        <ele>89</ele>
        <time>2012-12-16T15:05:38Z</time>
      </trkpt>
      <trkpt lat="44.78891" lon="-0.36806">
        <ele>89</ele>
        <time>2012-12-16T15:05:39Z</time>
      </trkpt>
      <trkpt lat="44.78895" lon="-0.36811">
        <ele>89</ele>
        <time>2012-12-16T15:05:40Z</time>
      </trkpt>
      <trkpt lat="44.7891" lon="-0.36829">
        <ele>87</ele>
        <time>2012-12-16T15:05:45Z</time>
      </trkpt>
      <trkpt lat="44.78913" lon="-0.36832">
        <ele>87</ele>
        <time>2012-12-16T15:05:46Z</time>
      </trkpt>
      <trkpt lat="44.78917" lon="-0.36835">
        <ele>86</ele>
        <time>2012-12-16T15:05:47Z</time>
      </trkpt>
      <trkpt lat="44.78934" lon="-0.36854">
        <ele>84</ele>
        <time>2012-12-16T15:05:53Z</time>
      </trkpt>
      <trkpt lat="44.78937" lon="-0.36857">
        <ele>84</ele>
        <time>2012-12-16T15:05:54Z</time>
      </trkpt>
      <trkpt lat="44.78936" lon="-0.36874">
        <ele>81</ele>
        <time>2012-12-16T15:06:00Z</time>
      </trkpt>
      <trkpt lat="44.7893" lon="-0.36886">
        <ele>80</ele>
        <time>2012-12-16T15:06:04Z</time>
      </trkpt>
      <trkpt lat="44.78929" lon="-0.36889">
        <ele>80</ele>
        <time>2012-12-16T15:06:06Z</time>
      </trkpt>
      <trkpt lat="44.78927" lon="-0.36902">
        <ele>79</ele>
        <time>2012-12-16T15:06:12Z</time>
      </trkpt>
      <trkpt lat="44.78926" lon="-0.36904">
        <ele>79</ele>
        <time>2012-12-16T15:06:13Z</time>
      </trkpt>
      <trkpt lat="44.78919" lon="-0.36914">
        <ele>78</ele>
        <time>2012-12-16T15:06:20Z</time>
      </trkpt>
      <trkpt lat="44.78916" lon="-0.36919">
        <ele>78</ele>
        <time>2012-12-16T15:06:25Z</time>
      </trkpt>
      <trkpt lat="44.78915" lon="-0.36921">
        <ele>77</ele>
        <time>2012-12-16T15:06:31Z</time>
      </trkpt>
      <trkpt lat="44.78914" lon="-0.36924">
        <ele>77</ele>
        <time>2012-12-16T15:06:37Z</time>
      </trkpt>
      <trkpt lat="44.78912" lon="-0.36924">
        <ele>77</ele>
        <time>2012-12-16T15:06:46Z</time>
      </trkpt>
      <trkpt lat="44.78911" lon="-0.36925">
        <ele>77</ele>
        <time>2012-12-16T15:07:00Z</time>
      </trkpt>
      <trkpt lat="44.78911" lon="-0.36926">
        <ele>77</ele>
        <time>2012-12-16T15:07:10Z</time>
      </trkpt>
      <trkpt lat="44.7891" lon="-0.36927">
        <ele>77</ele>
        <time>2012-12-16T15:07:19Z</time>
      </trkpt>
      <trkpt lat="44.78909" lon="-0.36929">
        <ele>77</ele>
        <time>2012-12-16T15:07:28Z</time>
      </trkpt>
      <trkpt lat="44.78908" lon="-0.36932">
        <ele>77</ele>
        <time>2012-12-16T15:07:40Z</time>
      </trkpt>
      <trkpt lat="44.78907" lon="-0.36934">
        <ele>77</ele>
        <time>2012-12-16T15:07:44Z</time>
      </trkpt>
      <trkpt lat="44.78902" lon="-0.36945">
        <ele>77</ele>
        <time>2012-12-16T15:07:51Z</time>
      </trkpt>
      <trkpt lat="44.78901" lon="-0.36948">
        <ele>77</ele>
        <time>2012-12-16T15:07:58Z</time>
      </trkpt>
      <trkpt lat="44.78899" lon="-0.36952">
        <ele>78</ele>
        <time>2012-12-16T15:08:05Z</time>
      </trkpt>
      <trkpt lat="44.78899" lon="-0.36956">
        <ele>78</ele>
        <time>2012-12-16T15:08:13Z</time>
      </trkpt>
      <trkpt lat="44.789" lon="-0.36957">
        <ele>78</ele>
        <time>2012-12-16T15:08:21Z</time>
      </trkpt>
      <trkpt lat="44.78899" lon="-0.36961">
        <ele>78</ele>
        <time>2012-12-16T15:08:26Z</time>
      </trkpt>
      <trkpt lat="44.78897" lon="-0.36971">
        <ele>79</ele>
        <time>2012-12-16T15:08:33Z</time>
      </trkpt>
      <trkpt lat="44.78896" lon="-0.36978">
        <ele>80</ele>
        <time>2012-12-16T15:08:40Z</time>
      </trkpt>
      <trkpt lat="44.78895" lon="-0.36982">
        <ele>80</ele>
        <time>2012-12-16T15:08:45Z</time>
      </trkpt>
      <trkpt lat="44.78892" lon="-0.36987">
        <ele>81</ele>
        <time>2012-12-16T15:08:53Z</time>
      </trkpt>
      <trkpt lat="44.78892" lon="-0.36989">
        <ele>81</ele>
        <time>2012-12-16T15:08:54Z</time>
      </trkpt>
      <trkpt lat="44.78887" lon="-0.37003">
        <ele>83</ele>
        <time>2012-12-16T15:09:01Z</time>
      </trkpt>
      <trkpt lat="44.78884" lon="-0.37009">
        <ele>83</ele>
        <time>2012-12-16T15:09:03Z</time>
      </trkpt>
      <trkpt lat="44.78874" lon="-0.37034">
        <ele>84</ele>
        <time>2012-12-16T15:09:11Z</time>
      </trkpt>
      <trkpt lat="44.78865" lon="-0.37054">
        <ele>85</ele>
        <time>2012-12-16T15:09:18Z</time>
      </trkpt>
      <trkpt lat="44.78854" lon="-0.37074">
        <ele>86</ele>
        <time>2012-12-16T15:09:25Z</time>
      </trkpt>
      <trkpt lat="44.78847" lon="-0.37088">
        <ele>87</ele>
        <time>2012-12-16T15:09:31Z</time>
      </trkpt>
      <trkpt lat="44.78842" lon="-0.37097">
        <ele>87</ele>
        <time>2012-12-16T15:09:36Z</time>
      </trkpt>
      <trkpt lat="44.7884" lon="-0.37101">
        <ele>87</ele>
        <time>2012-12-16T15:09:42Z</time>
      </trkpt>
      <trkpt lat="44.7884" lon="-0.37103">
        <ele>87</ele>
        <time>2012-12-16T15:09:48Z</time>
      </trkpt>
      <trkpt lat="44.78839" lon="-0.37103">
        <ele>87</ele>
        <time>2012-12-16T15:09:53Z</time>
      </trkpt>
      <trkpt lat="44.78834" lon="-0.37105">
        <ele>87</ele>
        <time>2012-12-16T15:09:58Z</time>
      </trkpt>
      <trkpt lat="44.78832" lon="-0.37107">
        <ele>87</ele>
        <time>2012-12-16T15:10:06Z</time>
      </trkpt>
      <trkpt lat="44.78827" lon="-0.37112">
        <ele>87</ele>
        <time>2012-12-16T15:10:15Z</time>
      </trkpt>
      <trkpt lat="44.78827" lon="-0.37112">
        <ele>87</ele>
        <time>2012-12-16T15:10:18Z</time>
      </trkpt>
      <trkpt lat="44.7882" lon="-0.37118">
        <ele>87</ele>
        <time>2012-12-16T15:10:23Z</time>
      </trkpt>
      <trkpt lat="44.78804" lon="-0.3713">
        <ele>88</ele>
        <time>2012-12-16T15:10:31Z</time>
      </trkpt>
      <trkpt lat="44.78793" lon="-0.3714">
        <ele>88</ele>
        <time>2012-12-16T15:10:36Z</time>
      </trkpt>
      <trkpt lat="44.78776" lon="-0.37153">
        <ele>88</ele>
        <time>2012-12-16T15:10:43Z</time>
      </trkpt>
      <trkpt lat="44.78768" lon="-0.37158">
        <ele>87</ele>
        <time>2012-12-16T15:10:47Z</time>
      </trkpt>
      <trkpt lat="44.78753" lon="-0.37169">
        <ele>87</ele>
        <time>2012-12-16T15:10:54Z</time>
      </trkpt>
      <trkpt lat="44.78746" lon="-0.37173">
        <ele>87</ele>
        <time>2012-12-16T15:10:58Z</time>
      </trkpt>
      <trkpt lat="44.78739" lon="-0.37193">
        <ele>87</ele>
        <time>2012-12-16T15:11:05Z</time>
      </trkpt>
      <trkpt lat="44.78739" lon="-0.37216">
        <ele>86</ele>
        <time>2012-12-16T15:11:11Z</time>
      </trkpt>
      <trkpt lat="44.78734" lon="-0.37229">
        <ele>87</ele>
        <time>2012-12-16T15:11:16Z</time>
      </trkpt>
      <trkpt lat="44.78731" lon="-0.37231">
        <ele>87</ele>
        <time>2012-12-16T15:11:17Z</time>
      </trkpt>
      <trkpt lat="44.78704" lon="-0.37245">
        <ele>89</ele>
        <time>2012-12-16T15:11:26Z</time>
      </trkpt>
      <trkpt lat="44.78701" lon="-0.37246">
        <ele>89</ele>
        <time>2012-12-16T15:11:27Z</time>
      </trkpt>
      <trkpt lat="44.78686" lon="-0.37258">
        <ele>91</ele>
        <time>2012-12-16T15:11:34Z</time>
      </trkpt>
      <trkpt lat="44.78674" lon="-0.37268">
        <ele>92</ele>
        <time>2012-12-16T15:11:39Z</time>
      </trkpt>
      <trkpt lat="44.78664" lon="-0.37276">
        <ele>93</ele>
        <time>2012-12-16T15:11:44Z</time>
      </trkpt>
      <trkpt lat="44.78664" lon="-0.37277">
        <ele>93</ele>
        <time>2012-12-16T15:11:45Z</time>
      </trkpt>
      <trkpt lat="44.78659" lon="-0.37277">
        <ele>93</ele>
        <time>2012-12-16T15:11:49Z</time>
      </trkpt>
      <trkpt lat="44.78662" lon="-0.37275">
        <ele>93</ele>
        <time>2012-12-16T15:11:54Z</time>
      </trkpt>
      <trkpt lat="44.78667" lon="-0.37287">
        <ele>93</ele>
        <time>2012-12-16T15:12:01Z</time>
      </trkpt>
      <trkpt lat="44.78667" lon="-0.3729">
        <ele>93</ele>
        <time>2012-12-16T15:12:02Z</time>
      </trkpt>
      <trkpt lat="44.78671" lon="-0.37304">
        <ele>93</ele>
        <time>2012-12-16T15:12:07Z</time>
      </trkpt>
      <trkpt lat="44.78677" lon="-0.37332">
        <ele>94</ele>
        <time>2012-12-16T15:12:17Z</time>
      </trkpt>
      <trkpt lat="44.78685" lon="-0.37354">
        <ele>95</ele>
        <time>2012-12-16T15:12:25Z</time>
      </trkpt>
      <trkpt lat="44.78689" lon="-0.37369">
        <ele>95</ele>
        <time>2012-12-16T15:12:31Z</time>
      </trkpt>
      <trkpt lat="44.78696" lon="-0.37385">
        <ele>95</ele>
        <time>2012-12-16T15:12:38Z</time>
      </trkpt>
      <trkpt lat="44.78701" lon="-0.37399">
        <ele>95</ele>
        <time>2012-12-16T15:12:44Z</time>
      </trkpt>
      <trkpt lat="44.78709" lon="-0.37414">
        <ele>95</ele>
        <time>2012-12-16T15:12:50Z</time>
      </trkpt>
      <trkpt lat="44.78718" lon="-0.37434">
        <ele>95</ele>
        <time>2012-12-16T15:12:57Z</time>
      </trkpt>
      <trkpt lat="44.78721" lon="-0.37451">
        <ele>95</ele>
        <time>2012-12-16T15:13:04Z</time>
      </trkpt>
      <trkpt lat="44.78717" lon="-0.37471">
        <ele>95</ele>
        <time>2012-12-16T15:13:11Z</time>
      </trkpt>
      <trkpt lat="44.78708" lon="-0.37491">
        <ele>96</ele>
        <time>2012-12-16T15:13:19Z</time>
      </trkpt>
      <trkpt lat="44.78701" lon="-0.3751">
        <ele>96</ele>
        <time>2012-12-16T15:13:26Z</time>
      </trkpt>
      <trkpt lat="44.78691" lon="-0.37533">
        <ele>98</ele>
        <time>2012-12-16T15:13:33Z</time>
      </trkpt>
      <trkpt lat="44.78679" lon="-0.37547">
        <ele>99</ele>
        <time>2012-12-16T15:13:39Z</time>
      </trkpt>
      <trkpt lat="44.78672" lon="-0.37551">
        <ele>99</ele>
        <time>2012-12-16T15:13:44Z</time>
      </trkpt>
      <trkpt lat="44.78666" lon="-0.37567">
        <ele>100</ele>
        <time>2012-12-16T15:13:53Z</time>
      </trkpt>
      <trkpt lat="44.78662" lon="-0.37577">
        <ele>101</ele>
        <time>2012-12-16T15:13:59Z</time>
      </trkpt>
      <trkpt lat="44.78661" lon="-0.37579">
        <ele>101</ele>
        <time>2012-12-16T15:14:00Z</time>
      </trkpt>
      <trkpt lat="44.78647" lon="-0.3759">
        <ele>102</ele>
        <time>2012-12-16T15:14:08Z</time>
      </trkpt>
      <trkpt lat="44.78639" lon="-0.37602">
        <ele>103</ele>
        <time>2012-12-16T15:14:14Z</time>
      </trkpt>
      <trkpt lat="44.78631" lon="-0.37614">
        <ele>103</ele>
        <time>2012-12-16T15:14:21Z</time>
      </trkpt>
      <trkpt lat="44.78623" lon="-0.37626">
        <ele>104</ele>
        <time>2012-12-16T15:14:29Z</time>
      </trkpt>
      <trkpt lat="44.78622" lon="-0.37627">
        <ele>104</ele>
        <time>2012-12-16T15:14:30Z</time>
      </trkpt>
      <trkpt lat="44.78612" lon="-0.37642">
        <ele>105</ele>
        <time>2012-12-16T15:14:39Z</time>
      </trkpt>
      <trkpt lat="44.78605" lon="-0.37659">
        <ele>105</ele>
        <time>2012-12-16T15:14:46Z</time>
      </trkpt>
      <trkpt lat="44.78605" lon="-0.37674">
        <ele>106</ele>
        <time>2012-12-16T15:14:51Z</time>
      </trkpt>
      <trkpt lat="44.7859" lon="-0.37699">
        <ele>106</ele>
        <time>2012-12-16T15:15:00Z</time>
      </trkpt>
      <trkpt lat="44.78573" lon="-0.37713">
        <ele>106</ele>
        <time>2012-12-16T15:15:07Z</time>
      </trkpt>
      <trkpt lat="44.78557" lon="-0.37724">
        <ele>107</ele>
        <time>2012-12-16T15:15:13Z</time>
      </trkpt>
      <trkpt lat="44.78526" lon="-0.37744">
        <ele>107</ele>
        <time>2012-12-16T15:15:23Z</time>
      </trkpt>
      <trkpt lat="44.78497" lon="-0.37773">
        <ele>107</ele>
        <time>2012-12-16T15:15:33Z</time>
      </trkpt>
      <trkpt lat="44.7849" lon="-0.37778">
        <ele>106</ele>
        <time>2012-12-16T15:15:35Z</time>
      </trkpt>
      <trkpt lat="44.78486" lon="-0.3778">
        <ele>106</ele>
        <time>2012-12-16T15:15:36Z</time>
      </trkpt>
      <trkpt lat="44.78459" lon="-0.37791">
        <ele>106</ele>
        <time>2012-12-16T15:15:43Z</time>
      </trkpt>
      <trkpt lat="44.78451" lon="-0.37794">
        <ele>106</ele>
        <time>2012-12-16T15:15:45Z</time>
      </trkpt>
      <trkpt lat="44.78447" lon="-0.37797">
        <ele>106</ele>
        <time>2012-12-16T15:15:46Z</time>
      </trkpt>
      <trkpt lat="44.78443" lon="-0.37799">
        <ele>105</ele>
        <time>2012-12-16T15:15:47Z</time>
      </trkpt>
      <trkpt lat="44.7843" lon="-0.37809">
        <ele>105</ele>
        <time>2012-12-16T15:15:52Z</time>
      </trkpt>
      <trkpt lat="44.78428" lon="-0.3781">
        <ele>105</ele>
        <time>2012-12-16T15:15:57Z</time>
      </trkpt>
      <trkpt lat="44.78427" lon="-0.37811">
        <ele>105</ele>
        <time>2012-12-16T15:16:09Z</time>
      </trkpt>
      <trkpt lat="44.78427" lon="-0.3781">
        <ele>105</ele>
        <time>2012-12-16T15:16:21Z</time>
      </trkpt>
      <trkpt lat="44.78427" lon="-0.3781">
        <ele>105</ele>
        <time>2012-12-16T15:16:33Z</time>
      </trkpt>
      <trkpt lat="44.78427" lon="-0.3781">
        <ele>105</ele>
        <time>2012-12-16T15:16:43Z</time>
      </trkpt>
      <trkpt lat="44.78427" lon="-0.3781">
        <ele>105</ele>
        <time>2012-12-16T15:16:58Z</time>
      </trkpt>
      <trkpt lat="44.78427" lon="-0.3781">
        <ele>105</ele>
        <time>2012-12-16T15:17:10Z</time>
      </trkpt>
      <trkpt lat="44.78427" lon="-0.3781">
        <ele>105</ele>
        <time>2012-12-16T15:17:20Z</time>
      </trkpt>
      <trkpt lat="44.78427" lon="-0.3781">
        <ele>105</ele>
        <time>2012-12-16T15:17:34Z</time>
      </trkpt>
      <trkpt lat="44.78427" lon="-0.3781">
        <ele>105</ele>
        <time>2012-12-16T15:17:50Z</time>
      </trkpt>
      <trkpt lat="44.78426" lon="-0.3781">
        <ele>105</ele>
        <time>2012-12-16T15:18:02Z</time>
      </trkpt>
      <trkpt lat="44.78427" lon="-0.3781">
        <ele>105</ele>
        <time>2012-12-16T15:18:12Z</time>
      </trkpt>
      <trkpt lat="44.78427" lon="-0.3781">
        <ele>105</ele>
        <time>2012-12-16T15:18:21Z</time>
      </trkpt>
      <trkpt lat="44.78427" lon="-0.37811">
        <ele>105</ele>
        <time>2012-12-16T15:18:25Z</time>
      </trkpt>
      <trkpt lat="44.78426" lon="-0.37813">
        <ele>105</ele>
        <time>2012-12-16T15:18:26Z</time>
      </trkpt>
      <trkpt lat="44.78424" lon="-0.37815">
        <ele>105</ele>
        <time>2012-12-16T15:18:27Z</time>
      </trkpt>
      <trkpt lat="44.78423" lon="-0.37815">
        <ele>105</ele>
        <time>2012-12-16T15:18:28Z</time>
      </trkpt>
      <trkpt lat="44.78423" lon="-0.37813">
        <ele>105</ele>
        <time>2012-12-16T15:18:33Z</time>
      </trkpt>
      <trkpt lat="44.78422" lon="-0.37812">
        <ele>105</ele>
        <time>2012-12-16T15:18:39Z</time>
      </trkpt>
      <trkpt lat="44.78422" lon="-0.37812">
        <ele>105</ele>
        <time>2012-12-16T15:18:53Z</time>
      </trkpt>
      <trkpt lat="44.7842" lon="-0.3781">
        <ele>105</ele>
        <time>2012-12-16T15:18:59Z</time>
      </trkpt>
      <trkpt lat="44.78419" lon="-0.3781">
        <ele>105</ele>
        <time>2012-12-16T15:19:00Z</time>
      </trkpt>
      <trkpt lat="44.78418" lon="-0.37808">
        <ele>105</ele>
        <time>2012-12-16T15:19:01Z</time>
      </trkpt>
      <trkpt lat="44.78417" lon="-0.37807">
        <ele>105</ele>
        <time>2012-12-16T15:19:02Z</time>
      </trkpt>
      <trkpt lat="44.78412" lon="-0.37802">
        <ele>105</ele>
        <time>2012-12-16T15:19:06Z</time>
      </trkpt>
      <trkpt lat="44.78401" lon="-0.37779">
        <ele>105</ele>
        <time>2012-12-16T15:19:12Z</time>
      </trkpt>
      <trkpt lat="44.78388" lon="-0.37744">
        <ele>104</ele>
        <time>2012-12-16T15:19:20Z</time>
      </trkpt>
      <trkpt lat="44.78377" lon="-0.37713">
        <ele>104</ele>
        <time>2012-12-16T15:19:28Z</time>
      </trkpt>
      <trkpt lat="44.78369" lon="-0.3769">
        <ele>104</ele>
        <time>2012-12-16T15:19:34Z</time>
      </trkpt>
      <trkpt lat="44.7836" lon="-0.37665">
        <ele>104</ele>
        <time>2012-12-16T15:19:40Z</time>
      </trkpt>
      <trkpt lat="44.78346" lon="-0.37635">
        <ele>103</ele>
        <time>2012-12-16T15:19:48Z</time>
      </trkpt>
      <trkpt lat="44.78341" lon="-0.3762">
        <ele>103</ele>
        <time>2012-12-16T15:19:54Z</time>
      </trkpt>
      <trkpt lat="44.78333" lon="-0.37612">
        <ele>103</ele>
        <time>2012-12-16T15:20:00Z</time>
      </trkpt>
      <trkpt lat="44.78316" lon="-0.37617">
        <ele>102</ele>
        <time>2012-12-16T15:20:06Z</time>
      </trkpt>
      <trkpt lat="44.78288" lon="-0.3763">
        <ele>100</ele>
        <time>2012-12-16T15:20:14Z</time>
      </trkpt>
      <trkpt lat="44.7828" lon="-0.37633">
        <ele>100</ele>
        <time>2012-12-16T15:20:16Z</time>
      </trkpt>
      <trkpt lat="44.78258" lon="-0.37643">
        <ele>98</ele>
        <time>2012-12-16T15:20:22Z</time>
      </trkpt>
      <trkpt lat="44.7825" lon="-0.37646">
        <ele>97</ele>
        <time>2012-12-16T15:20:24Z</time>
      </trkpt>
      <trkpt lat="44.78234" lon="-0.37656">
        <ele>96</ele>
        <time>2012-12-16T15:20:29Z</time>
      </trkpt>
      <trkpt lat="44.78208" lon="-0.37669">
        <ele>95</ele>
        <time>2012-12-16T15:20:36Z</time>
      </trkpt>
      <trkpt lat="44.78185" lon="-0.37676">
        <ele>95</ele>
        <time>2012-12-16T15:20:43Z</time>
      </trkpt>
      <trkpt lat="44.78159" lon="-0.37683">
        <ele>95</ele>
        <time>2012-12-16T15:20:52Z</time>
      </trkpt>
      <trkpt lat="44.78154" lon="-0.37684">
        <ele>95</ele>
        <time>2012-12-16T15:20:54Z</time>
      </trkpt>
      <trkpt lat="44.78152" lon="-0.37684">
        <ele>95</ele>
        <time>2012-12-16T15:20:55Z</time>
      </trkpt>
      <trkpt lat="44.78151" lon="-0.37683">
        <ele>95</ele>
        <time>2012-12-16T15:20:56Z</time>
      </trkpt>
      <trkpt lat="44.78149" lon="-0.37683">
        <ele>95</ele>
        <time>2012-12-16T15:20:57Z</time>
      </trkpt>
      <trkpt lat="44.78148" lon="-0.37683">
        <ele>95</ele>
        <time>2012-12-16T15:21:02Z</time>
      </trkpt>
      <trkpt lat="44.78148" lon="-0.37683">
        <ele>95</ele>
        <time>2012-12-16T15:21:12Z</time>
      </trkpt>
      <trkpt lat="44.78147" lon="-0.37683">
        <ele>95</ele>
        <time>2012-12-16T15:21:22Z</time>
      </trkpt>
      <trkpt lat="44.78147" lon="-0.37683">
        <ele>95</ele>
        <time>2012-12-16T15:21:35Z</time>
      </trkpt>
      <trkpt lat="44.78147" lon="-0.37683">
        <ele>95</ele>
        <time>2012-12-16T15:21:50Z</time>
      </trkpt>
      <trkpt lat="44.78144" lon="-0.37685">
        <ele>95</ele>
        <time>2012-12-16T15:21:58Z</time>
      </trkpt>
      <trkpt lat="44.78144" lon="-0.37686">
        <ele>95</ele>
        <time>2012-12-16T15:21:59Z</time>
      </trkpt>
      <trkpt lat="44.78143" lon="-0.37688">
        <ele>95</ele>
        <time>2012-12-16T15:22:00Z</time>
      </trkpt>
      <trkpt lat="44.78142" lon="-0.3769">
        <ele>95</ele>
        <time>2012-12-16T15:22:01Z</time>
      </trkpt>
      <trkpt lat="44.78142" lon="-0.37693">
        <ele>95</ele>
        <time>2012-12-16T15:22:02Z</time>
      </trkpt>
      <trkpt lat="44.78143" lon="-0.37697">
        <ele>95</ele>
        <time>2012-12-16T15:22:03Z</time>
      </trkpt>
      <trkpt lat="44.78144" lon="-0.37702">
        <ele>94</ele>
        <time>2012-12-16T15:22:04Z</time>
      </trkpt>
      <trkpt lat="44.78144" lon="-0.37707">
        <ele>94</ele>
        <time>2012-12-16T15:22:05Z</time>
      </trkpt>
      <trkpt lat="44.78144" lon="-0.37713">
        <ele>94</ele>
        <time>2012-12-16T15:22:06Z</time>
      </trkpt>
      <trkpt lat="44.78147" lon="-0.37757">
        <ele>92</ele>
        <time>2012-12-16T15:22:14Z</time>
      </trkpt>
      <trkpt lat="44.78147" lon="-0.37792">
        <ele>92</ele>
        <time>2012-12-16T15:22:20Z</time>
      </trkpt>
      <trkpt lat="44.78143" lon="-0.3784">
        <ele>95</ele>
        <time>2012-12-16T15:22:27Z</time>
      </trkpt>
      <trkpt lat="44.78143" lon="-0.37848">
        <ele>96</ele>
        <time>2012-12-16T15:22:28Z</time>
      </trkpt>
      <trkpt lat="44.78141" lon="-0.37864">
        <ele>96</ele>
        <time>2012-12-16T15:22:30Z</time>
      </trkpt>
      <trkpt lat="44.7814" lon="-0.37872">
        <ele>96</ele>
        <time>2012-12-16T15:22:31Z</time>
      </trkpt>
      <trkpt lat="44.78139" lon="-0.3788">
        <ele>97</ele>
        <time>2012-12-16T15:22:32Z</time>
      </trkpt>
      <trkpt lat="44.78136" lon="-0.37919">
        <ele>98</ele>
        <time>2012-12-16T15:22:37Z</time>
      </trkpt>
      <trkpt lat="44.78136" lon="-0.37933">
        <ele>98</ele>
        <time>2012-12-16T15:22:39Z</time>
      </trkpt>
      <trkpt lat="44.78134" lon="-0.3801">
        <ele>98</ele>
        <time>2012-12-16T15:22:50Z</time>
      </trkpt>
      <trkpt lat="44.78134" lon="-0.3803">
        <ele>98</ele>
        <time>2012-12-16T15:22:53Z</time>
      </trkpt>
      <trkpt lat="44.78135" lon="-0.38036">
        <ele>98</ele>
        <time>2012-12-16T15:22:54Z</time>
      </trkpt>
      <trkpt lat="44.78136" lon="-0.38055">
        <ele>98</ele>
        <time>2012-12-16T15:22:57Z</time>
      </trkpt>
      <trkpt lat="44.78137" lon="-0.38061">
        <ele>98</ele>
        <time>2012-12-16T15:22:58Z</time>
      </trkpt>
      <trkpt lat="44.78138" lon="-0.38067">
        <ele>98</ele>
        <time>2012-12-16T15:22:59Z</time>
      </trkpt>
      <trkpt lat="44.78136" lon="-0.38072">
        <ele>98</ele>
        <time>2012-12-16T15:23:00Z</time>
      </trkpt>
      <trkpt lat="44.78134" lon="-0.38075">
        <ele>98</ele>
        <time>2012-12-16T15:23:01Z</time>
      </trkpt>
      <trkpt lat="44.7813" lon="-0.38078">
        <ele>98</ele>
        <time>2012-12-16T15:23:02Z</time>
      </trkpt>
      <trkpt lat="44.78127" lon="-0.38081">
        <ele>98</ele>
        <time>2012-12-16T15:23:03Z</time>
      </trkpt>
      <trkpt lat="44.78123" lon="-0.38084">
        <ele>98</ele>
        <time>2012-12-16T15:23:04Z</time>
      </trkpt>
      <trkpt lat="44.78116" lon="-0.38089">
        <ele>97</ele>
        <time>2012-12-16T15:23:06Z</time>
      </trkpt>
      <trkpt lat="44.7809" lon="-0.38112">
        <ele>96</ele>
        <time>2012-12-16T15:23:14Z</time>
      </trkpt>
      <trkpt lat="44.78062" lon="-0.38144">
        <ele>95</ele>
        <time>2012-12-16T15:23:22Z</time>
      </trkpt>
      <trkpt lat="44.78052" lon="-0.38154">
        <ele>95</ele>
        <time>2012-12-16T15:23:25Z</time>
      </trkpt>
      <trkpt lat="44.78049" lon="-0.38157">
        <ele>95</ele>
        <time>2012-12-16T15:23:26Z</time>
      </trkpt>
      <trkpt lat="44.78026" lon="-0.3818">
        <ele>96</ele>
        <time>2012-12-16T15:23:34Z</time>
      </trkpt>
      <trkpt lat="44.78009" lon="-0.38194">
        <ele>96</ele>
        <time>2012-12-16T15:23:40Z</time>
      </trkpt>
      <trkpt lat="44.77983" lon="-0.38218">
        <ele>97</ele>
        <time>2012-12-16T15:23:49Z</time>
      </trkpt>
      <trkpt lat="44.77967" lon="-0.38236">
        <ele>97</ele>
        <time>2012-12-16T15:23:55Z</time>
      </trkpt>
      <trkpt lat="44.77951" lon="-0.38253">
        <ele>97</ele>
        <time>2012-12-16T15:24:01Z</time>
      </trkpt>
      <trkpt lat="44.77933" lon="-0.38276">
        <ele>97</ele>
        <time>2012-12-16T15:24:09Z</time>
      </trkpt>
      <trkpt lat="44.77915" lon="-0.38299">
        <ele>97</ele>
        <time>2012-12-16T15:24:17Z</time>
      </trkpt>
      <trkpt lat="44.77902" lon="-0.38316">
        <ele>96</ele>
        <time>2012-12-16T15:24:23Z</time>
      </trkpt>
      <trkpt lat="44.77898" lon="-0.3832">
        <ele>96</ele>
        <time>2012-12-16T15:24:25Z</time>
      </trkpt>
      <trkpt lat="44.77893" lon="-0.3832">
        <ele>95</ele>
        <time>2012-12-16T15:24:28Z</time>
      </trkpt>
      <trkpt lat="44.77892" lon="-0.38319">
        <ele>95</ele>
        <time>2012-12-16T15:24:29Z</time>
      </trkpt>
      <trkpt lat="44.7789" lon="-0.38316">
        <ele>95</ele>
        <time>2012-12-16T15:24:30Z</time>
      </trkpt>
      <trkpt lat="44.77889" lon="-0.38314">
        <ele>95</ele>
        <time>2012-12-16T15:24:31Z</time>
      </trkpt>
      <trkpt lat="44.77887" lon="-0.38312">
        <ele>95</ele>
        <time>2012-12-16T15:24:32Z</time>
      </trkpt>
      <trkpt lat="44.77885" lon="-0.3831">
        <ele>95</ele>
        <time>2012-12-16T15:24:33Z</time>
      </trkpt>
      <trkpt lat="44.77883" lon="-0.38307">
        <ele>95</ele>
        <time>2012-12-16T15:24:34Z</time>
      </trkpt>
      <trkpt lat="44.77863" lon="-0.3829">
        <ele>95</ele>
        <time>2012-12-16T15:24:41Z</time>
      </trkpt>
      <trkpt lat="44.77844" lon="-0.3828">
        <ele>95</ele>
        <time>2012-12-16T15:24:48Z</time>
      </trkpt>
      <trkpt lat="44.77836" lon="-0.38268">
        <ele>95</ele>
        <time>2012-12-16T15:24:53Z</time>
      </trkpt>
      <trkpt lat="44.77828" lon="-0.38241">
        <ele>96</ele>
        <time>2012-12-16T15:25:00Z</time>
      </trkpt>
      <trkpt lat="44.77826" lon="-0.38221">
        <ele>96</ele>
        <time>2012-12-16T15:25:05Z</time>
      </trkpt>
      <trkpt lat="44.77825" lon="-0.38217">
        <ele>96</ele>
        <time>2012-12-16T15:25:06Z</time>
      </trkpt>
      <trkpt lat="44.77824" lon="-0.38213">
        <ele>96</ele>
        <time>2012-12-16T15:25:07Z</time>
      </trkpt>
      <trkpt lat="44.7782" lon="-0.38186">
        <ele>96</ele>
        <time>2012-12-16T15:25:14Z</time>
      </trkpt>
      <trkpt lat="44.77812" lon="-0.38162">
        <ele>96</ele>
        <time>2012-12-16T15:25:20Z</time>
      </trkpt>
      <trkpt lat="44.778" lon="-0.38131">
        <ele>96</ele>
        <time>2012-12-16T15:25:27Z</time>
      </trkpt>
      <trkpt lat="44.77787" lon="-0.38101">
        <ele>96</ele>
        <time>2012-12-16T15:25:34Z</time>
      </trkpt>
      <trkpt lat="44.77771" lon="-0.38063">
        <ele>95</ele>
        <time>2012-12-16T15:25:43Z</time>
      </trkpt>
      <trkpt lat="44.77754" lon="-0.38035">
        <ele>95</ele>
        <time>2012-12-16T15:25:51Z</time>
      </trkpt>
      <trkpt lat="44.77736" lon="-0.38003">
        <ele>94</ele>
        <time>2012-12-16T15:25:59Z</time>
      </trkpt>
      <trkpt lat="44.7771" lon="-0.37957">
        <ele>93</ele>
        <time>2012-12-16T15:26:09Z</time>
      </trkpt>
      <trkpt lat="44.77705" lon="-0.37947">
        <ele>93</ele>
        <time>2012-12-16T15:26:11Z</time>
      </trkpt>
      <trkpt lat="44.77702" lon="-0.37942">
        <ele>93</ele>
        <time>2012-12-16T15:26:12Z</time>
      </trkpt>
      <trkpt lat="44.77681" lon="-0.37894">
        <ele>91</ele>
        <time>2012-12-16T15:26:21Z</time>
      </trkpt>
      <trkpt lat="44.77667" lon="-0.37857">
        <ele>90</ele>
        <time>2012-12-16T15:26:28Z</time>
      </trkpt>
      <trkpt lat="44.77663" lon="-0.37847">
        <ele>90</ele>
        <time>2012-12-16T15:26:30Z</time>
      </trkpt>
      <trkpt lat="44.77644" lon="-0.37812">
        <ele>90</ele>
        <time>2012-12-16T15:26:38Z</time>
      </trkpt>
      <trkpt lat="44.7763" lon="-0.37789">
        <ele>90</ele>
        <time>2012-12-16T15:26:44Z</time>
      </trkpt>
      <trkpt lat="44.77611" lon="-0.3776">
        <ele>90</ele>
        <time>2012-12-16T15:26:52Z</time>
      </trkpt>
      <trkpt lat="44.77598" lon="-0.37731">
        <ele>90</ele>
        <time>2012-12-16T15:26:59Z</time>
      </trkpt>
      <trkpt lat="44.77589" lon="-0.3769">
        <ele>89</ele>
        <time>2012-12-16T15:27:07Z</time>
      </trkpt>
      <trkpt lat="44.77581" lon="-0.3766">
        <ele>88</ele>
        <time>2012-12-16T15:27:14Z</time>
      </trkpt>
      <trkpt lat="44.77572" lon="-0.37636">
        <ele>88</ele>
        <time>2012-12-16T15:27:20Z</time>
      </trkpt>
      <trkpt lat="44.77564" lon="-0.37616">
        <ele>87</ele>
        <time>2012-12-16T15:27:27Z</time>
      </trkpt>
      <trkpt lat="44.77562" lon="-0.37612">
        <ele>87</ele>
        <time>2012-12-16T15:27:29Z</time>
      </trkpt>
      <trkpt lat="44.77562" lon="-0.3761">
        <ele>87</ele>
        <time>2012-12-16T15:27:30Z</time>
      </trkpt>
      <trkpt lat="44.77555" lon="-0.3759">
        <ele>86</ele>
        <time>2012-12-16T15:27:36Z</time>
      </trkpt>
      <trkpt lat="44.77554" lon="-0.37587">
        <ele>86</ele>
        <time>2012-12-16T15:27:37Z</time>
      </trkpt>
      <trkpt lat="44.77553" lon="-0.37584">
        <ele>85</ele>
        <time>2012-12-16T15:27:38Z</time>
      </trkpt>
      <trkpt lat="44.77552" lon="-0.37581">
        <ele>85</ele>
        <time>2012-12-16T15:27:39Z</time>
      </trkpt>
      <trkpt lat="44.77551" lon="-0.37578">
        <ele>85</ele>
        <time>2012-12-16T15:27:40Z</time>
      </trkpt>
      <trkpt lat="44.7755" lon="-0.37576">
        <ele>85</ele>
        <time>2012-12-16T15:27:41Z</time>
      </trkpt>
      <trkpt lat="44.77549" lon="-0.37574">
        <ele>85</ele>
        <time>2012-12-16T15:27:42Z</time>
      </trkpt>
      <trkpt lat="44.77547" lon="-0.37555">
        <ele>84</ele>
        <time>2012-12-16T15:27:47Z</time>
      </trkpt>
      <trkpt lat="44.77546" lon="-0.37531">
        <ele>82</ele>
        <time>2012-12-16T15:27:52Z</time>
      </trkpt>
      <trkpt lat="44.77545" lon="-0.37521">
        <ele>81</ele>
        <time>2012-12-16T15:27:55Z</time>
      </trkpt>
      <trkpt lat="44.77543" lon="-0.37517">
        <ele>81</ele>
        <time>2012-12-16T15:27:56Z</time>
      </trkpt>
      <trkpt lat="44.77542" lon="-0.37514">
        <ele>81</ele>
        <time>2012-12-16T15:27:57Z</time>
      </trkpt>
      <trkpt lat="44.7754" lon="-0.37513">
        <ele>81</ele>
        <time>2012-12-16T15:27:58Z</time>
      </trkpt>
      <trkpt lat="44.77539" lon="-0.37511">
        <ele>81</ele>
        <time>2012-12-16T15:27:59Z</time>
      </trkpt>
      <trkpt lat="44.77538" lon="-0.37509">
        <ele>81</ele>
        <time>2012-12-16T15:28:00Z</time>
      </trkpt>
      <trkpt lat="44.77536" lon="-0.37507">
        <ele>81</ele>
        <time>2012-12-16T15:28:01Z</time>
      </trkpt>
      <trkpt lat="44.77535" lon="-0.37505">
        <ele>81</ele>
        <time>2012-12-16T15:28:02Z</time>
      </trkpt>
      <trkpt lat="44.77534" lon="-0.37502">
        <ele>80</ele>
        <time>2012-12-16T15:28:03Z</time>
      </trkpt>
      <trkpt lat="44.77533" lon="-0.375">
        <ele>80</ele>
        <time>2012-12-16T15:28:04Z</time>
      </trkpt>
      <trkpt lat="44.77532" lon="-0.37496">
        <ele>80</ele>
        <time>2012-12-16T15:28:05Z</time>
      </trkpt>
      <trkpt lat="44.77531" lon="-0.37494">
        <ele>80</ele>
        <time>2012-12-16T15:28:06Z</time>
      </trkpt>
      <trkpt lat="44.7753" lon="-0.37491">
        <ele>80</ele>
        <time>2012-12-16T15:28:07Z</time>
      </trkpt>
      <trkpt lat="44.77529" lon="-0.37488">
        <ele>79</ele>
        <time>2012-12-16T15:28:08Z</time>
      </trkpt>
      <trkpt lat="44.77528" lon="-0.37485">
        <ele>79</ele>
        <time>2012-12-16T15:28:09Z</time>
      </trkpt>
      <trkpt lat="44.77527" lon="-0.37482">
        <ele>79</ele>
        <time>2012-12-16T15:28:10Z</time>
      </trkpt>
      <trkpt lat="44.77527" lon="-0.3748">
        <ele>79</ele>
        <time>2012-12-16T15:28:11Z</time>
      </trkpt>
      <trkpt lat="44.77527" lon="-0.37477">
        <ele>79</ele>
        <time>2012-12-16T15:28:12Z</time>
      </trkpt>
      <trkpt lat="44.77526" lon="-0.37475">
        <ele>78</ele>
        <time>2012-12-16T15:28:13Z</time>
      </trkpt>
      <trkpt lat="44.77524" lon="-0.37471">
        <ele>78</ele>
        <time>2012-12-16T15:28:14Z</time>
      </trkpt>
      <trkpt lat="44.77523" lon="-0.37468">
        <ele>78</ele>
        <time>2012-12-16T15:28:15Z</time>
      </trkpt>
      <trkpt lat="44.77522" lon="-0.37464">
        <ele>77</ele>
        <time>2012-12-16T15:28:16Z</time>
      </trkpt>
      <trkpt lat="44.7752" lon="-0.37461">
        <ele>77</ele>
        <time>2012-12-16T15:28:17Z</time>
      </trkpt>
      <trkpt lat="44.77519" lon="-0.37457">
        <ele>77</ele>
        <time>2012-12-16T15:28:18Z</time>
      </trkpt>
      <trkpt lat="44.77518" lon="-0.37454">
        <ele>77</ele>
        <time>2012-12-16T15:28:19Z</time>
      </trkpt>
      <trkpt lat="44.77517" lon="-0.37451">
        <ele>77</ele>
        <time>2012-12-16T15:28:20Z</time>
      </trkpt>
      <trkpt lat="44.77515" lon="-0.37447">
        <ele>76</ele>
        <time>2012-12-16T15:28:21Z</time>
      </trkpt>
      <trkpt lat="44.77503" lon="-0.3742">
        <ele>74</ele>
        <time>2012-12-16T15:28:27Z</time>
      </trkpt>
      <trkpt lat="44.77495" lon="-0.37409">
        <ele>74</ele>
        <time>2012-12-16T15:28:31Z</time>
      </trkpt>
      <trkpt lat="44.77494" lon="-0.37406">
        <ele>74</ele>
        <time>2012-12-16T15:28:32Z</time>
      </trkpt>
      <trkpt lat="44.77493" lon="-0.37404">
        <ele>73</ele>
        <time>2012-12-16T15:28:33Z</time>
      </trkpt>
      <trkpt lat="44.77492" lon="-0.37402">
        <ele>73</ele>
        <time>2012-12-16T15:28:34Z</time>
      </trkpt>
      <trkpt lat="44.77491" lon="-0.374">
        <ele>73</ele>
        <time>2012-12-16T15:28:35Z</time>
      </trkpt>
      <trkpt lat="44.7749" lon="-0.37397">
        <ele>73</ele>
        <time>2012-12-16T15:28:36Z</time>
      </trkpt>
      <trkpt lat="44.77476" lon="-0.37373">
        <ele>71</ele>
        <time>2012-12-16T15:28:43Z</time>
      </trkpt>
      <trkpt lat="44.77465" lon="-0.37357">
        <ele>71</ele>
        <time>2012-12-16T15:28:48Z</time>
      </trkpt>
      <trkpt lat="44.77461" lon="-0.37349">
        <ele>70</ele>
        <time>2012-12-16T15:28:51Z</time>
      </trkpt>
      <trkpt lat="44.77459" lon="-0.37346">
        <ele>70</ele>
        <time>2012-12-16T15:28:52Z</time>
      </trkpt>
      <trkpt lat="44.77458" lon="-0.37344">
        <ele>70</ele>
        <time>2012-12-16T15:28:53Z</time>
      </trkpt>
      <trkpt lat="44.77456" lon="-0.37342">
        <ele>70</ele>
        <time>2012-12-16T15:28:54Z</time>
      </trkpt>
      <trkpt lat="44.77454" lon="-0.3734">
        <ele>70</ele>
        <time>2012-12-16T15:28:55Z</time>
      </trkpt>
      <trkpt lat="44.77449" lon="-0.37331">
        <ele>70</ele>
        <time>2012-12-16T15:29:00Z</time>
      </trkpt>
      <trkpt lat="44.77448" lon="-0.37327">
        <ele>70</ele>
        <time>2012-12-16T15:29:04Z</time>
      </trkpt>
      <trkpt lat="44.77445" lon="-0.37322">
        <ele>69</ele>
        <time>2012-12-16T15:29:12Z</time>
      </trkpt>
      <trkpt lat="44.77445" lon="-0.37321">
        <ele>69</ele>
        <time>2012-12-16T15:29:23Z</time>
      </trkpt>
      <trkpt lat="44.77444" lon="-0.37319">
        <ele>69</ele>
        <time>2012-12-16T15:29:26Z</time>
      </trkpt>
      <trkpt lat="44.77443" lon="-0.37316">
        <ele>69</ele>
        <time>2012-12-16T15:29:27Z</time>
      </trkpt>
      <trkpt lat="44.77435" lon="-0.3731">
        <ele>69</ele>
        <time>2012-12-16T15:29:31Z</time>
      </trkpt>
      <trkpt lat="44.77434" lon="-0.37308">
        <ele>69</ele>
        <time>2012-12-16T15:29:33Z</time>
      </trkpt>
      <trkpt lat="44.77433" lon="-0.37307">
        <ele>69</ele>
        <time>2012-12-16T15:29:34Z</time>
      </trkpt>
      <trkpt lat="44.77431" lon="-0.37306">
        <ele>69</ele>
        <time>2012-12-16T15:29:35Z</time>
      </trkpt>
      <trkpt lat="44.77428" lon="-0.37304">
        <ele>69</ele>
        <time>2012-12-16T15:29:36Z</time>
      </trkpt>
      <trkpt lat="44.77426" lon="-0.37303">
        <ele>69</ele>
        <time>2012-12-16T15:29:37Z</time>
      </trkpt>
      <trkpt lat="44.77424" lon="-0.37302">
        <ele>69</ele>
        <time>2012-12-16T15:29:38Z</time>
      </trkpt>
      <trkpt lat="44.77418" lon="-0.37297">
        <ele>68</ele>
        <time>2012-12-16T15:29:43Z</time>
      </trkpt>
      <trkpt lat="44.77406" lon="-0.37294">
        <ele>68</ele>
        <time>2012-12-16T15:29:50Z</time>
      </trkpt>
      <trkpt lat="44.77396" lon="-0.37291">
        <ele>68</ele>
        <time>2012-12-16T15:29:55Z</time>
      </trkpt>
      <trkpt lat="44.77394" lon="-0.37291">
        <ele>68</ele>
        <time>2012-12-16T15:29:56Z</time>
      </trkpt>
      <trkpt lat="44.77393" lon="-0.37292">
        <ele>68</ele>
        <time>2012-12-16T15:29:57Z</time>
      </trkpt>
      <trkpt lat="44.77386" lon="-0.37295">
        <ele>68</ele>
        <time>2012-12-16T15:30:01Z</time>
      </trkpt>
      <trkpt lat="44.77385" lon="-0.37294">
        <ele>68</ele>
        <time>2012-12-16T15:30:02Z</time>
      </trkpt>
      <trkpt lat="44.77383" lon="-0.37293">
        <ele>68</ele>
        <time>2012-12-16T15:30:03Z</time>
      </trkpt>
      <trkpt lat="44.7738" lon="-0.37286">
        <ele>68</ele>
        <time>2012-12-16T15:30:08Z</time>
      </trkpt>
      <trkpt lat="44.77378" lon="-0.37279">
        <ele>68</ele>
        <time>2012-12-16T15:30:13Z</time>
      </trkpt>
      <trkpt lat="44.77374" lon="-0.37274">
        <ele>68</ele>
        <time>2012-12-16T15:30:16Z</time>
      </trkpt>
      <trkpt lat="44.77372" lon="-0.37273">
        <ele>68</ele>
        <time>2012-12-16T15:30:17Z</time>
      </trkpt>
      <trkpt lat="44.7737" lon="-0.37272">
        <ele>68</ele>
        <time>2012-12-16T15:30:18Z</time>
      </trkpt>
      <trkpt lat="44.77369" lon="-0.37271">
        <ele>68</ele>
        <time>2012-12-16T15:30:19Z</time>
      </trkpt>
      <trkpt lat="44.77367" lon="-0.3727">
        <ele>68</ele>
        <time>2012-12-16T15:30:20Z</time>
      </trkpt>
      <trkpt lat="44.77365" lon="-0.37268">
        <ele>68</ele>
        <time>2012-12-16T15:30:21Z</time>
      </trkpt>
      <trkpt lat="44.77364" lon="-0.37267">
        <ele>68</ele>
        <time>2012-12-16T15:30:22Z</time>
      </trkpt>
      <trkpt lat="44.77362" lon="-0.37265">
        <ele>68</ele>
        <time>2012-12-16T15:30:23Z</time>
      </trkpt>
      <trkpt lat="44.7736" lon="-0.37263">
        <ele>68</ele>
        <time>2012-12-16T15:30:24Z</time>
      </trkpt>
      <trkpt lat="44.77358" lon="-0.37261">
        <ele>68</ele>
        <time>2012-12-16T15:30:25Z</time>
      </trkpt>
      <trkpt lat="44.7735" lon="-0.37255">
        <ele>68</ele>
        <time>2012-12-16T15:30:31Z</time>
      </trkpt>
      <trkpt lat="44.77338" lon="-0.37245">
        <ele>68</ele>
        <time>2012-12-16T15:30:37Z</time>
      </trkpt>
      <trkpt lat="44.77329" lon="-0.37236">
        <ele>69</ele>
        <time>2012-12-16T15:30:42Z</time>
      </trkpt>
      <trkpt lat="44.77318" lon="-0.37227">
        <ele>69</ele>
        <time>2012-12-16T15:30:47Z</time>
      </trkpt>
      <trkpt lat="44.77301" lon="-0.37215">
        <ele>70</ele>
        <time>2012-12-16T15:30:54Z</time>
      </trkpt>
      <trkpt lat="44.77292" lon="-0.37205">
        <ele>71</ele>
        <time>2012-12-16T15:30:58Z</time>
      </trkpt>
      <trkpt lat="44.77275" lon="-0.37187">
        <ele>72</ele>
        <time>2012-12-16T15:31:04Z</time>
      </trkpt>
      <trkpt lat="44.77258" lon="-0.37167">
        <ele>73</ele>
        <time>2012-12-16T15:31:10Z</time>
      </trkpt>
      <trkpt lat="44.77239" lon="-0.37145">
        <ele>75</ele>
        <time>2012-12-16T15:31:18Z</time>
      </trkpt>
      <trkpt lat="44.77224" lon="-0.37129">
        <ele>76</ele>
        <time>2012-12-16T15:31:25Z</time>
      </trkpt>
      <trkpt lat="44.77214" lon="-0.37117">
        <ele>76</ele>
        <time>2012-12-16T15:31:30Z</time>
      </trkpt>
      <trkpt lat="44.77205" lon="-0.37106">
        <ele>77</ele>
        <time>2012-12-16T15:31:35Z</time>
      </trkpt>
      <trkpt lat="44.77194" lon="-0.37091">
        <ele>78</ele>
        <time>2012-12-16T15:31:41Z</time>
      </trkpt>
      <trkpt lat="44.77191" lon="-0.37082">
        <ele>78</ele>
        <time>2012-12-16T15:31:45Z</time>
      </trkpt>
      <trkpt lat="44.7719" lon="-0.37078">
        <ele>78</ele>
        <time>2012-12-16T15:31:46Z</time>
      </trkpt>
      <trkpt lat="44.77185" lon="-0.37071">
        <ele>79</ele>
        <time>2012-12-16T15:31:47Z</time>
      </trkpt>
      <trkpt lat="44.77182" lon="-0.37065">
        <ele>79</ele>
        <time>2012-12-16T15:31:48Z</time>
      </trkpt>
      <trkpt lat="44.7718" lon="-0.37061">
        <ele>79</ele>
        <time>2012-12-16T15:31:49Z</time>
      </trkpt>
      <trkpt lat="44.77178" lon="-0.37057">
        <ele>79</ele>
        <time>2012-12-16T15:31:50Z</time>
      </trkpt>
      <trkpt lat="44.77176" lon="-0.37054">
        <ele>79</ele>
        <time>2012-12-16T15:31:51Z</time>
      </trkpt>
      <trkpt lat="44.77175" lon="-0.37051">
        <ele>79</ele>
        <time>2012-12-16T15:31:52Z</time>
      </trkpt>
      <trkpt lat="44.77174" lon="-0.37049">
        <ele>79</ele>
        <time>2012-12-16T15:31:53Z</time>
      </trkpt>
      <trkpt lat="44.77173" lon="-0.37047">
        <ele>79</ele>
        <time>2012-12-16T15:31:54Z</time>
      </trkpt>
      <trkpt lat="44.77164" lon="-0.37028">
        <ele>80</ele>
        <time>2012-12-16T15:32:01Z</time>
      </trkpt>
      <trkpt lat="44.77162" lon="-0.37021">
        <ele>80</ele>
        <time>2012-12-16T15:32:03Z</time>
      </trkpt>
      <trkpt lat="44.77161" lon="-0.37017">
        <ele>80</ele>
        <time>2012-12-16T15:32:04Z</time>
      </trkpt>
      <trkpt lat="44.7716" lon="-0.37014">
        <ele>80</ele>
        <time>2012-12-16T15:32:05Z</time>
      </trkpt>
      <trkpt lat="44.7716" lon="-0.37012">
        <ele>80</ele>
        <time>2012-12-16T15:32:06Z</time>
      </trkpt>
      <trkpt lat="44.77159" lon="-0.37005">
        <ele>81</ele>
        <time>2012-12-16T15:32:10Z</time>
      </trkpt>
      <trkpt lat="44.77158" lon="-0.37002">
        <ele>81</ele>
        <time>2012-12-16T15:32:11Z</time>
      </trkpt>
      <trkpt lat="44.77157" lon="-0.36998">
        <ele>81</ele>
        <time>2012-12-16T15:32:12Z</time>
      </trkpt>
      <trkpt lat="44.77155" lon="-0.36995">
        <ele>81</ele>
        <time>2012-12-16T15:32:13Z</time>
      </trkpt>
      <trkpt lat="44.77154" lon="-0.36991">
        <ele>81</ele>
        <time>2012-12-16T15:32:14Z</time>
      </trkpt>
      <trkpt lat="44.77152" lon="-0.36987">
        <ele>81</ele>
        <time>2012-12-16T15:32:15Z</time>
      </trkpt>
      <trkpt lat="44.77151" lon="-0.36985">
        <ele>81</ele>
        <time>2012-12-16T15:32:16Z</time>
      </trkpt>
      <trkpt lat="44.7715" lon="-0.36982">
        <ele>82</ele>
        <time>2012-12-16T15:32:17Z</time>
      </trkpt>
      <trkpt lat="44.7715" lon="-0.3698">
        <ele>82</ele>
        <time>2012-12-16T15:32:18Z</time>
      </trkpt>
      <trkpt lat="44.7715" lon="-0.36975">
        <ele>82</ele>
        <time>2012-12-16T15:32:20Z</time>
      </trkpt>
      <trkpt lat="44.7715" lon="-0.36973">
        <ele>82</ele>
        <time>2012-12-16T15:32:21Z</time>
      </trkpt>
      <trkpt lat="44.7715" lon="-0.36971">
        <ele>82</ele>
        <time>2012-12-16T15:32:22Z</time>
      </trkpt>
      <trkpt lat="44.77149" lon="-0.36968">
        <ele>82</ele>
        <time>2012-12-16T15:32:23Z</time>
      </trkpt>
      <trkpt lat="44.77147" lon="-0.36964">
        <ele>82</ele>
        <time>2012-12-16T15:32:24Z</time>
      </trkpt>
      <trkpt lat="44.77145" lon="-0.36959">
        <ele>83</ele>
        <time>2012-12-16T15:32:25Z</time>
      </trkpt>
      <trkpt lat="44.77143" lon="-0.36955">
        <ele>83</ele>
        <time>2012-12-16T15:32:26Z</time>
      </trkpt>
      <trkpt lat="44.77142" lon="-0.36952">
        <ele>83</ele>
        <time>2012-12-16T15:32:27Z</time>
      </trkpt>
      <trkpt lat="44.7714" lon="-0.36947">
        <ele>83</ele>
        <time>2012-12-16T15:32:28Z</time>
      </trkpt>
      <trkpt lat="44.77139" lon="-0.36944">
        <ele>83</ele>
        <time>2012-12-16T15:32:29Z</time>
      </trkpt>
      <trkpt lat="44.77137" lon="-0.36941">
        <ele>83</ele>
        <time>2012-12-16T15:32:30Z</time>
      </trkpt>
      <trkpt lat="44.77136" lon="-0.36938">
        <ele>84</ele>
        <time>2012-12-16T15:32:31Z</time>
      </trkpt>
      <trkpt lat="44.77134" lon="-0.36935">
        <ele>84</ele>
        <time>2012-12-16T15:32:32Z</time>
      </trkpt>
      <trkpt lat="44.77132" lon="-0.36933">
        <ele>84</ele>
        <time>2012-12-16T15:32:33Z</time>
      </trkpt>
      <trkpt lat="44.77131" lon="-0.3693">
        <ele>84</ele>
        <time>2012-12-16T15:32:34Z</time>
      </trkpt>
      <trkpt lat="44.77131" lon="-0.36927">
        <ele>84</ele>
        <time>2012-12-16T15:32:35Z</time>
      </trkpt>
      <trkpt lat="44.77131" lon="-0.36926">
        <ele>84</ele>
        <time>2012-12-16T15:32:36Z</time>
      </trkpt>
      <trkpt lat="44.7713" lon="-0.36923">
        <ele>84</ele>
        <time>2012-12-16T15:32:37Z</time>
      </trkpt>
      <trkpt lat="44.77129" lon="-0.3692">
        <ele>84</ele>
        <time>2012-12-16T15:32:38Z</time>
      </trkpt>
      <trkpt lat="44.77128" lon="-0.36918">
        <ele>85</ele>
        <time>2012-12-16T15:32:39Z</time>
      </trkpt>
      <trkpt lat="44.77126" lon="-0.36915">
        <ele>85</ele>
        <time>2012-12-16T15:32:40Z</time>
      </trkpt>
      <trkpt lat="44.77124" lon="-0.36912">
        <ele>85</ele>
        <time>2012-12-16T15:32:42Z</time>
      </trkpt>
      <trkpt lat="44.7712" lon="-0.36901">
        <ele>86</ele>
        <time>2012-12-16T15:32:47Z</time>
      </trkpt>
      <trkpt lat="44.7712" lon="-0.36898">
        <ele>86</ele>
        <time>2012-12-16T15:32:48Z</time>
      </trkpt>
      <trkpt lat="44.77119" lon="-0.36896">
        <ele>86</ele>
        <time>2012-12-16T15:32:49Z</time>
      </trkpt>
      <trkpt lat="44.77118" lon="-0.36893">
        <ele>86</ele>
        <time>2012-12-16T15:32:50Z</time>
      </trkpt>
      <trkpt lat="44.77117" lon="-0.36891">
        <ele>86</ele>
        <time>2012-12-16T15:32:51Z</time>
      </trkpt>
      <trkpt lat="44.77115" lon="-0.36883">
        <ele>86</ele>
        <time>2012-12-16T15:32:54Z</time>
      </trkpt>
      <trkpt lat="44.77115" lon="-0.36877">
        <ele>86</ele>
        <time>2012-12-16T15:32:56Z</time>
      </trkpt>
      <trkpt lat="44.77109" lon="-0.36863">
        <ele>87</ele>
        <time>2012-12-16T15:33:03Z</time>
      </trkpt>
      <trkpt lat="44.77105" lon="-0.36856">
        <ele>87</ele>
        <time>2012-12-16T15:33:07Z</time>
      </trkpt>
      <trkpt lat="44.77103" lon="-0.36843">
        <ele>88</ele>
        <time>2012-12-16T15:33:15Z</time>
      </trkpt>
      <trkpt lat="44.77103" lon="-0.3684">
        <ele>88</ele>
        <time>2012-12-16T15:33:16Z</time>
      </trkpt>
      <trkpt lat="44.77094" lon="-0.36821">
        <ele>89</ele>
        <time>2012-12-16T15:33:22Z</time>
      </trkpt>
      <trkpt lat="44.77092" lon="-0.36817">
        <ele>89</ele>
        <time>2012-12-16T15:33:23Z</time>
      </trkpt>
      <trkpt lat="44.77073" lon="-0.36795">
        <ele>91</ele>
        <time>2012-12-16T15:33:31Z</time>
      </trkpt>
      <trkpt lat="44.77056" lon="-0.36779">
        <ele>94</ele>
        <time>2012-12-16T15:33:38Z</time>
      </trkpt>
      <trkpt lat="44.77052" lon="-0.36777">
        <ele>94</ele>
        <time>2012-12-16T15:33:40Z</time>
      </trkpt>
      <trkpt lat="44.77041" lon="-0.36765">
        <ele>95</ele>
        <time>2012-12-16T15:33:47Z</time>
      </trkpt>
      <trkpt lat="44.77038" lon="-0.36764">
        <ele>95</ele>
        <time>2012-12-16T15:33:49Z</time>
      </trkpt>
      <trkpt lat="44.77034" lon="-0.36759">
        <ele>95</ele>
        <time>2012-12-16T15:33:56Z</time>
      </trkpt>
      <trkpt lat="44.7703" lon="-0.36754">
        <ele>95</ele>
        <time>2012-12-16T15:34:02Z</time>
      </trkpt>
      <trkpt lat="44.77026" lon="-0.36751">
        <ele>95</ele>
        <time>2012-12-16T15:34:09Z</time>
      </trkpt>
      <trkpt lat="44.77022" lon="-0.36751">
        <ele>96</ele>
        <time>2012-12-16T15:34:17Z</time>
      </trkpt>
      <trkpt lat="44.77021" lon="-0.36749">
        <ele>96</ele>
        <time>2012-12-16T15:34:24Z</time>
      </trkpt>
      <trkpt lat="44.77021" lon="-0.36749">
        <ele>96</ele>
        <time>2012-12-16T15:34:32Z</time>
      </trkpt>
      <trkpt lat="44.77021" lon="-0.36748">
        <ele>96</ele>
        <time>2012-12-16T15:34:48Z</time>
      </trkpt>
      <trkpt lat="44.77021" lon="-0.36747">
        <ele>96</ele>
        <time>2012-12-16T15:35:07Z</time>
      </trkpt>
      <trkpt lat="44.77021" lon="-0.36748">
        <ele>96</ele>
        <time>2012-12-16T15:35:27Z</time>
      </trkpt>
      <trkpt lat="44.7702" lon="-0.36748">
        <ele>96</ele>
        <time>2012-12-16T15:35:51Z</time>
      </trkpt>
      <trkpt lat="44.77019" lon="-0.36747">
        <ele>96</ele>
        <time>2012-12-16T15:36:14Z</time>
      </trkpt>
      <trkpt lat="44.77019" lon="-0.36747">
        <ele>96</ele>
        <time>2012-12-16T15:36:23Z</time>
      </trkpt>
      <trkpt lat="44.77019" lon="-0.36747">
        <ele>96</ele>
        <time>2012-12-16T15:36:47Z</time>
      </trkpt>
      <trkpt lat="44.7702" lon="-0.36747">
        <ele>96</ele>
        <time>2012-12-16T15:37:08Z</time>
      </trkpt>
      <trkpt lat="44.7702" lon="-0.36748">
        <ele>96</ele>
        <time>2012-12-16T15:37:26Z</time>
      </trkpt>
      <trkpt lat="44.7702" lon="-0.36748">
        <ele>96</ele>
        <time>2012-12-16T15:37:48Z</time>
      </trkpt>
      <trkpt lat="44.7702" lon="-0.36748">
        <ele>96</ele>
        <time>2012-12-16T15:38:09Z</time>
      </trkpt>
      <trkpt lat="44.7702" lon="-0.36749">
        <ele>96</ele>
        <time>2012-12-16T15:38:28Z</time>
      </trkpt>
      <trkpt lat="44.7702" lon="-0.3675">
        <ele>96</ele>
        <time>2012-12-16T15:38:45Z</time>
      </trkpt>
      <trkpt lat="44.77019" lon="-0.36751">
        <ele>96</ele>
        <time>2012-12-16T15:39:05Z</time>
      </trkpt>
      <trkpt lat="44.7702" lon="-0.3675">
        <ele>96</ele>
        <time>2012-12-16T15:39:22Z</time>
      </trkpt>
      <trkpt lat="44.77021" lon="-0.36749">
        <ele>96</ele>
        <time>2012-12-16T15:39:43Z</time>
      </trkpt>
      <trkpt lat="44.77021" lon="-0.36749">
        <ele>96</ele>
        <time>2012-12-16T15:40:08Z</time>
      </trkpt>
      <trkpt lat="44.77021" lon="-0.36749">
        <ele>96</ele>
        <time>2012-12-16T15:40:21Z</time>
      </trkpt>
      <trkpt lat="44.77021" lon="-0.36749">
        <ele>96</ele>
        <time>2012-12-16T15:40:33Z</time>
      </trkpt>
      <trkpt lat="44.77021" lon="-0.36749">
        <ele>96</ele>
        <time>2012-12-16T15:40:49Z</time>
      </trkpt>
      <trkpt lat="44.77021" lon="-0.36749">
        <ele>96</ele>
        <time>2012-12-16T15:41:05Z</time>
      </trkpt>
      <trkpt lat="44.77021" lon="-0.36749">
        <ele>96</ele>
        <time>2012-12-16T15:41:20Z</time>
      </trkpt>
      <trkpt lat="44.77021" lon="-0.36749">
        <ele>96</ele>
        <time>2012-12-16T15:41:38Z</time>
      </trkpt>
      <trkpt lat="44.77021" lon="-0.36748">
        <ele>96</ele>
        <time>2012-12-16T15:41:54Z</time>
      </trkpt>
      <trkpt lat="44.77021" lon="-0.36748">
        <ele>96</ele>
        <time>2012-12-16T15:42:07Z</time>
      </trkpt>
      <trkpt lat="44.77021" lon="-0.36747">
        <ele>96</ele>
        <time>2012-12-16T15:42:31Z</time>
      </trkpt>
      <trkpt lat="44.7702" lon="-0.36748">
        <ele>96</ele>
        <time>2012-12-16T15:42:54Z</time>
      </trkpt>
      <trkpt lat="44.7702" lon="-0.36749">
        <ele>96</ele>
        <time>2012-12-16T15:43:17Z</time>
      </trkpt>
      <trkpt lat="44.7702" lon="-0.36748">
        <ele>96</ele>
        <time>2012-12-16T15:43:35Z</time>
      </trkpt>
      <trkpt lat="44.77019" lon="-0.36747">
        <ele>96</ele>
        <time>2012-12-16T15:43:52Z</time>
      </trkpt>
      <trkpt lat="44.77019" lon="-0.36747">
        <ele>96</ele>
        <time>2012-12-16T15:44:14Z</time>
      </trkpt>
      <trkpt lat="44.77019" lon="-0.36746">
        <ele>96</ele>
        <time>2012-12-16T15:44:37Z</time>
      </trkpt>
      <trkpt lat="44.7702" lon="-0.36746">
        <ele>96</ele>
        <time>2012-12-16T15:45:00Z</time>
      </trkpt>
      <trkpt lat="44.7702" lon="-0.36745">
        <ele>96</ele>
        <time>2012-12-16T15:45:22Z</time>
      </trkpt>
      <trkpt lat="44.77021" lon="-0.36746">
        <ele>96</ele>
        <time>2012-12-16T15:45:41Z</time>
      </trkpt>
      <trkpt lat="44.7702" lon="-0.36746">
        <ele>96</ele>
        <time>2012-12-16T15:46:04Z</time>
      </trkpt>
      <trkpt lat="44.77021" lon="-0.36747">
        <ele>96</ele>
        <time>2012-12-16T15:46:30Z</time>
      </trkpt>
      <trkpt lat="44.7702" lon="-0.36748">
        <ele>96</ele>
        <time>2012-12-16T15:46:51Z</time>
      </trkpt>
      <trkpt lat="44.7702" lon="-0.36749">
        <ele>96</ele>
        <time>2012-12-16T15:47:10Z</time>
      </trkpt>
      <trkpt lat="44.77021" lon="-0.36748">
        <ele>96</ele>
        <time>2012-12-16T15:47:31Z</time>
      </trkpt>
      <trkpt lat="44.77021" lon="-0.36749">
        <ele>96</ele>
        <time>2012-12-16T15:47:51Z</time>
      </trkpt>
      <trkpt lat="44.77021" lon="-0.36748">
        <ele>96</ele>
        <time>2012-12-16T15:48:09Z</time>
      </trkpt>
      <trkpt lat="44.77021" lon="-0.36748">
        <ele>96</ele>
        <time>2012-12-16T15:48:25Z</time>
      </trkpt>
      <trkpt lat="44.7702" lon="-0.36748">
        <ele>96</ele>
        <time>2012-12-16T15:48:43Z</time>
      </trkpt>
      <trkpt lat="44.7702" lon="-0.36748">
        <ele>96</ele>
        <time>2012-12-16T15:49:01Z</time>
      </trkpt>
      <trkpt lat="44.77018" lon="-0.36747">
        <ele>96</ele>
        <time>2012-12-16T15:49:06Z</time>
      </trkpt>
      <trkpt lat="44.77018" lon="-0.36745">
        <ele>96</ele>
        <time>2012-12-16T15:49:11Z</time>
      </trkpt>
      <trkpt lat="44.77018" lon="-0.36745">
        <ele>96</ele>
        <time>2012-12-16T15:49:12Z</time>
      </trkpt>
      <trkpt lat="44.77019" lon="-0.36727">
        <ele>96</ele>
        <time>2012-12-16T15:49:20Z</time>
      </trkpt>
      <trkpt lat="44.77029" lon="-0.36705">
        <ele>96</ele>
        <time>2012-12-16T15:49:28Z</time>
      </trkpt>
      <trkpt lat="44.7704" lon="-0.36686">
        <ele>95</ele>
        <time>2012-12-16T15:49:35Z</time>
      </trkpt>
      <trkpt lat="44.7705" lon="-0.3667">
        <ele>95</ele>
        <time>2012-12-16T15:49:41Z</time>
      </trkpt>
      <trkpt lat="44.77066" lon="-0.36639">
        <ele>94</ele>
        <time>2012-12-16T15:49:49Z</time>
      </trkpt>
      <trkpt lat="44.77088" lon="-0.36585">
        <ele>94</ele>
        <time>2012-12-16T15:49:58Z</time>
      </trkpt>
      <trkpt lat="44.771" lon="-0.36563">
        <ele>95</ele>
        <time>2012-12-16T15:50:02Z</time>
      </trkpt>
      <trkpt lat="44.77103" lon="-0.36558">
        <ele>95</ele>
        <time>2012-12-16T15:50:03Z</time>
      </trkpt>
      <trkpt lat="44.77116" lon="-0.36541">
        <ele>95</ele>
        <time>2012-12-16T15:50:07Z</time>
      </trkpt>
      <trkpt lat="44.77119" lon="-0.36536">
        <ele>95</ele>
        <time>2012-12-16T15:50:08Z</time>
      </trkpt>
      <trkpt lat="44.77121" lon="-0.36531">
        <ele>96</ele>
        <time>2012-12-16T15:50:09Z</time>
      </trkpt>
      <trkpt lat="44.77127" lon="-0.36502">
        <ele>96</ele>
        <time>2012-12-16T15:50:15Z</time>
      </trkpt>
      <trkpt lat="44.77133" lon="-0.36461">
        <ele>97</ele>
        <time>2012-12-16T15:50:23Z</time>
      </trkpt>
      <trkpt lat="44.77171" lon="-0.36213">
        <ele>100</ele>
        <time>2012-12-16T15:51:12Z</time>
      </trkpt>
      <trkpt lat="44.77179" lon="-0.36166">
        <ele>100</ele>
        <time>2012-12-16T15:51:21Z</time>
      </trkpt>
      <trkpt lat="44.77183" lon="-0.36112">
        <ele>100</ele>
        <time>2012-12-16T15:51:30Z</time>
      </trkpt>
      <trkpt lat="44.7719" lon="-0.36044">
        <ele>100</ele>
        <time>2012-12-16T15:51:41Z</time>
      </trkpt>
      <trkpt lat="44.7719" lon="-0.36038">
        <ele>100</ele>
        <time>2012-12-16T15:51:42Z</time>
      </trkpt>
      <trkpt lat="44.77191" lon="-0.36032">
        <ele>100</ele>
        <time>2012-12-16T15:51:43Z</time>
      </trkpt>
      <trkpt lat="44.77203" lon="-0.3597">
        <ele>100</ele>
        <time>2012-12-16T15:51:54Z</time>
      </trkpt>
      <trkpt lat="44.77213" lon="-0.35925">
        <ele>100</ele>
        <time>2012-12-16T15:52:02Z</time>
      </trkpt>
      <trkpt lat="44.77215" lon="-0.3592">
        <ele>100</ele>
        <time>2012-12-16T15:52:03Z</time>
      </trkpt>
      <trkpt lat="44.77217" lon="-0.35908">
        <ele>100</ele>
        <time>2012-12-16T15:52:05Z</time>
      </trkpt>
      <trkpt lat="44.77218" lon="-0.35901">
        <ele>100</ele>
        <time>2012-12-16T15:52:06Z</time>
      </trkpt>
      <trkpt lat="44.77219" lon="-0.35895">
        <ele>100</ele>
        <time>2012-12-16T15:52:07Z</time>
      </trkpt>
      <trkpt lat="44.77221" lon="-0.35877">
        <ele>100</ele>
        <time>2012-12-16T15:52:10Z</time>
      </trkpt>
      <trkpt lat="44.77222" lon="-0.35866">
        <ele>100</ele>
        <time>2012-12-16T15:52:12Z</time>
      </trkpt>
      <trkpt lat="44.7722" lon="-0.3581">
        <ele>100</ele>
        <time>2012-12-16T15:52:21Z</time>
      </trkpt>
      <trkpt lat="44.77219" lon="-0.3576">
        <ele>100</ele>
        <time>2012-12-16T15:52:29Z</time>
      </trkpt>
      <trkpt lat="44.77218" lon="-0.35712">
        <ele>100</ele>
        <time>2012-12-16T15:52:37Z</time>
      </trkpt>
      <trkpt lat="44.77215" lon="-0.35646">
        <ele>100</ele>
        <time>2012-12-16T15:52:48Z</time>
      </trkpt>
      <trkpt lat="44.77215" lon="-0.35594">
        <ele>100</ele>
        <time>2012-12-16T15:52:56Z</time>
      </trkpt>
      <trkpt lat="44.77212" lon="-0.35564">
        <ele>101</ele>
        <time>2012-12-16T15:53:00Z</time>
      </trkpt>
      <trkpt lat="44.77206" lon="-0.35498">
        <ele>102</ele>
        <time>2012-12-16T15:53:10Z</time>
      </trkpt>
      <trkpt lat="44.77203" lon="-0.35475">
        <ele>102</ele>
        <time>2012-12-16T15:53:15Z</time>
      </trkpt>
      <trkpt lat="44.77203" lon="-0.35454">
        <ele>102</ele>
        <time>2012-12-16T15:53:21Z</time>
      </trkpt>
      <trkpt lat="44.77206" lon="-0.3543">
        <ele>103</ele>
        <time>2012-12-16T15:53:26Z</time>
      </trkpt>
      <trkpt lat="44.77209" lon="-0.35405">
        <ele>103</ele>
        <time>2012-12-16T15:53:31Z</time>
      </trkpt>
      <trkpt lat="44.77211" lon="-0.35404">
        <ele>103</ele>
        <time>2012-12-16T15:53:32Z</time>
      </trkpt>
      <trkpt lat="44.77214" lon="-0.35406">
        <ele>103</ele>
        <time>2012-12-16T15:53:33Z</time>
      </trkpt>
      <trkpt lat="44.77216" lon="-0.35408">
        <ele>103</ele>
        <time>2012-12-16T15:53:34Z</time>
      </trkpt>
      <trkpt lat="44.77219" lon="-0.35411">
        <ele>103</ele>
        <time>2012-12-16T15:53:35Z</time>
      </trkpt>
      <trkpt lat="44.7722" lon="-0.35415">
        <ele>103</ele>
        <time>2012-12-16T15:53:36Z</time>
      </trkpt>
      <trkpt lat="44.77222" lon="-0.35419">
        <ele>103</ele>
        <time>2012-12-16T15:53:37Z</time>
      </trkpt>
      <trkpt lat="44.77222" lon="-0.35423">
        <ele>103</ele>
        <time>2012-12-16T15:53:38Z</time>
      </trkpt>
      <trkpt lat="44.77223" lon="-0.35428">
        <ele>103</ele>
        <time>2012-12-16T15:53:39Z</time>
      </trkpt>
      <trkpt lat="44.7723" lon="-0.35459">
        <ele>102</ele>
        <time>2012-12-16T15:53:47Z</time>
      </trkpt>
      <trkpt lat="44.77232" lon="-0.3546">
        <ele>102</ele>
        <time>2012-12-16T15:53:48Z</time>
      </trkpt>
      <trkpt lat="44.77233" lon="-0.35461">
        <ele>102</ele>
        <time>2012-12-16T15:53:49Z</time>
      </trkpt>
      <trkpt lat="44.77239" lon="-0.3546">
        <ele>102</ele>
        <time>2012-12-16T15:53:56Z</time>
      </trkpt>
      <trkpt lat="44.77256" lon="-0.35454">
        <ele>102</ele>
        <time>2012-12-16T15:54:03Z</time>
      </trkpt>
      <trkpt lat="44.77272" lon="-0.35449">
        <ele>102</ele>
        <time>2012-12-16T15:54:09Z</time>
      </trkpt>
      <trkpt lat="44.7729" lon="-0.35443">
        <ele>102</ele>
        <time>2012-12-16T15:54:16Z</time>
      </trkpt>
      <trkpt lat="44.7731" lon="-0.35436">
        <ele>102</ele>
        <time>2012-12-16T15:54:24Z</time>
      </trkpt>
      <trkpt lat="44.77328" lon="-0.3543">
        <ele>101</ele>
        <time>2012-12-16T15:54:30Z</time>
      </trkpt>
      <trkpt lat="44.7734" lon="-0.35426">
        <ele>101</ele>
        <time>2012-12-16T15:54:33Z</time>
      </trkpt>
      <trkpt lat="44.77369" lon="-0.35416">
        <ele>101</ele>
        <time>2012-12-16T15:54:41Z</time>
      </trkpt>
      <trkpt lat="44.77392" lon="-0.35408">
        <ele>101</ele>
        <time>2012-12-16T15:54:48Z</time>
      </trkpt>
      <trkpt lat="44.77416" lon="-0.354">
        <ele>101</ele>
        <time>2012-12-16T15:54:56Z</time>
      </trkpt>
      <trkpt lat="44.77431" lon="-0.35396">
        <ele>100</ele>
        <time>2012-12-16T15:55:02Z</time>
      </trkpt>
      <trkpt lat="44.77437" lon="-0.35394">
        <ele>100</ele>
        <time>2012-12-16T15:55:09Z</time>
      </trkpt>
      <trkpt lat="44.77439" lon="-0.3539">
        <ele>100</ele>
        <time>2012-12-16T15:55:15Z</time>
      </trkpt>
      <trkpt lat="44.7744" lon="-0.35388">
        <ele>100</ele>
        <time>2012-12-16T15:55:22Z</time>
      </trkpt>
      <trkpt lat="44.77442" lon="-0.35388">
        <ele>100</ele>
        <time>2012-12-16T15:55:24Z</time>
      </trkpt>
      <trkpt lat="44.77443" lon="-0.35388">
        <ele>100</ele>
        <time>2012-12-16T15:55:25Z</time>
      </trkpt>
      <trkpt lat="44.77444" lon="-0.35388">
        <ele>100</ele>
        <time>2012-12-16T15:55:31Z</time>
      </trkpt>
      <trkpt lat="44.77444" lon="-0.35387">
        <ele>100</ele>
        <time>2012-12-16T15:55:34Z</time>
      </trkpt>
      <trkpt lat="44.77443" lon="-0.35385">
        <ele>100</ele>
        <time>2012-12-16T15:55:35Z</time>
      </trkpt>
      <trkpt lat="44.77443" lon="-0.35383">
        <ele>100</ele>
        <time>2012-12-16T15:55:36Z</time>
      </trkpt>
      <trkpt lat="44.77442" lon="-0.35381">
        <ele>100</ele>
        <time>2012-12-16T15:55:37Z</time>
      </trkpt>
      <trkpt lat="44.77442" lon="-0.3538">
        <ele>100</ele>
        <time>2012-12-16T15:55:38Z</time>
      </trkpt>
      <trkpt lat="44.77441" lon="-0.35378">
        <ele>100</ele>
        <time>2012-12-16T15:55:39Z</time>
      </trkpt>
      <trkpt lat="44.77439" lon="-0.35367">
        <ele>101</ele>
        <time>2012-12-16T15:55:44Z</time>
      </trkpt>
      <trkpt lat="44.77431" lon="-0.35335">
        <ele>102</ele>
        <time>2012-12-16T15:55:54Z</time>
      </trkpt>
      <trkpt lat="44.77422" lon="-0.35307">
        <ele>102</ele>
        <time>2012-12-16T15:56:02Z</time>
      </trkpt>
      <trkpt lat="44.77411" lon="-0.35279">
        <ele>103</ele>
        <time>2012-12-16T15:56:10Z</time>
      </trkpt>
      <trkpt lat="44.774" lon="-0.35255">
        <ele>103</ele>
        <time>2012-12-16T15:56:17Z</time>
      </trkpt>
      <trkpt lat="44.77398" lon="-0.35239">
        <ele>103</ele>
        <time>2012-12-16T15:56:22Z</time>
      </trkpt>
      <trkpt lat="44.77407" lon="-0.3523">
        <ele>103</ele>
        <time>2012-12-16T15:56:28Z</time>
      </trkpt>
      <trkpt lat="44.77416" lon="-0.35222">
        <ele>103</ele>
        <time>2012-12-16T15:56:34Z</time>
      </trkpt>
      <trkpt lat="44.77419" lon="-0.3522">
        <ele>103</ele>
        <time>2012-12-16T15:56:35Z</time>
      </trkpt>
      <trkpt lat="44.77441" lon="-0.352">
        <ele>102</ele>
        <time>2012-12-16T15:56:43Z</time>
      </trkpt>
      <trkpt lat="44.77467" lon="-0.35179">
        <ele>101</ele>
        <time>2012-12-16T15:56:51Z</time>
      </trkpt>
      <trkpt lat="44.77498" lon="-0.35153">
        <ele>99</ele>
        <time>2012-12-16T15:56:59Z</time>
      </trkpt>
      <trkpt lat="44.77534" lon="-0.35121">
        <ele>95</ele>
        <time>2012-12-16T15:57:08Z</time>
      </trkpt>
      <trkpt lat="44.77544" lon="-0.35108">
        <ele>95</ele>
        <time>2012-12-16T15:57:11Z</time>
      </trkpt>
      <trkpt lat="44.77559" lon="-0.35079">
        <ele>95</ele>
        <time>2012-12-16T15:57:18Z</time>
      </trkpt>
      <trkpt lat="44.77563" lon="-0.35072">
        <ele>95</ele>
        <time>2012-12-16T15:57:21Z</time>
      </trkpt>
      <trkpt lat="44.77567" lon="-0.3507">
        <ele>95</ele>
        <time>2012-12-16T15:57:24Z</time>
      </trkpt>
      <trkpt lat="44.77571" lon="-0.35076">
        <ele>95</ele>
        <time>2012-12-16T15:57:28Z</time>
      </trkpt>
      <trkpt lat="44.77585" lon="-0.35098">
        <ele>93</ele>
        <time>2012-12-16T15:57:36Z</time>
      </trkpt>
      <trkpt lat="44.77597" lon="-0.35118">
        <ele>94</ele>
        <time>2012-12-16T15:57:43Z</time>
      </trkpt>
      <trkpt lat="44.77599" lon="-0.35123">
        <ele>94</ele>
        <time>2012-12-16T15:57:45Z</time>
      </trkpt>
      <trkpt lat="44.77603" lon="-0.35121">
        <ele>95</ele>
        <time>2012-12-16T15:57:50Z</time>
      </trkpt>
      <trkpt lat="44.77603" lon="-0.3512">
        <ele>95</ele>
        <time>2012-12-16T15:57:59Z</time>
      </trkpt>
      <trkpt lat="44.77606" lon="-0.35108">
        <ele>95</ele>
        <time>2012-12-16T15:58:03Z</time>
      </trkpt>
      <trkpt lat="44.77615" lon="-0.35076">
        <ele>95</ele>
        <time>2012-12-16T15:58:10Z</time>
      </trkpt>
      <trkpt lat="44.77626" lon="-0.35014">
        <ele>96</ele>
        <time>2012-12-16T15:58:21Z</time>
      </trkpt>
      <trkpt lat="44.77628" lon="-0.35001">
        <ele>96</ele>
        <time>2012-12-16T15:58:24Z</time>
      </trkpt>
      <trkpt lat="44.77626" lon="-0.34997">
        <ele>96</ele>
        <time>2012-12-16T15:58:25Z</time>
      </trkpt>
      <trkpt lat="44.77626" lon="-0.34994">
        <ele>96</ele>
        <time>2012-12-16T15:58:26Z</time>
      </trkpt>
      <trkpt lat="44.77626" lon="-0.3499">
        <ele>96</ele>
        <time>2012-12-16T15:58:27Z</time>
      </trkpt>
      <trkpt lat="44.77627" lon="-0.34985">
        <ele>96</ele>
        <time>2012-12-16T15:58:28Z</time>
      </trkpt>
      <trkpt lat="44.77628" lon="-0.34982">
        <ele>96</ele>
        <time>2012-12-16T15:58:29Z</time>
      </trkpt>
      <trkpt lat="44.77629" lon="-0.34978">
        <ele>96</ele>
        <time>2012-12-16T15:58:30Z</time>
      </trkpt>
      <trkpt lat="44.77635" lon="-0.34954">
        <ele>97</ele>
        <time>2012-12-16T15:58:36Z</time>
      </trkpt>
    </trkseg>
  </trk>
</gpx>